     2              OBSERVATION DATA    GPS                 RINEX VERSION / TYPE
teqc 2000Jul20 Karen Wendt 20030328 21:22:57UTC             PGM / RUN BY / DATE
                                                            COMMENT
L2: 1 -> 1; 150 -> 5; 250 -> 9                              COMMENT
L2: 1 -> 1; 150 -> 5; 250 -> 9                              COMMENT
L2: 1 -> 1; 150 -> 5; 250 -> 9                              COMMENT
L2: 1 -> 1; 150 -> 5; 250 -> 9                              COMMENT
L2: 1 -> 1; 150 -> 5; 250 -> 9                              COMMENT
L2: 1 -> 1; 150 -> 5; 250 -> 9                              COMMENT
L2: 1 -> 1; 150 -> 5; 250 -> 9                              COMMENT
L2: 1 -> 1; 150 -> 5; 250 -> 9                              COMMENT
L2: 1 -> 1; 150 -> 5; 250 -> 9                              COMMENT
L2: 1 -> 1; 150 -> 5; 250 -> 9                              COMMENT
L2: 1 -> 1; 150 -> 5; 250 -> 9                              COMMENT
L2: 1 -> 1; 150 -> 5; 250 -> 9                              COMMENT
L2: 1 -> 1; 150 -> 5; 250 -> 9                              COMMENT
L2: 1 -> 1; 150 -> 5; 250 -> 9                              COMMENT
Original Marker Name: cbar Crowbar_1932_USC&GS              COMMENT
Campaign Name: USGS 2003                                    COMMENT
4-Character Station Name: CBAR                              COMMENT
6-Character Antenna Code: DMRCHT                            COMMENT
Vertical Measurement Point: BCR                             COMMENT
Vertical Offset to Rinex Ref. Point: 0.0348                 COMMENT
Radial Measurement Point: ECF                               COMMENT
Radial Offset to Rinex Ref. Point: 0.1897                   COMMENT
Antenna Height from Field Measurement: 1.3500 m             COMMENT
Additional Antenna Identification Info.:                    COMMENT
Turborogue and Ashtech Choke Ring                           COMMENT
Original XYZ: -2611794.2077 -4475860.1176 3706516.0461      COMMENT
New XYZ position is based on association with SCEC monument COMMENT
E1F1E5L5+0011. Position of that monument is believed to be  COMMENT
valid to within 1 m horizontally; vertical accuracy         COMMENT
should be no worse than 3-times this value.                 COMMENT
                                                            COMMENT
Revised Rinex header created by UCSD GPS archive for        COMMENT
GSAC on 11-Jul-2003 (2003:192) 16:19:11 GMT                 COMMENT
For assistance contact dagnew@ucsd.edu                      COMMENT
or anderson@python.ucsd.edu                                 COMMENT
                                                            COMMENT
CROWBAR 1932                                                MARKER NAME
JMS US GEOLOGICAL SURVEY                                    OBSERVER / AGENCY
LP020000801 ASHTECH Z-XII3 CD00                             REC # / TYPE / VERS
CR14341 DORNE-MARGOL. TYPE T                                ANT # / TYPE
 -2611815.3339 -4475843.7984  3706509.6133                  APPROX POSITION XYZ
        1.3018        0.0000        0.0000                  ANTENNA: DELTA H/E/N
     1     1     0                                          WAVELENGTH FACT L1/2
     5    C1    L1    L2    P1    P2                        # / TYPES OF OBSERV
    30                                                      INTERVAL
  2003     3    20    18    39    0.000000                  TIME OF FIRST OBS
  2003     3    20    23    59   30.000000                  TIME OF LAST OBS
                                                            END OF HEADER
 03  3 20 18 39  0.0000000  0  5G24G 4G 9G 5G30
  21045744.323      107821.98149     77787.82048  21045743.905    21045749.806
  23000908.796      243396.64049    171103.08346  23000908.583    23000914.680
  23446149.743      235063.09649    170403.18546  23446149.519    23446156.082
  20585119.856      -37797.95749    -27018.03648  20585119.009    20585124.233
  22016626.337     -214711.79249   -147875.08847  22016626.247    22016631.095
 03  3 20 18 39 29.9990000  0  7G 6G24G10G 4G 9G 5G30
  23793218.877     -195266.13749   -136099.24745  23793219.057    23793225.036
  20754701.814      153802.94349    113617.11248  20754701.319    20754707.227
  22919893.086     -257213.67149   -185225.08846  22919891.529    22919899.661
  22719803.402      341596.15649    247622.10446  22719802.938    22719809.018
  23164959.378      332815.55949    246573.85846  23164958.773    23164965.333
  20282853.984      -50795.55449    -37146.04748  20282853.203    20282858.433
  21702544.028     -289805.98849   -206390.03547  21702543.801    21702548.686
 03  3 20 18 40  0.0000000  0  7G 6G24G10G 4G 9G 5G30
  23793745.679    -1767923.40149  -1361546.44245  23793744.453    23793750.889
  20776316.225    -1308032.59949  -1025475.54548  20776315.746    20776321.678
  22915988.871    -1853142.08549  -1428805.61246  22915988.891    22915996.973
  22751311.384    -1068247.84049   -850957.71246  22751311.025    22751317.120
  23196375.283    -1077512.87549   -852383.44146  23196374.594    23196381.258
  20293255.052    -1571557.76849  -1222155.57748  20293254.252    20293259.514
  21701089.612    -1872868.47049  -1439945.20747  21701089.458    21701094.382
 03  3 20 18 40 30.0000000  0  7G 6G24G10G 4G 9G 5G30
  23780537.622    -1837330.38949  -1415629.77545  23780536.707    23780543.279
  20784267.128    -1266250.31749   -992917.95848  20784266.652    20784272.607
  22898384.274    -1945657.41949  -1500895.43046  22898383.799    22898391.876
  22769112.037     -974704.51949   -778066.88046  22769111.762    22769117.886
  23214076.435     -984491.69049   -779899.48446  23214075.919    23214082.630
  20290003.872    -1588642.97849  -1235468.74248  20290003.053    20290008.344
  21685945.228    -1952452.53749  -1501958.75647  21685945.142    21685950.088
 03  3 20 18 41  0.0000000  0  7G 6G24G10G 4G 9G 5G30
  23767340.631    -1906680.75249  -1469668.99745  23767339.823    23767346.334
  20792299.051    -1224042.28949   -960028.61348  20792298.561    20792304.575
  22880821.768    -2037950.70749  -1572812.23346  22880820.987    22880829.021
  22786950.069     -880964.91049   -705023.11346  22786949.833    22786956.039
  23231807.767     -891312.64149   -707292.51346  23231807.265    23231814.102
  20286845.206    -1605241.85849  -1248402.94548  20286844.380    20286849.689
  21670855.414    -2031749.85349  -1563748.86147  21670855.349    21670860.325
 03  3 20 18 41 30.0000000  0  7G 6G24G10G 4G 9G 5G30
  23754154.388    -1975974.74249  -1523664.30345  23754153.652    23754160.165
  20800411.603    -1181410.54449   -926809.10448  20800411.135    20800417.164
  22863301.898    -2130018.73849  -1644553.50546  22863301.015    22863309.003
  22804824.979     -787031.78949   -631828.55046  22804824.758    22804830.978
  23249568.537     -797979.05549   -634565.11946  23249568.059    23249574.956
  20283779.339    -1621353.26249  -1260957.29548  20283778.512    20283783.839
  21655820.661    -2110758.02049  -1625313.65147  21655820.617    21655825.632
 03  3 20 18 42  0.0000000  0  7G 6G24G10G 4G 9G 5G30
  23740978.635    -2045213.47549  -1577616.52345  23740978.013    23740984.453
  20808604.272    -1138358.16349   -893261.82648  20808603.793    20808609.838
  22845825.308    -2221859.18549  -1716117.41646  22845824.345    22845832.304
  22822736.039     -692908.61949   -558485.89846  22822735.829    22822742.092
  23267358.009     -704494.75649   -561720.31346  23267357.534    23267364.473
  20280806.268    -1636977.01549  -1273131.66348  20280805.450    20280810.777
  21640841.216    -2189475.68249  -1686652.07347  21640841.138    21640846.215
 03  3 20 18 42 30.0000000  0  7G 6G24G10G 4G 9G 5G30
  23727813.245    -2114397.61149  -1631526.20945  23727812.697    23727819.180
  20816876.438    -1094887.89049   -859388.91348  20816875.957    20816882.016
  22828392.501    -2313469.32249  -1787501.89746  22828391.494    22828399.496
  22840682.708     -598598.47149   -484997.56146  22840682.524    22840688.782
  23285175.485     -610863.24949   -488760.78346  23285175.029    23285182.028
  20277926.104    -1652112.49049  -1284925.53948  20277925.284    20277930.635
  21625917.400    -2267901.00849  -1747762.72047  21625917.329    21625922.399
 03  3 20 18 43  0.0000000  0  7G 6G24G10G 4G 9G 5G30
  23714658.246    -2183527.47249  -1685393.61946  23714657.724    23714664.163
  20825227.661    -1051002.15649   -825192.25748  20825227.185    20825233.247
  22811004.128    -2404846.13249  -1858704.54746  22811003.061    22811011.057
  22858664.392     -504104.25049   -411365.75146  22858664.246    22858670.524
  23303020.324     -517088.07649   -415689.28946  23303019.855    23303026.873
  20275139.005    -1666758.84649  -1296338.30848  20275138.184    20275143.517
  21611049.592    -2346031.88249  -1808643.93847  21611049.522    21611054.586
 03  3 20 18 43 30.0000000  0  7G 6G24G10G 4G 9G 5G30
  23701513.496    -2252603.36049  -1739218.95146  23701512.954    23701519.542
  20833657.525    -1006703.13849   -790673.58148  20833657.049    20833663.125
  22793660.644    -2495986.57849  -1929723.02746  22793659.588    22793667.553
  22876680.621     -409428.76749   -337592.73246  22876680.434    22876686.773
  23320891.920     -423172.52449   -342508.43646  23320891.472    23320898.456
  20272445.182    -1680915.14949  -1307369.19648  20272444.359    20272449.717
  21596238.196    -2423866.21749  -1869294.04047  21596238.125    21596243.220
 03  3 20 18 44  0.0000000  0  7G 6G24G10G 4G 9G 5G30
  23688379.027    -2321625.45349  -1793002.37346  23688378.517    23688385.065
  20842165.513     -961993.60649   -755835.01048  20842165.029    20842171.123
  22776362.730    -2586887.67949  -2000554.99046  22776361.603    22776369.605
  22894730.839     -314574.67349   -263680.51946  22894730.647    22894737.006
  23338789.619     -329119.86349   -269220.72546  23338789.172    23338796.148
  20269844.782    -1694580.46249  -1318017.49848  20269843.949    20269849.292
  21581483.680    -2501401.86649  -1929711.42647  21581483.590    21581488.715
 03  3 20 18 44 30.0000000  0  7G 6G24G10G 4G 9G 5G30
  23675254.869    -2390593.59949  -1846743.76946  23675254.342    23675260.913
  20850751.323     -916875.08649   -720677.75048  20850750.835    20850756.936
  22759111.077    -2677545.68549  -2071197.56246  22759109.917    22759117.914
  22912814.568     -219544.31349   -189630.97046  22912814.408    22912820.801
  23356712.884     -234932.89649   -195828.37746  23356712.385    23356719.389
  20267338.053    -1707753.49349  -1328282.21248  20267337.224    20267342.560
  21566786.500    -2578636.04549  -1989893.90047  21566786.414    21566791.524
 03  3 20 18 45  0.0000000  0  7G 6G24G10G 4G 9G 5G30
  23662140.858    -2459508.11549  -1900443.37146  23662140.421    23662146.873
  20859414.565     -871349.71249   -685203.45648  20859414.078    20859420.194
  22741906.257    -2767957.45349  -2141648.22946  22741905.107    22741913.100
  22930931.317     -124340.44449   -115446.21546  22930931.147    22930937.594
  23374661.049     -140614.68449   -122333.75946  23374660.599    23374667.675
  20264925.201    -1720433.19449  -1338162.50748  20264924.375    20264929.729
  21552147.096    -2655566.72149  -2049839.87847  21552147.019    21552152.137
 03  3 20 18 45 30.0000000  0  7G 6G24G10G 4G 9G 5G30
  23649037.023    -2528369.28849  -1954101.40046  23649036.543    23649043.061
  20868154.738     -825420.09349   -649414.17548  20868154.247    20868160.365
  22724748.893    -2858119.60949  -2211904.41146  22724747.775    22724755.813
  22949080.645      -28965.65249    -41128.26946  22949080.452    22949086.952
  23392633.602      -46168.55949    -48739.45646  23392633.157    23392640.288
  20262606.423    -1732618.69649  -1347657.71548  20262605.580    20262610.947
  21537565.885    -2732191.62049  -2109547.59647  21537565.803    21537570.919
 03  3 20 18 46  0.0000000  0  7G 6G24G10G 4G 9G 5G30
  23635943.384    -2597176.50849  -2007717.39946  23635942.888    23635949.559
  20876971.538     -779087.67949   -613311.02648  20876971.044    20876977.173
  22707639.695    -2948028.61749  -2281963.31646  22707638.559    22707646.661
  22967262.028       66577.83649     33321.11446  22967261.845    22967268.370
  23410630.006       48402.73049     24952.36146  23410629.558    23410636.703
  20260381.977    -1744308.51449  -1356766.67348  20260381.140    20260386.486
  21523043.377    -2808507.91249  -2169014.83647  21523043.287    21523048.387
 03  3 20 18 46 30.0000000  0  7G 6G24G10G 4G 9G 5G30
  23622860.061    -2665929.86849  -2061291.40046  23622859.595    23622866.292
  20885864.574     -732354.67649   -576895.72948  20885864.077    20885870.216
  22690579.283    -3037681.37749  -2351822.56246  22690578.160    22690586.328
  22985475.095      162287.71949    107900.18146  22985474.907    22985481.450
  23428649.648      143096.26949     98739.44546  23428649.214    23428656.294
  20258252.044    -1755501.57649  -1365488.54748  20258251.204    20258256.562
  21508580.062    -2884513.19049  -2228239.72947  21508579.980    21508585.051
 03  3 20 18 47  0.0000000  0  7G 6G24G10G 4G 9G 5G30
  23609787.072    -2734629.21549  -2114823.33746  23609786.555    23609793.244
  20894833.423     -685223.11649   -540169.87148  20894832.928    20894839.095
  22673568.316    -3127074.42349  -2421479.42646  22673567.146    22673575.397
  23003719.364      258161.46949    182606.93046  23003719.216    23003725.742
  23446692.041      237909.11549    172619.50446  23446691.563    23446698.664
  20256216.824    -1766196.76649  -1373822.47148  20256215.973    20256221.374
  21494176.471    -2960204.89749  -2287220.28447  21494176.401    21494181.408
 03  3 20 18 47 30.0000000  0  7G 6G24G10G 4G 9G 5G30
  23596724.294    -2803274.53449  -2168313.16246  23596723.808    23596730.432
  20903877.715     -637695.36849   -503135.29148  20903877.217    20903883.393
  22656607.459    -3216204.12349  -2490931.10246  22656606.288    22656614.572
  23021994.373      354196.94949    257439.70346  23021994.265    23022000.750
  23464756.654      332838.63649    246590.47646  23464756.187    23464763.239
  20254276.592    -1776392.79449  -1381767.44148  20254275.747    20254281.180
  21479832.982    -3035580.61049  -2345954.60647  21479832.911    21479837.911
 03  3 20 18 48  0.0000000  0  7G 6G24G10G 4G 9G 5G30
  23583671.859    -2871865.72649  -2221760.81146  23583671.364    23583678.015
  20912997.020     -589773.46749   -465793.58048  20912996.514    20913002.706
  22639697.338    -3305067.13149  -2560174.95746  22639696.195    22639704.511
  23040299.632      450391.47549    332396.41246  23040299.513    23040306.034
  23482842.868      427881.52749    320649.77846  23482842.426    23482849.390
  20252431.552    -1786088.63749  -1389322.65448  20252430.714    20252436.181
  21465550.076    -3110637.84049  -2404440.75147  21465550.009    21465555.031
 03  3 20 18 48 30.0000000  0  7G 6G24G10G 4G 9G 5G30
  23570629.556    -2940403.43349  -2275166.78146  23570629.053    23570635.716
  20922190.850     -541459.71849   -428146.52748  20922190.349    20922196.534
  22622838.540    -3393660.47349  -2629208.68646  22622837.416    22622845.764
  23058634.665      546742.28249    407474.88746  23058634.549    23058641.043
  23500949.994      523034.41249    394794.80046  23500949.551    23500956.469
  20250681.810    -1795283.78249  -1396487.71248  20250680.975    20250686.452
  21451328.172    -3185374.66049  -2462677.22347  21451328.115    21451333.131
 03  3 20 18 49  0.0000000  0  7G 6G24G10G 4G 9G 5G30
  23557597.613    -3008886.60649  -2328530.26046  23557597.085    23557603.750
  20931458.985     -492755.57049   -390195.26748  20931458.483    20931464.666
  22606031.792    -3481980.03349  -2698029.06346  22606030.641    22606039.048
  23076999.168      643247.90049    482674.00346  23076999.086    23077005.536
  23519077.682      618295.32549    469024.00946  23519077.261    23519084.052
  20249027.711    -1803976.19249  -1403261.02648  20249026.890    20249032.377
  21437167.873    -3259787.52749  -2520661.26547  21437167.818    21437172.853
 03  3 20 18 49 30.0000000  0  7G 6G24G10G 4G 9G 5G30
  23544576.086    -3077314.91549  -2381850.99646  23544575.560    23544582.222
  20940801.012     -443662.90949   -351941.27548  20940800.515    20940806.702
  22589277.866    -3570022.39449  -2766633.45146  22589276.709    22589285.077
  23095392.662      739905.94149    557991.88546  23095392.562    23095399.015
  23537225.375      713661.43649    543335.18346  23537224.938    23537231.711
  20247469.484    -1812164.70749  -1409641.69748  20247468.659    20247474.166
  21423069.653    -3333874.05049  -2578391.01147  21423069.607    21423074.670
 03  3 20 18 50  0.0000000  0  7G 6G24G10G 4G 9G 5G30
  23531564.881    -3145689.04849  -2435129.50246  23531564.337    23531571.024
  20950216.497     -394184.32849   -313386.56947  20950215.997    20950222.195
  22572577.177    -3657784.76449  -2835019.66146  22572576.041    22572584.399
  23113814.614      836713.47849    633426.25346  23113814.479    23113820.938
  23555392.372      809129.02549    617725.42546  23555391.911    23555398.680
  20246007.235    -1819849.01949  -1415629.48448  20246006.411    20246011.929
  21409033.946    -3407632.30849  -2635864.96947  21409033.894    21409038.978
 03  3 20 18 50 30.0000000  0  7G 6G24G10G 4G 9G 5G30
  23518563.996    -3214008.75449  -2488365.58746  23518563.468    23518570.168
  20959705.052     -344321.92449   -274532.77247  20959704.558    20959710.768
  22555930.439    -3745263.64649  -2903184.97946  22555929.305    22555937.648
  23132264.616      933668.41849    708975.49546  23132264.486    23132270.914
  23573578.180      904695.55649    692192.77446  23573577.681    23573584.512
  20244641.171    -1827027.90849  -1421223.43548  20244640.337    20244645.839
  21395061.149    -3481059.71549  -2693081.11547  21395061.097    21395066.206
 03  3 20 18 51  0.0000000  0  7G 6G24G10G 4G 9G 5G30
  23505573.461    -3282274.22449  -2541559.42146  23505572.901    23505579.710
  20969266.201     -294077.80749   -235381.54247  20969265.709    20969271.947
  22539338.295    -3832455.88249  -2971126.91046  22539337.132    22539345.473
  23150742.160     1030768.13549    784637.54646  23150742.054    23150748.490
  23591782.196     1000357.80949    766734.70646  23591781.719    23591788.507
  20243371.437    -1833700.60449  -1426422.95348  20243370.606    20243376.096
  21381151.787    -3554153.93149  -2750037.64247  21381151.727    21381156.842
 03  3 20 18 51 30.0000000  0  7G 6G24G10G 4G 9G 5G30
  23492593.231    -3350485.39649  -2594710.95446  23492592.687    23492599.487
  20978899.606     -243454.21349   -195934.61447  20978899.110    20978905.359
  22522801.318    -3919358.10649  -3038842.89046  22522800.190    22522808.522
  23169246.787     1128010.32949    860410.62046  23169246.664    23169253.112
  23610003.875     1096112.80449    841348.90746  23610003.434    23610010.265
  20242198.188    -1839866.13949  -1431227.28448  20242197.358    20242202.855
  21367306.320    -3626912.41649  -2806732.56347  21367306.282    21367311.369
 03  3 20 18 52  0.0000000  0  7G 6G24G10G 4G 9G 5G30
  23479623.470    -3418642.31649  -2647820.22046  23479622.925    23479629.608
  20988604.673     -192453.92149   -156194.15347  20988604.191    20988610.421
  22506320.107    -4005966.99849  -3106330.28046  22506319.009    22506327.315
  23187778.052     1225392.34449    936292.65346  23187777.945    23187784.378
  23628242.579     1191957.43749    916032.96346  23628242.138    23628249.028
  20241121.636    -1845523.55249  -1435635.67048  20241120.804    20241126.314
  21353525.190    -3699333.01049  -2863164.18947  21353525.132    21353530.183
 03  3 20 18 52 30.0000000  0  7G 6G24G10G 4G 9G 5G30
  23466663.939    -3486745.17249  -2700887.34646  23466663.417    23466669.975
  20998381.084     -141078.74149   -116161.57247  20998380.594    20998386.835
  22489895.383    -4092279.55449  -3173586.76946  22489894.270    22489902.536
  23206335.434     1322911.59349   1012281.59746  23206335.329    23206341.726
  23646497.712     1287888.46849    990784.33546  23646497.270    23646504.220
  20240141.861    -1850672.41149  -1439647.78348  20240141.042    20240146.542
  21339808.732    -3771413.67849  -2919330.94047  21339808.678    21339813.700
 03  3 20 18 53  0.0000000  0  7G 6G24G10G 4G 9G 5G30
  23453714.782    -3554793.52349  -2753912.00846  23453714.351    23453720.757
  21008228.419      -89330.83649    -75838.55647  21008227.956    21008234.173
  22473527.756    -4178292.11749  -3240609.48346  22473526.641    22473534.847
  23224918.556     1420566.16949   1088376.01046  23224918.443    23224924.868
  23664768.811     1383903.52249   1065601.16846  23664768.371    23664775.422
  20239259.118    -1855311.34749  -1443262.55348  20239258.303    20239263.796
  21326157.489    -3843151.45849  -2975230.50147  21326157.448    21326162.459
 03  3 20 18 53 30.0000000  0  7G 6G24G10G 4G 9G 5G30
  23440776.080    -3622787.11049  -2806893.98346  23440775.629    23440781.955
  21018146.275      -37212.32449    -35226.75847  21018145.810    21018152.028
  22457217.913    -4264001.09049  -3307395.63246  22457216.782    22457224.929
  23243526.982     1518353.81649   1164574.10046  23243526.831    23243533.333
  23683055.329     1479999.55249   1140481.08846  23683054.942    23683062.047
  20238473.602    -1859439.40849  -1446479.23448  20238472.787    20238478.281
  21312571.933    -3914543.81549  -3030860.90447  21312571.884    21312576.919
 03  3 20 18 54  0.0000000  0  7G 6G24G10G 4G 9G 5G30
  23427847.712    -3690725.92749  -2859833.28946  23427847.289    23427853.605
  21028134.203       15274.53449      5672.06547  21028133.746    21028139.965
  22440966.416    -4349403.53849  -3373942.93746  22440965.253    22440973.310
  23262160.258     1616272.05249   1240873.94746  23262160.111    23262166.657
  23701356.706     1576173.63549   1215421.84646  23701356.322    23701363.496
  20237785.447    -1863055.74749  -1449297.17448  20237784.643    20237790.148
  21299052.617    -3985588.36349  -3086220.28147  21299052.583    21299057.612
 03  3 20 18 54 30.0000000  0  7G 6G24G10G 4G 9G 5G30
  23414929.742    -3758610.32049  -2912730.17346  23414929.372    23414935.591
  21038191.851       68127.60849     46856.25747  21038191.393    21038197.609
  22424773.824    -4434496.36349  -3440248.97146  22424772.653    22424780.631
  23280817.940     1714318.54849   1317273.73146  23280817.815    23280824.362
  23719672.357     1672422.57349   1290420.91046  23719671.953    23719679.231
  20237194.815    -1866159.80249  -1451715.92848  20237194.012    20237199.498
  21285599.883    -4056282.88749  -3141306.91347  21285599.856    21285604.870
 03  3 20 18 55  0.0000000  0  7G 6G24G10G 4G 9G 5G30
  23402022.232    -3826440.02549  -2965584.45946  23402021.798    23402028.114
  21048318.785      121344.74449     88324.12747  21048318.332    21048324.516
  22408640.749    -4519275.94049  -3506310.91246  22408639.572    22408647.587
  23299499.584     1812491.02349   1393771.69946  23299499.492    23299506.086
  23738001.690     1768743.76449   1365476.29446  23738001.314    23738008.701
  20236701.880    -1868750.46749  -1453734.64048  20236701.083    20236706.548
  21272214.260    -4126624.77149  -3196118.76247  21272214.242    21272219.230
 03  3 20 18 55 30.0000000  0  7G 6G24G10G 4G 9G 5G30
  23389125.150    -3894214.79649  -3018395.93346  23389124.686    23389131.060
  21058514.601      174923.88449    130074.07947  21058514.144    21058520.342
  22392567.913    -4603738.99649  -3572126.23846  22392566.749    22392574.769
  23318204.731     1910786.96749   1470365.86246  23318204.613    23318211.240
  23756344.203     1865134.17749   1440585.59646  23756343.806    23756351.379
  20236306.793    -1870826.83149  -1455352.59748  20236305.997    20236311.434
  21258896.217    -4196611.61849  -3250653.95947  21258896.202    21258901.171
 03  3 20 18 56  0.0000000  0  7G 6G24G10G 4G 9G 5G30
  23376238.466    -3961934.53749  -3071164.53246  23376237.997    23376244.425
  21068778.904      228862.86449    172104.42447  21068778.448    21068784.663
  22376555.947    -4687882.21849  -3637692.32646  22376554.784    22376562.760
  23336933.070     2009204.46449   1547054.74946  23336932.947    23336939.586
  23774699.309     1961590.87749   1515746.56046  23774698.939    23774706.662
  20236009.674    -1872388.32849  -1456569.36248  20236008.873    20236014.273
  21245646.174    -4266241.13149  -3304910.71047  21245646.165    21245651.143
 03  3 20 18 56 30.0000000  0  7G 6G24G10G 4G 9G 5G30
  23363362.258    -4029599.35949  -3123890.34746  23363361.801    23363368.265
  21079111.168      283159.05049    214413.11147  21079110.725    21079116.932
  22360605.450    -4771702.49049  -3703006.76546  22360604.305    22360612.220
  23355683.955     2107740.70349   1623836.14846  23355683.836    23355690.468
  23793066.485     2058110.79949   1590956.78546  23793066.103    23793073.921
  20235810.664    -1873434.33849  -1457384.44748  20235809.860    20235815.237
  21232464.577    -4335510.79549  -3358887.05647  21232464.571    21232469.569
 03  3 20 18 57  0.0000000  0  7G 6G24G10G 4G 9G 5G30
  23350496.458    -4097209.14349  -3176573.26846  23350496.008    23350502.484
  21089511.002      337810.28749    256998.46247  21089510.555    21089516.774
  22344717.035    -4855196.70549  -3768067.13546  22344715.905    22344723.750
  23374457.078     2206393.69749   1700708.53046  23374456.910    23374463.674
  23811445.236     2154691.13749   1666214.09946  23811444.830    23811452.658
  20235709.924    -1873963.90349  -1457797.11048  20235709.120    20235714.501
  21219351.901    -4404418.37149  -3412581.25947  21219351.898    21219356.913
 03  3 20 18 57 30.0000000  0  7G 6G24G10G 4G 9G 5G30
  23337641.153    -4164763.89849  -3229213.31946  23337640.698    23337647.217
  21099977.955      392814.38249    299858.76047  21099977.509    21099983.726
  22328891.244    -4938361.66649  -3832870.93846  22328890.111    22328897.978
  23393251.954     2305161.08749   1777670.04246  23393251.799    23393258.551
  23829834.856     2251328.79649   1741516.06046  23829834.479    23829842.265
  20235707.533    -1873976.58249  -1457806.99948  20235706.732    20235712.122
  21206308.641    -4472961.37049  -3465991.37147  21206308.638    21206313.617
 03  3 20 18 58  0.0000000  0  7G 6G24G10G 4G 9G 5G30
  23324796.353    -4232263.52949  -3281810.40946  23324795.960    23324802.461
  21110511.701      448169.26449    342992.40347  21110511.247    21110517.466
  22313128.683    -5021194.17549  -3897415.69446  22313127.583    22313135.440
  23412068.124     2404040.39149   1854718.76746  23412068.002    23412074.778
  23848234.895     2348020.97449   1816860.50446  23848234.510    23848242.235
  20235803.657    -1873471.61249  -1457413.53248  20235802.835    20235808.234
  21193335.184    -4541137.47549  -3519115.59247  21193335.189    21193340.137
 03  3 20 18 58 30.0000000  0  7G 6G24G10G 4G 9G 5G30
  23311962.119    -4299707.95449  -3334364.48546  23311961.705    23311968.261
  21121111.714      503872.59549    386397.56347  21121111.259    21121117.459
  22297430.088    -5103690.66049  -3961698.59946  22297428.981    22297436.838
  23430905.234     2503029.67949   1931853.18446  23430905.162    23430911.942
  23866644.720     2444764.66649   1892245.08846  23866644.316    23866651.994
  20235998.456    -1872448.08149  -1456615.99248  20235997.650    20236003.046
  21180432.030    -4608944.15849  -3571951.95447  21180432.042    21180436.957
 03  3 20 18 59  0.0000000  0  7G 6G24G10G 4G 9G 5G30
  23299138.354    -4367097.29649  -3386875.64146  23299137.873    23299144.496
  21131777.551      559921.64649    430072.12147  21131777.105    21131783.279
  22281795.969    -5185848.21849  -4025717.38946  22281794.895    22281802.737
  23449762.769     2602126.31949   2009071.26446  23449762.667    23449769.470
  23885063.753     2541556.95749   1967667.55446  23885063.334    23885071.087
  20236291.997    -1870905.63449  -1455414.10048  20236291.197    20236296.596
  21167599.542    -4676379.34249  -3624498.83847  21167599.546    21167604.436
 03  3 20 18 59 30.0000000  0  7G 6G24G10G 4G 9G 5G30
  23286325.168    -4434431.11149  -3439343.51946  23286324.692    23286331.270
  21142508.811      616314.60749    474014.65547  21142508.366    21142514.528
  22266227.087    -5267663.01249  -4089469.09446  22266226.002    22266233.845
  23468640.372     2701328.14249   2086371.30146  23468640.238    23468646.996
  23903491.501     2638394.94849   2043125.62146  23903491.147    23903498.843
  20236684.490    -1868843.20749  -1453807.03348  20236683.705    20236689.113
  21154838.284    -4743440.31649  -3676754.13547  21154838.300    21154843.163
 03  3 20 19  0  0.0000000  0  7G 6G24G10G 4G 9G 5G30
  23273522.536    -4501709.45149  -3491768.17246  23273522.056    23273528.631
  21153305.161      673049.64449    518223.74347  21153304.722    21153310.879
  22250724.040    -5349132.06449  -4152951.39746  22250722.955    22250730.750
  23487537.542     2800633.12449   2163751.71946  23487537.446    23487544.236
  23921927.475     2735275.81849   2118617.09846  23921927.124    23921934.781
  20237175.967    -1866260.53249  -1451794.57748  20237175.185    20237180.592
  21142148.644    -4810124.85749  -3728716.10247  21142148.645    21142153.541
 03  3 20 19  0 30.0000000  0  7G 6G24G10G 4G 9G 5G30
  23260730.475    -4568932.16849  -3544149.47546  23260730.012    23260736.556
  21164166.082      730124.01749    562697.24847  21164165.643    21164171.804
  22235287.320    -5430252.41349  -4216161.97146  22235286.211    22235294.023
  23506453.939     2900038.85349   2241210.65146  23506453.751    23506460.611
  23940371.050     2832196.74249   2194139.79545  23940370.696    23940378.282
  20237766.598    -1863156.90649  -1449376.18748  20237765.796    20237771.222
  21129531.031    -4876430.56249  -3780382.87047  21129531.060    21129535.983
 03  3 20 19  1  0.0000000  0  7G 6G24G10G 4G 9G 5G30
  23247948.996    -4636099.08849  -3596487.31846  23247948.540    23247955.114
  21175091.161      787535.52149    607433.45547  21175090.720    21175096.897
  22219917.538    -5511020.88049  -4279098.36646  22219916.432    22219924.263
  23525389.075     2999543.14649   2318746.39346  23525388.883    23525395.653
  23958821.678     2929154.96349   2269691.55145  23958821.263    23958828.835
  20238456.485    -1859531.57049  -1446551.26948  20238455.699    20238461.117
  21116986.049    -4942354.95249  -3831752.51247  21116986.075    21116991.012
 03  3 20 19  1 30.0000000  0  7G 6G24G10G 4G 9G 5G30
  23235178.232    -4703210.07549  -3648781.58946  23235177.761    23235184.337
  21186079.998      845282.08749    652430.74547  21186079.562    21186085.754
  22204615.416    -5591433.96349  -4341757.84146  22204614.306    22204622.132
  23544342.511     3099143.63249   2396357.06246  23544342.301    23544349.043
  23977278.831     3026147.36349   2345269.95845  23977278.435    23977286.005
  20239245.765    -1855384.08649  -1443319.48648  20239244.982    20239250.400
  21104514.052    -5007895.64849  -3882823.17447  21104514.069    21104518.995
 03  3 20 19  2  0.0000000  0  7G 6G24G10G 4G 9G 5G30
  23222418.064    -4770265.13149  -3701032.26246  23222417.595    23222424.178
  21197132.194      903361.77249    697687.61047  21197131.761    21197137.969
  22189381.515    -5671488.45849  -4404137.89046  22189380.432    22189388.222
  23563313.826     3198838.42549   2474041.21946  23563313.627    23563320.443
  23995741.960     3123171.13849   2420872.79045  23995741.573    23995749.046
  20240134.477    -1850713.95749  -1439680.45148  20240133.697    20240139.108
  21092115.498    -5073050.43049  -3933593.12747  21092115.522    21092120.438
 03  3 20 19  2 30.0000000  0  7G 6G24G10G 4G 9G 5G30
  23209668.578    -4837264.21449  -3753239.33246  23209668.141    23209674.613
  21208247.293      961771.75249    743201.84547  21208246.846    21208253.086
  22174216.438    -5751181.32649  -4466236.14346  22174215.350    22174223.147
  23582302.703     3298625.11949   2551796.99945  23582302.571    23582309.434
  24014210.518     3220223.47049   2496497.85445  24014210.068    24014217.611
  20241122.732    -1845520.65749  -1435633.75048  20241121.963    20241127.374
  21079790.886    -5137816.82849  -3984060.44447  21079790.904    21079795.815
 03  3 20 19  3  0.0000000  0  7G 6G24G10G 4G 9G 5G30
  23196929.769    -4904207.00549  -3805402.52746  23196929.320    23196935.807
  21219424.802     1020509.92149    788971.81347  21219424.358    21219430.617
  22159120.795    -5830509.38449  -4528050.13947  22159119.711    22159127.457
  23601308.601     3398501.54149   2629622.68045  23601308.514    23601315.307
  24032683.983     3317301.45049   2572142.92945  24032683.449    24032690.996
  20242210.705    -1839803.62749  -1431178.94448  20242209.940    20242215.355
  21067540.573    -5202192.60649  -4034223.37947  21067540.575    21067545.496
 03  3 20 19  3 30.0000000  0  7G 6G24G10G 4G 9G 5G30
  23184201.648    -4971093.56849  -3857521.90346  23184201.192    23184207.731
  21230664.321     1079573.86749    834995.63947  21230663.887    21230670.159
  22144095.133    -5909469.61149  -4589577.51747  22144094.023    22144101.780
  23620331.152     3498465.47049   2707516.58745  23620331.125    23620337.869
  24051161.729     3414402.27949   2647805.79745  24051161.187    24051168.801
  20243398.390    -1833562.43849  -1426315.70348  20243397.617    20243403.040
  21055365.037    -5266175.40049  -4084080.09647  21055365.044    21055369.965
 03  3 20 19  4  0.0000000  0  7G 6G24G10G 4G 9G 5G30
  23171484.271    -5037923.60049  -3909597.23546  23171483.826    23171490.418
  21241965.487     1138961.64649    881271.79647  21241965.054    21241971.351
  22129140.059    -5988058.75949  -4650815.73847  22129138.966    22129146.695
  23639370.016     3598514.88649   2785477.08745  23639369.994    23639376.725
  24069643.267     3511523.12649   2723484.26545  24069642.803    24069650.496
  20244685.932    -1826796.39849  -1421043.48648  20244685.166    20244690.599
  21043264.765    -5329762.76949  -4133628.68647  21043264.761    21043269.718
 03  3 20 19  4 30.0000000  0  7G 6G24G10G 4G 9G 5G30
  23158777.734    -5104697.05349  -3961628.47946  23158777.293    23158783.891
  21253327.819     1198670.97949    927798.51747  21253327.388    21253333.697
  22114256.196    -6066273.70949  -4711762.37647  22114255.120    22114262.835
  23658424.724     3698647.55549   2863502.46745  23658424.634    23658431.398
  24088128.091     3608661.00849   2799175.99745  24088127.636    24088135.394
  20246073.437    -1819505.08549  -1415361.96948  20246072.666    20246078.113
  21031240.172    -5392952.28449  -4182867.26047  21031240.186    21031245.147
 03  3 20 19  5  0.0000000  0  7G 6G24G10G 4G 9G 5G30
  23146081.964    -5171413.70449  -4013615.46946  23146081.521    23146088.073
  21264750.878     1258699.39149    974573.87347  21264750.450    21264756.759
  22099444.188    -6144111.05149  -4772414.78047  22099443.124    22099450.790
  23677494.850     3798861.25949   2941590.97745  23677494.772    23677501.560
  24106615.510     3705813.11549   2874878.82245  24106615.057    24106622.961
  20247561.024    -1811687.95149  -1409270.71748  20247560.256    20247565.694
  21019291.760    -5455741.69749  -4231794.06847  21019291.777    21019296.753
 03  3 20 19  5 30.0000000  0  7G 6G24G10G 4G 9G 5G30
  23133397.124    -5238073.16049  -4065557.89046  23133396.653    23133403.220
  21276234.271     1319044.87949   1021596.29747  21276233.830    21276240.165
  22084704.657    -6221567.50149  -4832770.39747  22084703.578    22084711.248
  23696579.996     3899154.20049   3019741.21645  23696579.898    23696586.759
  24125105.199     3802977.11149   2950590.90645  24125104.857    24125112.735
  20249148.793    -1803344.32249  -1402769.20948  20249148.026    20249153.456
  21007419.954    -5518128.37849  -4280407.05747  21007419.966    21007424.960
 03  3 20 19  6  0.0000000  0  7G 6G24G10G 4G 9G 5G30
  23120723.132    -5304675.50649  -4117455.80746  23120722.677    23120729.228
  21287777.591     1379705.24849   1068864.07947  21287777.158    21287783.483
  22070038.180    -6298640.18149  -4892826.97247  22070037.101    22070044.764
  23715679.804     3999524.04349   3097951.37645  23715679.737    23715686.630
  24143596.622     3900149.80149   3026309.76045  24143596.276    24143604.257
  20250836.784    -1794474.10149  -1395857.37048  20250836.008    20250841.445
  20995625.173    -5580110.33149  -4328704.67547  20995625.211    20995630.173
 03  3 20 19  6 30.0000000  0  7G 6G24G10G 4G 9G 5G30
  23108060.010    -5371220.69749  -4169309.19146  23108059.583    23108066.019
  21299380.396     1440678.16849   1116375.41247  21299379.946    21299386.274
  22055445.237    -6375326.08749  -4952582.14647  22055444.194    22055451.863
  23734793.804     4099968.35449   3176219.57545  23734793.774    23734800.577
  24162089.148     3997328.17449   3102033.04145  24162088.774    24162096.857
  20252625.020    -1785077.02049  -1388534.98848  20252624.240    20252629.687
  20983907.895    -5641685.21049  -4376685.09547  20983907.913    20983912.878
 03  3 20 19  7  0.0000000  0  7G 6G24G10G 4G 9G 5G30
  23095407.799    -5437708.47849  -4221117.83346  23095407.362    23095413.814
  21311042.193     1501961.26649   1164128.43947  21311041.753    21311048.107
  22040926.570    -6451622.01849  -5012033.45247  22040925.535    22040933.194
  23753921.636     4200485.19449   3254544.31845  23753921.592    23753928.440
  24180582.232     4094509.40249   3177758.54345  24180581.881    24180589.946
  20254513.560    -1775152.70049  -1380801.77048  20254512.803    20254518.253
  20972268.496    -5702850.68049  -4424346.49447  20972268.521    20972273.460
 03  3 20 19  7 30.0000000  0  7G 6G24G10G 4G 9G 5G30
  23082766.563    -5504138.81349  -4272881.72046  23082766.103    23082772.488
  21322762.581     1563552.14849   1212121.30047  21322762.139    21322768.525
  22026482.655    -6527525.02049  -5071178.58847  22026481.614    22026489.276
  23773062.794     4301072.35449   3332923.82845  23773062.761    23773069.650
  24199075.392     4191690.61549   3253484.03545  24199074.989    24199083.052
  20256502.417    -1764701.19449  -1372657.75348  20256501.666    20256507.126
  20960707.401    -5763604.73649  -4471687.31047  20960707.434    20960712.375
 03  3 20 19  8  0.0000000  0  7G 6G24G10G 4G 9G 5G30
  23070136.258    -5570511.40749  -4324600.60446  23070135.847    23070142.216
  21334541.108     1625448.65049   1260352.30447  21334540.685    21334547.076
  22012114.080    -6603032.13449  -5130015.23147  22012113.031    22012120.677
  23792216.950     4401727.71849   3411356.49845  23792216.852    23792223.929
  24217567.999     4288869.15349   3329207.42045  24217567.586    24217575.643
  20258591.762    -1753721.72649  -1364102.33848  20258591.009    20258596.497
  20949225.050    -5823944.73149  -4518705.48647  20949225.103    20949230.072
 03  3 20 19  8 30.0000000  0  7G 6G24G10G 4G 9G 5G30
  23057517.045    -5636825.86249  -4376274.19446  23057516.643    23057522.986
  21346377.404     1687648.62849   1308819.78947  21346376.991    21346383.382
  21997821.534    -6678139.87049  -5188540.68347  21997820.496    21997828.112
  23811383.642     4502449.53049   3489840.90045  23811383.601    23811390.758
  24236059.578     4386042.35549   3404926.65745  24236059.145    24236067.274
  20260781.649    -1742213.85749  -1355135.18248  20260780.883    20260786.383
  20937821.965    -5883868.32749  -4565399.19447  20937822.007    20937826.980
 03  3 20 19  9  0.0000000  0  7G 6G24G10G 4G 9G 5G30
  23044908.857    -5703082.14849  -4427902.45146  23044908.452    23044914.799
  21358271.021     1750149.71849   1357521.90647  21358270.597    21358276.984
  21983605.510    -6752845.24149  -5246752.59847  21983604.458    21983612.059
  23830562.663     4603235.54049   3568375.37845  23830562.684    23830569.871
  24254549.545     4483207.26249   3480639.42445  24254549.135    24254557.277
  20263072.099    -1730177.43849  -1345756.16848  20263071.348    20263076.851
  20926498.555    -5943373.39449  -4611766.77847  20926498.577    20926503.527
 03  3 20 19  9 30.0000000  0  7G 6G24G10G 4G 9G 5G30
  23032311.772    -5769280.04449  -4479485.21846  23032311.413    23032317.754
  21370221.543     1812950.02549   1406457.17747  21370221.114    21370227.518
  21969466.663    -6827145.02349  -5304648.47847  21969465.646    21969473.208
  23849753.526     4704083.83549   3646958.35545  23849753.480    23849760.830
  24273037.388     4580361.15649   3556343.60645  24273037.016    24273045.214
  20265463.219    -1717612.14649  -1335965.04248  20265462.472    20265467.975
  20915255.214    -6002457.49349  -4657806.34047  20915255.240    20915260.179
 03  3 20 19 10  0.0000000  0  7G 6G24G10G 4G 9G 5G30
  23019725.629    -5835420.87649  -4531023.51846  23019725.226    23019731.565
  21382228.256     1876045.54349   1455622.48747  21382227.832    21382234.229
  21955405.272    -6901037.98249  -5362227.35847  21955404.230    21955411.786
  23868955.492     4804990.65549   3725586.94745  23868955.446    23868962.825
  24291522.420     4677499.74949   3632035.86745  24291522.028    24291530.249
  20267954.748    -1704519.26749  -1325762.80948  20267953.987    20267959.488
  20904092.163    -6061119.76649  -4703517.19947  20904092.188    20904097.136
 03  3 20 19 10 30.0000000  0  7G 6G24G10G 4G 9G 5G30
  23007150.996    -5901501.06049  -4582514.55246  23007150.581    23007156.954
  21394291.361     1939437.42749   1505018.73047  21394290.940    21394297.364
  21941422.537    -6974517.58349  -5419484.14747  21941421.470    21941429.014
  23888168.919     4905957.39449   3804262.25745  23888168.895    23888176.254
  24310004.643     4774623.68249   3707716.68945  24310004.284    24310012.489
  20270547.329    -1690895.30449  -1315146.74448  20270546.573    20270552.080
  20893010.423    -6119354.74849  -4748895.10847  20893010.460    20893015.402
 03  3 20 19 11  0.0000000  0  7G 6G24G10G 4G 9G 5G30
  22994587.482    -5967522.65749  -4633959.93646  22994587.079    22994593.445
  21406410.056     2003121.36349   1554642.54547  21406409.641    21406416.071
  21927518.615    -7047583.05649  -5476418.22447  21927517.556    21927525.046
  23907392.983     5006979.96149   3882981.02545  23907392.866    23907400.301
  24328483.120     4871727.97949   3783382.21445  24328482.771    24328490.966
  20273240.633    -1676742.02649  -1304118.22348  20273239.878    20273245.376
  20882009.997    -6177162.38749  -4793940.02047  20882010.035    20882014.960
 03  3 20 19 11 30.0000000  0  7G 6G24G10G 4G 9G 5G30
  22982035.228    -6033485.25549  -4685359.33946  22982034.789    22982041.155
  21418583.787     2067094.66549   1604491.83847  21418583.383    21418589.824
  21913694.082    -7120231.14649  -5533027.08347  21913693.036    21913700.504
  23926627.242     5108056.23549   3961741.66245  23926627.120    23926634.643
  24346957.354     4968810.13449   3859030.47045  24346957.032    24346965.235
  20276034.699    -1662059.28649  -1292677.14148  20276033.934    20276039.446
  20871091.356    -6234540.30749  -4838650.09047  20871091.404    20871096.335
 03  3 20 19 12  0.0000000  0  7G 6G24G10G 4G 9G 5G30
  22969494.289    -6099388.37849  -4736712.40146  22969493.870    22969500.220
  21430812.230     2131355.32449   1654565.05147  21430811.827    21430818.279
  21899949.645    -7192458.58849  -5589308.16547  21899948.591    21899956.062
  23945871.404     5209184.50249   4040542.82245  23945871.358    23945878.887
  24365426.910     5065867.47149   3934659.40945  24365426.566    24365434.744
  20278929.542    -1646846.84649  -1280823.30448  20278928.780    20278934.292
  20860254.979    -6291485.87949  -4883023.26147  20860255.026    20860259.968
 03  3 20 19 12 30.0000000  0  7G 6G24G10G 4G 9G 5G30
  22956964.653    -6165231.96449  -4788019.07846  22956964.304    22956970.587
  21443094.916     2195901.29149   1704860.58147  21443094.525    21443100.980
  21886285.712    -7264262.75649  -5645259.41147  21886284.700    21886292.143
  23965124.970     5310362.50449   4119382.70545  23965124.910    23965132.553
  24383891.105     5162896.95749   4010266.64245  24383890.824    24383898.995
  20281925.198    -1631104.60549  -1268556.63648  20281924.446    20281929.956
  20849501.246    -6347997.32049  -4927058.15347  20849501.281    20849506.223
 03  3 20 19 13  0.0000000  0  7G 6G24G10G 4G 9G 5G30
  22944446.368    -6231016.08749  -4839279.41746  22944446.010    22944452.202
  21455431.520     2260730.40249   1755376.74347  21455431.124    21455437.576
  21872702.944    -7335640.75449  -5700878.59647  21872701.904    21872709.343
  23984387.689     5411588.20749   4198259.78445  23984387.644    23984395.212
  24402349.580     5259896.10549   4085850.23045  24402349.245    24402357.308
  20285021.683    -1614832.49849  -1255877.08548  20285020.932    20285026.438
  20838830.524    -6404072.28049  -4970752.92547  20838830.568    20838835.514
 03  3 20 19 13 30.0000000  0  7G 6G24G10G 4G 9G 5G30
  22931939.505    -6296740.26949  -4890493.05246  22931939.099    22931945.315
  21467821.557     2325840.31749   1806111.71147  21467821.177    21467827.626
  21859201.810    -7406589.56349  -5756163.33847  21859200.760    21859208.183
  24003659.109     5512859.47449   4277172.35845  24003659.053    24003666.522
  24420801.795     5356862.13149   4161408.00145  24420801.420    24420809.540
  20288219.096    -1598030.19149  -1242784.39348  20288218.339    20288223.850
  20828243.300    -6459708.58249  -5014105.88847  20828243.347    20828248.273
 03  3 20 19 14  0.0000000  0  7G 6G24G10G 4G 9G 5G30
  22919444.028    -6362404.16849  -4941659.70746  22919443.639    22919449.901
  21480264.583     2391228.78249   1857063.72947  21480264.193    21480270.674
  21845783.010    -7477105.82849  -5811111.01847  21845781.940    21845789.360
  24022938.887     5614174.84249   4356119.31545  24022938.866    24022946.301
  24439247.087     5453792.42349   4236937.93445  24439246.721    24439254.853
  20291517.412    -1580697.43349  -1229278.36348  20291516.655    20291522.157
  20817740.041    -6514903.68949  -5057115.06247  20817740.068    20817744.978
 03  3 20 19 14 30.0000000  0  7G 6G24G10G 4G 9G 5G30
  22906960.137    -6428007.26849  -4992778.98946  22906959.752    22906965.994
  21492760.220     2456893.70749   1908231.17447  21492759.842    21492766.309
  21832447.051    -7547186.46949  -5865719.24747  21832445.992    21832453.406
  24042226.705     5715532.48449   4435099.20145  24042226.623    24042234.102
  24457685.120     5550684.29049   4312437.90245  24457684.718    24457692.858
  20294916.728    -1562834.03749  -1215358.85148  20294915.972    20294921.481
  20807321.164    -6569655.34249  -5099778.68947  20807321.211    20807326.116
 03  3 20 19 15  0.0000000  0  7G 6G24G10G 4G 9G 5G30
  22894487.808    -6493549.51649  -5043850.85746  22894487.406    22894493.707
  21505308.057     2522832.78849   1959612.24247  21505307.675    21505314.155
  21819194.503    -7616828.93249  -5919986.03647  21819193.457    21819200.848
  24061522.109     5816930.11349   4514110.24745  24061522.104    24061529.576
  24476115.248     5647534.91749   4387905.72245  24476114.689    24476123.009
  20298416.932    -1544440.32549  -1201026.10448  20298416.169    20298421.695
  20796987.045    -6623961.53049  -5142095.20047  20796987.085    20796991.968
 03  3 20 19 15 30.0000000  0  7G 6G24G10G 4G 9G 5G30
  22882027.174    -6559030.54349  -5094875.02146  22882026.773    22882033.042
  21517907.611     2589043.76849   2011205.18147  21517907.223    21517913.705
  21806025.930    -7686030.02349  -5973908.89647  21806024.883    21806032.276
  24080824.790     5918365.95449   4593151.09445  24080824.951    24080832.348
  24494537.091     5744341.91249   4463339.56245  24494536.525    24494544.977
  20302018.139    -1525516.00449  -1186279.89848  20302017.386    20302022.892
  20786738.126    -6677819.98249  -5184062.82447  20786738.171    20786743.060
 03  3 20 19 16  0.0000000  0  7G 6G24G10G 4G 9G 5G30
  22869578.209    -6624450.38849  -5145851.51046  22869577.811    22869584.062
  21530558.512     2655524.40249   2063008.23947  21530558.115    21530564.594
  21792941.784    -7754787.39149  -6027486.01147  21792940.751    21792948.129
  24100134.358     6019837.84049   4672220.06245  24100134.613    24100141.839
  24512950.145     5841102.15649   4538736.98345  24512949.537    24512958.164
  20305720.228    -1506061.36349  -1171120.46248  20305719.483    20305724.992
  20776574.831    -6731228.63549  -5225679.95447  20776574.857    20776579.724
 03  3 20 19 16 30.0000000  0  7G 6G24G10G 4G 9G 5G30
  22857140.873    -6689808.76249  -5196780.09446  22857140.501    22857146.822
  21543260.277     2722272.35449   2115019.59547  21543259.881    21543266.368
  21779942.706    -7823098.01549  -6080715.01747  21779941.680    21779949.005
  24119450.380     6121343.93649   4751315.67545  24119450.542    24119457.831
  24531353.760     5937812.83849   4614095.74345  24531353.167    24531361.571
  20309523.247    -1486076.45149  -1155547.82048  20309522.490    20309528.025
  20766497.480    -6784185.43449  -5266944.99247  20766497.533    20766502.390
 03  3 20 19 17  0.0000000  0  7G 6G24G10G 4G 9G 5G30
  22844715.385    -6755105.12349  -5247660.36646  22844715.033    22844721.378
  21556012.438     2789285.34349   2167237.47547  21556012.033    21556018.561
  21767029.200    -7890958.78849  -6133593.49447  21767028.160    21767035.449
  24138772.602     6222882.29849   4830436.48245  24138772.696    24138779.844
  24549747.453     6034471.55349   4689414.00745  24549746.843    24549755.328
  20313427.206    -1465561.03349  -1139561.79748  20313426.467    20313432.007
  20756506.568    -6836687.94349  -5307856.03247  20756506.620    20756511.482
 03  3 20 19 17 30.0000000  0  7G 6G24G10G 4G 9G 5G30
  22832301.710    -6820339.37949  -5298492.24546  22832301.346    22832307.731
  21568814.619     2856561.14349   2219660.13847  21568814.211    21568820.741
  21754201.798    -7958367.03749  -6186119.35647  21754200.740    21754208.031
  24158100.569     6324451.13849   4909580.95145  24158100.459    24158107.826
  24568130.738     6131075.53649   4764689.62145  24568130.227    24568138.702
  20317432.057    -1444515.50749  -1123162.70748  20317431.325    20317436.878
  20746602.470    -6888734.28949  -5348411.62647  20746602.526    20746607.411
 03  3 20 19 18  0.0000000  0  7G 6G24G10G 4G 9G 5G30
  22819899.981    -6885511.12749  -5349275.41046  22819899.622    22819905.989
  21581666.383     2924097.54049   2272285.86847  21581665.984    21581672.528
  21741461.143    -8025319.64349  -6238290.17347  21741460.080    21741467.344
  24177433.843     6426048.25949   4988747.32345  24177433.762    24177441.318
  24586503.076     6227622.21149   4839920.57745  24586502.568    24586511.219
  20321537.789    -1422939.74649  -1106350.44648  20321537.063    20321542.620
  20736785.629    -6940322.23849  -5388610.02648  20736785.682    20736790.584
 03  3 20 19 18 30.0000000  0  7G 6G24G10G 4G 9G 5G30
  22807510.163    -6950620.10249  -5400009.66546  22807509.799    22807516.113
  21594567.337     2991892.26449   2325112.88747  21594566.942    21594573.498
  21728807.635    -8091813.88449  -6290103.81647  21728806.571    21728813.850
  24196772.172     6527672.00349   5067934.49145  24196772.183    24196780.027
  24604864.067     6324108.94449   4915104.80045  24604863.557    24604872.239
  20325744.424    -1400833.88149  -1089125.11948  20325743.700    20325749.239
  20727056.435    -6991449.53849  -5428449.48148  20727056.487    20727061.411
 03  3 20 19 19  0.0000000  0  7G 6G24G10G 4G 9G 5G30
  22795132.304    -7015666.04549  -5450694.80446  22795131.959    22795138.224
  21607516.994     3059943.01849   2378139.41247  21607516.598    21607523.170
  21716241.903    -8157847.09349  -6341558.22247  21716240.829    21716248.111
  24216115.371     6629320.43549   5147140.94345  24216115.441    24216123.317
  24623213.127     6420532.91049   4990240.12945  24623212.584    24623221.423
  20330051.924    -1378198.05149  -1071486.82948  20330051.188    20330056.730
  20717415.243    -7042114.24049  -5467928.46648  20717415.302    20717420.223
 03  3 20 19 19 30.0000000  0  7G 6G24G10G 4G 9G 5G30
  22782766.511    -7080648.83149  -5501330.73146  22782766.149    22782772.423
  21620514.966     3128247.67349   2431363.78047  21620514.579    21620521.177
  21703764.392    -8223416.66749  -6392651.33747  21703763.337    21703770.613
  24235462.866     6730991.60149   5226365.17845  24235462.897    24235470.721
  24641549.685     6516891.46349   5065324.45745  24641549.269    24641558.137
  20334460.180    -1355032.59049  -1053435.83848  20334459.447    20334464.989
  20707862.473    -7092314.35049  -5507045.43348  20707862.535    20707867.465
 03  3 20 19 20  0.0000000  0  7G 6G24G10G 4G 9G 5G30
  22770412.733    -7145568.10149  -5551917.16946  22770412.381    22770418.673
  21633560.738     3196803.59749   2484783.94347  21633560.348    21633566.956
  21691375.649    -8288519.63249  -6443380.86747  21691374.594    21691381.878
  24254814.323     6832683.62849   5305605.67545  24254814.352    24254822.185
  24659873.303     6613181.90049   5140355.71245  24659872.925    24659881.831
  20338969.221    -1331337.54949  -1034972.18848  20338968.495    20338974.041
  20698398.497    -7142047.83549  -5545798.79848  20698398.577    20698403.502
 03  3 20 19 20 30.0000000  0  7G 6G24G10G 4G 9G 5G30
  22758071.116    -7210423.51949  -5602453.84146  22758070.775    22758077.111
  21646654.018     3265609.13249   2538398.60347  21646653.643    21646660.243
  21679076.315    -8353152.99049  -6493744.46247  21679075.278    21679082.526
  24274169.403     6934394.66449   5384860.92545  24274169.384    24274177.219
  24678183.570     6709401.82149   5215332.00345  24678183.228    24678192.137
  20343579.046    -1307112.96349  -1016095.91248  20343578.324    20343583.867
  20689023.748    -7191312.48349  -5584186.84048  20689023.827    20689028.765
 03  3 20 19 21  0.0000000  0  7G 6G24G10G 4G 9G 5G30
  22745741.707    -7275214.73949  -5652940.49146  22745741.361    22745747.713
  21659794.355     3334661.74249   2592205.79147  21659793.977    21659800.567
  21666866.775    -8417314.36649  -6543740.28947  21666865.731    21666872.934
  24293527.730     7036122.89249   5464129.57445  24293527.622    24293535.520
  24696479.878     6805548.45549   5290251.16245  24696479.532    24696488.468
  20348289.543    -1282359.26449   -996807.33948  20348288.813    20348294.351
  20679738.602    -7240106.15249  -5622207.88348  20679738.685    20679743.588
 03  3 20 19 21 30.0000000  0  7G 6G24G10G 4G 9G 5G30
  22733424.669    -7339941.33349  -5703376.78246  22733424.328    22733430.655
  21672981.289     3403959.51849   2646204.02047  21672980.897    21672987.510
  21654747.644    -8481000.70649  -6593365.96447  21654746.631    21654753.774
  24312888.938     7137866.58249   5543410.35745  24312888.878    24312896.688
  24714761.759     6901619.31249   5365111.28745  24714761.467    24714770.470
  20353100.685    -1257076.41349   -977106.43848  20353099.962    20353105.539
  20670543.520    -7288426.69749  -5659860.25948  20670543.580    20670548.479
 03  3 20 19 22  0.0000000  0  7G 6G24G10G 4G 9G 5G30
  22721119.934    -7404603.00549  -5753762.48046  22721119.556    22721125.951
  21686214.467     3473500.08649   2700391.43547  21686214.086    21686220.700
  21642719.385    -8544209.38549  -6642619.43747  21642718.378    21642725.505
  24332252.704     7239623.73649   5622701.58445  24332252.750    24332260.351
  24733028.633     6997611.58749   5439910.14745  24733028.381    24733037.484
  20358012.540    -1231264.65849   -956993.41048  20358011.812    20358017.394
  20661438.807    -7336272.29149  -5697142.54548  20661438.884    20661443.782
 03  3 20 19 22 30.0000000  0  7G 6G24G10G 4G 9G 5G30
  22708827.619    -7469199.38049  -5804097.29146  22708827.266    22708833.679
  21699493.467     3543281.56349   2754766.57347  21699493.103    21699499.720
  21630782.601    -8606937.36949  -6691498.34147  21630781.592    21630788.725
  24351618.777     7341392.89349   5702002.12045  24351618.824    24351626.630
  24751280.124     7093522.89449   5514645.89345  24751279.865    24751289.135
  20363024.972    -1204924.19649   -936468.40148  20363024.252    20363029.818
  20652424.965    -7383640.54249  -5734052.87448  20652425.044    20652429.904
 03  3 20 19 23  0.0000000  0  7G 6G24G10G 4G 9G 5G30
  22696547.827    -7533730.20649  -5854381.04146  22696547.477    22696553.843
  21712817.811     3613301.47749   2809327.50447  21712817.439    21712824.095
  21618937.729    -8669182.36349  -6740000.88547  21618936.722    21618943.858
  24370986.746     7443172.06749   5781310.46645  24370986.866    24370994.667
  24769515.708     7189350.44349   5589316.37745  24769515.521    24769524.884
  20368137.918    -1178055.62649   -915531.88148  20368137.192    20368142.752
  20643502.214    -7430529.84249  -5770589.99048  20643502.291    20643507.172
 03  3 20 19 23 30.0000000  0  7G 6G24G10G 4G 9G 5G30
  22684280.604    -7598195.12949  -5904613.42946  22684280.260    22684286.618
  21726187.101     3683557.39849   2864072.33247  21726186.734    21726193.408
  21607185.225    -8730941.85349  -6788125.11047  21607184.228    21607191.367
  24390356.327     7544959.38949   5860625.12645  24390356.367    24390364.300
  24787734.859     7285091.64349   5663919.56245  24787734.698    24787744.097
  20373351.331    -1150659.05049   -894183.92648  20373350.603    20373356.157
  20634671.014    -7476938.17849  -5806752.33248  20634671.094    20634675.976
 03  3 20 19 24  0.0000000  0  8G 6G24G10G 4G 9G 5G30G17
  22672025.408    -7662596.47249  -5954796.27846  22672025.073    22672031.424
  21739600.328     3754044.33849   2918997.17547  21739599.968    21739606.690
  21595525.165    -8792215.53549  -6835870.78247  21595524.170    21595531.320
  24409726.618     7646750.51549   5939942.80245  24409726.637    24409734.652
  24805936.627     7380741.36349   5738451.47045  24805936.576    24805945.811
  20378664.649    -1122737.48049   -872426.88248  20378663.915    20378669.480
  20625931.218    -7522866.07549  -5842540.30048  20625931.305    20625936.205
  25041941.119    -3828129.33249  -2968532.72845  25041940.305    25041950.330
 03  3 20 19 24 30.0000000  0  8G 6G24G10G 4G 9G 5G30G17
  22659782.671    -7726932.67249  -6004928.36946  22659782.310    22659788.644
  21753057.450     3824761.68549   2974101.55347  21753057.062    21753063.799
  21583958.304    -8852999.65949  -6883234.98247  21583957.327    21583964.437
  24429097.485     7748544.64849   6019262.87845  24429097.408    24429105.356
  24824120.715     7476298.03549   5812910.85745  24824120.588    24824129.921
  20384077.998    -1094290.14149   -850260.15048  20384077.267    20384082.854
  20617283.511    -7568310.24849  -5877951.34648  20617283.592    20617288.491
  25024176.559    -3921482.20949  -3041275.08945  25024175.864    25024185.675
 03  3 20 19 25  0.0000000  0  8G 6G24G10G 4G 9G 5G30G17
  22647552.995    -7791199.79549  -6055006.63146  22647552.666    22647559.007
  21766558.616     3895710.63649   3029386.40647  21766558.245    21766564.986
  21572485.807    -8913288.05449  -6930212.89547  21572484.820    21572491.895
  24448469.227     7850343.64849   6098586.74945  24448469.258    24448477.030
  24842287.233     7571762.63149   5887298.46845  24842287.034    24842296.629
  20389591.999    -1065313.99149   -827681.36148  20389591.290    20389596.879
  20608728.803    -7613265.46249  -5912981.38348  20608728.894    20608733.795
  25006435.120    -4014713.53749  -3113922.74545  25006434.286    25006444.090
 03  3 20 19 25 30.0000000  0  8G 6G24G10G 4G 9G 5G30G17
  22635336.426    -7855398.33049  -6105031.44546  22635336.103    22635342.384
  21780103.225     3966888.07149   3084849.29847  21780102.859    21780109.636
  21561107.879    -8973079.14549  -6976803.30447  21561106.906    21561113.953
  24467841.408     7952145.00749   6177912.34445  24467841.446    24467849.421
  24860435.726     7667132.08649   5961611.95545  24860435.349    24860445.168
  20395206.452    -1035809.94949   -804691.22748  20395205.743    20395211.352
  20600267.419    -7657730.38649  -5947629.37548  20600267.502    20600272.420
  24988716.862    -4107822.90549  -3186475.36345  24988716.052    24988725.801
 03  3 20 19 26  0.0000000  0  8G 6G24G10G 4G 9G 5G30G17
  22623132.855    -7919528.64549  -6155003.12246  22623132.511    22623138.789
  21793690.870     4038291.34249   3140488.15847  21793690.512    21793697.256
  21549825.010    -9032370.95849  -7023004.67647  21549824.017    21549831.092
  24487213.574     8053946.40549   6257238.04245  24487213.675    24487221.480
  24878565.423     7762402.96949   6035848.59145  24878565.027    24878574.863
  20400921.146    -1005779.12749   -781290.61748  20400920.437    20400926.052
  20591899.579    -7701703.74849  -5981894.33348  20591899.664    20591904.558
  24971021.852    -4200810.05049  -3258932.77245  24971021.072    24971030.894
 03  3 20 19 26 30.0000000  0  8G 6G24G10G 4G 9G 5G30G17
  22610942.361    -7983590.13949  -6204921.16046  22610942.040    22610948.250
  21807321.046     4109918.17049   3196301.22647  21807320.686    21807327.437
  21538637.663    -9091160.61649  -7068814.75347  21538636.672    21538643.730
  24506585.412     8155746.20749   6336562.44345  24506585.603    24506593.324
  24896675.931     7857572.96749   6110006.62345  24896675.550    24896685.487
  20406736.032     -975221.82349   -757479.75848  20406735.311    20406740.968
  20583625.664    -7745183.55849  -6015774.70348  20583625.752    20583630.630
  24953350.398    -4293673.57749  -3331293.84345  24953349.536    24953359.340
 03  3 20 19 27  0.0000000  0  8G 6G24G10G 4G 9G 5G30G17
  22598764.874    -8047583.20749  -6254785.87646  22598764.561    22598770.791
  21820993.276     4181766.02949   3252286.52147  21820992.931    21820999.687
  21527546.219    -9149446.43049  -7114232.22347  21527545.241    21527552.282
  24525956.537     8257541.98649   6415883.76145  24525956.764    24525964.536
  24914766.679     7952638.74849   6184083.44345  24914766.206    24914776.147
  20412650.855     -944139.32349   -733259.65348  20412650.156    20412655.816
  20575445.937    -7788168.50249  -6049269.46148  20575446.025    20575450.886
  24935702.591    -4386412.86849  -3403558.11045  24935701.663    24935711.591
 03  3 20 19 27 30.0000000  0  8G 6G24G10G 4G 9G 5G30G17
  22586600.500    -8111507.12149  -6304596.71546  22586600.202    22586606.426
  21834707.152     4253832.64249   3308442.27147  21834706.807    21834713.595
  21516551.194    -9207225.49149  -7159254.82647  21516550.202    21516557.230
  24545326.677     8359332.26349   6495200.85245  24545326.945    24545334.524
  24932837.105     8047597.95749   6258077.18945  24932836.796    24932846.657
  20418665.539     -912531.94949   -708630.55848  20418664.833    20418670.526
  20567360.717    -7830656.63449  -6082377.09648  20567360.812    20567365.684
  24918078.735    -4479026.30149  -3475724.31545  24918077.894    24918087.696
 03  3 20 19 28  0.0000000  0  8G 6G24G10G 4G 9G 5G30G17
  22574449.356    -8175361.65149  -6354353.48246  22574449.074    22574455.307
  21848462.194     4326115.77449   3364766.73547  21848461.864    21848468.650
  21505653.044    -9264495.47749  -7203880.74847  21505652.067    21505659.077
  24564695.350     8461115.13249   6574512.08845  24564695.695    24564703.216
  24950886.777     8142447.92949   6331985.81045  24950886.390    24950896.377
  20424780.057     -880400.09649   -683592.77948  20424779.359    20424785.058
  20559370.440    -7872645.93649  -6115096.02948  20559370.534    20559375.431
  24900478.989    -4571512.84649  -3547791.62945  24900478.257    24900487.905
 03  3 20 19 28 30.0000000  0  8G 6G24G10G 4G 9G 5G30G17
  22562311.516    -8239146.55849  -6404055.99946  22562311.237    22562317.467
  21862258.020     4398613.08349   3421258.09547  21862257.684    21862264.489
  21494852.215    -9321254.00149  -7248108.13147  21494851.224    21494858.227
  24584062.242     8562888.86649   6653816.20745  24584062.736    24584070.258
  24968915.236     8237186.30949   6405807.48845  24968914.869    24968924.937
  20430994.246     -847744.56949   -658146.94148  20430993.547    20430999.248
  20551475.326    -7914134.98349  -6147425.15748  20551475.420    20551480.282
  24882903.529    -4663871.90349  -3619759.60845  24882902.896    24882912.383
 03  3 20 19 29  0.0000000  0  8G 6G24G10G 4G 9G 5G30G17
  22550187.011    -8302861.18849  -6453703.76646  22550186.731    22550192.972
  21876094.239     4471322.64649   3477914.84847  21876093.895    21876100.725
  21484149.193    -9377498.45249  -7291934.94647  21484148.214    21484155.227
  24603427.159     8664651.77349   6733111.91045  24603427.530    24603435.034
  24986922.036     8331810.68249   6479540.32445  24986921.643    24986931.706
  20437307.975     -814565.80449   -632293.38248  20437307.287    20437312.986
  20543675.868    -7955121.54649  -6179362.74148  20543675.949    20543680.827
  24865352.616    -4756102.14449  -3691627.21145  24865351.815    24865361.425
 03  3 20 19 29 30.0000000  0  8G 6G24G10G 4G 9G 5G30G17
  22538075.938    -8366505.25949  -6503296.53846  22538075.665    22538081.879
  21889970.432     4544242.25049   3534735.26747  21889970.069    21889976.907
  21473544.469    -9433226.52749  -7335359.39447  21473543.505    21473550.507
  24622789.758     8766402.15949   6812397.87745  24622789.978    24622797.477
  25004906.552     8426318.29649   6553182.15345  25004906.342    25004916.315
  20443721.180     -780864.32949   -606032.52448  20443720.487    20443726.189
  20535972.310    -7995603.88449  -6210907.42548  20535972.392    20535977.297
  24847826.461    -4848202.22449  -3763393.39845  24847825.878    24847835.313
 03  3 20 19 30  0.0000000  0  8G 6G24G10G 4G 9G 5G30G17
  22525978.340    -8430078.47249  -6552834.10846  22525978.070    22525984.262
  21903886.147     4617369.55349   3591717.53747  21903885.795    21903892.621
  21463038.458    -9488435.88249  -7378379.64047  21463037.498    21463044.505
  24642149.658     8868138.36249   6891672.79845  24642149.725    24642157.162
  25022868.419     8520706.59249   6626731.01445  25022868.268    25022878.333
  20450233.716     -746640.79949   -579364.86548  20450233.018    20450238.733
  20528365.016    -8035580.32649  -6242057.90448  20528365.099    20528370.041
  24830325.304    -4940171.15849  -3835057.39345  24830324.715    24830334.161
 03  3 20 19 30 30.0000000  0  8G 6G24G10G 4G 9G 5G30G17
  22513894.346    -8493580.37349  -6602316.10946  22513894.065    22513900.288
  21917840.971     4690702.47049   3648860.01847  21917840.625    21917847.452
  21452631.621    -9543124.04749  -7420993.76447  21452630.663    21452637.665
  24661506.410     8969858.56449   6970935.15245  24661506.514    24661514.139
  25040807.115     8614973.01449   6700184.86145  25040806.969    25040817.187
  20456845.498     -711895.81849   -552290.88748  20456844.801    20456850.515
  20520854.372    -8075049.00849  -6272812.72648  20520854.458    20520859.416
  24812849.290    -5032007.97149  -3906618.44245  24812848.603    24812858.157
 03  3 20 19 31  0.0000000  0  8G 6G24G10G 4G 9G 5G30G17
  22501824.016    -8557010.11349  -6651741.88346  22501823.722    22501830.010
  21931834.605     4764239.29449   3706161.39447  21931834.267    21931841.111
  21442324.490    -9597288.39249  -7463199.72847  21442323.508    21442330.503
  24680859.911     9071561.68649   7050184.30645  24680860.016    24680867.628
  25058722.152     8709115.41249   6773542.07845  25058721.957    25058732.441
  20463556.465     -676629.68049   -524810.81048  20463555.765    20463561.480
  20513440.725    -8114007.88949  -6303170.30248  20513440.840    20513445.819
  24795398.719    -5123710.80249  -3978075.09045  24795398.023    24795407.492
 03  3 20 19 31 30.0000000  0  8G 6G24G10G 4G 9G 5G30G17
  22489767.516    -8620367.49749  -6701111.26046  22489767.218    22489773.553
  21945866.532     4837977.30649   3763619.53847  21945866.203    21945873.025
  21432117.405    -9650926.77249  -7504995.85047  21432116.445    21432123.409
  24700209.876     9173245.79749   7129418.62745  24700209.980    24700217.544
  25076613.182     8803131.40149   6846800.77645  25076612.921    25076623.602
  20470366.403     -640843.32249   -496925.37048  20470365.711    20470371.420
  20506124.395    -8152455.34649  -6333129.36348  20506124.515    20506129.511
  24777973.871    -5215278.74249  -4049426.62945  24777973.177    24777982.671
 03  3 20 19 32  0.0000000  0  7G 6G24G10G 4G 5G30G17
  22477725.472    -8683649.09049  -6750421.58846  22477725.155    22477731.510
  21959936.986     4911917.76049   3821235.42047  21959936.642    21959943.446
  21422011.461    -9704033.82449  -7546377.94947  21422010.501    21422017.427
  24719556.427     9274912.22349   7208639.06445  24719556.427    24719564.235
  20477275.803     -604534.39049   -468632.73048  20477275.117    20477280.831
  20498906.336    -8190386.64549  -6362686.22748  20498906.462    20498911.467
  24760575.394    -5306708.03249  -4120670.13445  24760574.671    24760584.247
 03  3 20 19 32 30.0000000  0  7G 6G24G10G 4G 5G30G17
  22465697.255    -8746857.76049  -6799675.08646  22465696.942    22465703.294
  21974044.837     4986054.85449   3879004.53847  21974044.496    21974051.316
  21412006.478    -9756610.36749  -7587346.66647  21412005.517    21412012.444
  24738898.701     9376556.05349   7287841.95045  24738898.677    24738906.630
  20484283.872     -567706.87649   -439935.99448  20484283.196    20484288.905
  20491786.179    -8227803.38349  -6391842.13648  20491786.292    20491791.293
  24743202.917    -5398000.77549  -4191807.23845  24743202.117    24743211.690
 03  3 20 19 33  0.0000000  0  7G 6G24G10G 4G 5G30G17
  22453682.917    -8809993.55749  -6848871.80246  22453682.609    22453688.965
  21988189.632     5060385.99449   3936924.86147  21988189.293    21988196.141
  21402102.753    -9808654.78349  -7627900.73947  21402101.793    21402108.712
  24758236.283     9478175.14349   7367025.63345  24758236.229    24758244.227
  20491390.412     -530361.86549   -410836.01548  20491389.726    20491395.428
  20484764.146    -8264704.39649  -6420596.18248  20484764.273    20484769.256
  24725856.474    -5489156.38849  -4262837.48345  24725855.677    24725865.287
 03  3 20 19 33 30.0000000  0  7G 6G24G10G 4G 5G30G17
  22441682.584    -8873055.65349  -6898011.08946  22441682.307    22441688.620
  22002371.074     5134909.72749   3994995.25147  22002370.736    22002377.625
  21392300.758    -9860164.55249  -7668038.20347  21392299.789    21392306.714
  24777568.868     9579768.28349   7446189.00545  24777568.806    24777576.900
  20498595.359     -492499.73849   -381333.09048  20498594.678    20498600.385
  20477840.680    -8301087.50849  -6448946.67048  20477840.776    20477845.792
  24708536.426    -5580173.52549  -4333759.83745  24708535.677    24708545.188
 03  3 20 19 34  0.0000000  0  6G 6G24G10G 5G30G17
  22429696.560    -8936042.64949  -6947091.86146  22429696.294    22429702.574
  22016588.865     5209624.60749   4053214.58847  22016588.523    22016595.428
  21382601.161    -9911136.35949  -7707756.48247  21382600.194    21382607.084
  20505898.736     -454120.44149   -351427.17548  20505898.062    20505903.769
  20471016.266    -8336950.07549  -6476891.53548  20471016.380    20471021.398
  24691243.049    -5671050.41649  -4404572.91745  24691242.339    24691251.784
 03  3 20 19 34 30.0000000  0  6G 6G24G10G 5G30G17
  22417725.798    -8998949.37149  -6996110.07946  22417725.512    22417731.829
  22030843.614     5284533.33849   4111584.97847  22030843.265    22030850.159
  21373005.228    -9961563.23649  -7747050.13947  21373004.277    21373011.161
  20513301.243     -415220.06849   -321115.22948  20513300.568    20513306.283
  20464292.113    -8372285.79749  -6504425.87048  20464292.225    20464297.271
  24673977.530    -5761780.94649  -4475271.93445  24673976.781    24673986.246
 03  3 20 19 35  0.0000000  0  6G 6G24G10G 5G30G17
  22405768.978    -9061783.02249  -7045071.36446  22405768.699    22405774.981
  22045133.294     5359625.95249   4170098.65247  22045132.942    22045139.845
  21363511.954   -10011450.73049  -7785923.49447  21363511.009    21363517.905
  20520801.327     -375807.06349   -290403.82748  20520800.655    20520806.388
  20457667.055    -8407100.65949  -6531554.33948  20457667.162    20457672.214
  24656738.606    -5852371.72049  -4545862.06245  24656737.816    24656747.238
 03  3 20 19 35 30.0000000  0  6G 6G24G10G 5G30G17
  22393826.390    -9124541.75649  -7093974.28146  22393826.127    22393832.359
  22059457.836     5434901.80949   4228755.10847  22059457.495    22059464.440
  21354121.976   -10060795.18049  -7824373.69647  21354121.020    21354127.923
  20528399.048     -335880.89049   -259292.54748  20528398.375    20528404.108
  20451141.699    -8441391.70549  -6558274.63748  20451141.809    20451146.876
  24639526.669    -5942820.59149  -4616341.62045  24639525.981    24639535.304
 03  3 20 19 36  0.0000000  0  6G 6G24G10G 5G30G17
  22381898.268    -9187224.62849  -7142818.08046  22381897.984    22381904.179
  22073816.933     5510359.26049   4287553.06547  22073816.595    22073823.572
  21344835.877   -10109593.88949  -7862398.65247  21344834.918    21344841.839
  20536094.370     -295441.82949   -227781.62648  20536093.698    20536099.434
  20444716.438    -8475156.70549  -6584585.03648  20444716.557    20444721.623
  24622342.105    -6033125.77949  -4686709.22545  24622341.487    24622350.597
 03  3 20 19 36 30.0000000  0  6G 6G24G10G 5G30G17
  22369984.774    -9249830.61849  -7191601.97046  22369984.472    22369990.677
  22088210.268     5585996.52649   4346491.13747  22088209.930    22088216.946
  21335654.130   -10157844.19149  -7899996.27347  21335653.185    21335660.135
  20543887.205     -254490.29049   -195871.36548  20543886.543    20543892.297
  20438391.654    -8508393.64549  -6610483.95448  20438391.786    20438396.861
  24605185.125    -6123285.89349  -4756963.78445  24605184.515    24605193.649
 03  3 20 19 37  0.0000000  0  6G 6G24G10G 5G30G17
  22358086.060    -9312358.68849  -7240325.13947  22358085.780    22358091.998
  22102637.526     5661812.15749   4405568.19447  22102637.202    22102644.254
  21326577.139   -10205543.79249  -7937164.78047  21326576.228    21326583.165
  20551777.493     -213026.66649   -163562.07848  20551776.831    20551782.600
  20432167.743    -8541100.62349  -6635969.91348  20432167.875    20432172.937
  24588056.096    -6213298.87749  -4827103.71145  24588055.534    24588064.515
 03  3 20 19 37 30.0000000  0  6G 6G24G10G 5G30G17
  22346202.144    -9374808.93249  -7288987.66147  22346201.866    22346208.113
  22117098.264     5737803.76349   4464782.37147  22117097.932    22117104.997
  21317605.421   -10252690.67449  -7973902.59247  21317604.460    21317611.408
  20559764.965     -171052.41349   -130854.90548  20559764.301    20559770.068
  20426044.898    -8573276.36049  -6661041.91748  20426045.023    20426050.113
  24570955.096    -6303164.95549  -4897129.14745  24570954.402    24570963.427
 03  3 20 19 38  0.0000000  0  6G 6G24G10G 5G30G17
  22334333.218    -9437180.55049  -7337588.91947  22334332.933    22334339.190
  22131592.169     5813969.52349   4524132.25147  22131591.828    22131598.918
  21308739.301   -10299282.54949  -8010207.93447  21308738.367    21308745.255
  20567849.493     -128568.07449    -97750.26148  20567848.834    20567854.607
  20420023.506    -8604918.93649  -6685698.47148  20420023.642    20420028.707
  24553882.299    -6392882.68449  -4967038.98245  24553881.761    24553890.545
 03  3 20 19 38 30.0000000  0  6G 6G24G10G 5G30G17
  22322479.380    -9499472.72649  -7386128.27147  22322479.109    22322485.380
  22146118.877     5890307.46749   4583616.31047  22146118.541    22146125.623
  21299979.223   -10345317.28449  -8046079.13547  21299978.272    21299985.137
  20576031.007      -85574.08449    -64248.48648  20576030.341    20576036.118
  20414103.907    -8636026.63749  -6709938.24048  20414104.030    20414109.090
  24536838.099    -6482450.25149  -5036831.81445  24536837.581    24536846.352
 03  3 20 19 39  0.0000000  0  6G 6G24G10G 5G30G17
  22310640.786    -9561685.14749  -7434605.47547  22310640.525    22310646.777
  22160677.873     5966815.15849   4643232.64247  22160677.542    22160684.610
  21291325.471   -10390793.01949  -8081514.75747  21291324.503    21291331.344
  20584309.244      -42071.90149    -30350.71948  20584308.580    20584314.357
  20408286.368    -8666598.19649  -6733760.23448  20408286.477    20408291.547
  24519822.531    -6571867.10349  -5106507.22745  24519821.981    24519830.843
 03  3 20 19 39 30.0000000  0  6G 6G24G10G 5G30G17
  22298817.505    -9623817.05449  -7483019.93947  22298817.240    22298823.450
  22175268.796     6043490.88949   4702979.91047  22175268.481    22175275.536
  21282778.487   -10435707.56049  -8116513.08247  21282777.530    21282784.380
  20592684.021        1937.68749      3942.42548  20592683.342    20592689.112
  20402571.119    -8696632.07349  -6757163.25248  20402571.224    20402576.290
  24502835.924    -6661132.23649  -5176064.42545  24502835.320    24502844.172
 03  3 20 19 40  0.0000000  0  6G 6G24G10G 5G30G17
  22287009.689    -9685867.71449  -7531371.10247  22287009.405    22287015.613
  22189891.361     6120332.54149   4762856.46647  22189891.038    22189898.081
  21274338.712   -10480058.79549  -8151072.47047  21274337.742    21274344.611
  20601155.211       46453.89349     38630.33948  20601154.527    20601160.292
  20396958.502    -8726126.52449  -6780145.94048  20396958.609    20396963.674
  24485878.345    -6750244.77649  -5245502.70645  24485877.700    24485886.470
 03  3 20 19 40 30.0000000  0  6G 6G24G10G 5G30G17
  22275217.365    -9747836.85549  -7579658.74047  22275217.068    22275223.275
  22204545.059     6197337.91549   4822860.59447  22204544.733    22204551.767
  21266006.464   -10523844.97649  -8185191.55047  21266005.491    21266012.350
  20609722.583       91475.44349     73712.03048  20609721.886    20609727.652
  20391448.810    -8755080.25349  -6802707.28848  20391448.924    20391453.944
  24468950.077    -6839203.27249  -5314820.97545  24468949.399    24468958.233
 03  3 20 19 41  0.0000000  0  6G 6G24G10G 5G30G17
  22263440.709    -9809723.55949  -7627882.14747  22263440.411    22263446.611
  22219229.617     6274505.60849   4882991.20347  22219229.287    22219236.323
  21257782.171   -10567063.89749  -8218868.61847  21257781.184    21257788.050
  20618386.011      137001.85149    109187.11748  20618385.309    20618391.088
  20386042.338    -8783491.49949  -6824845.92148  20386042.437    20386047.428
  24452051.310    -6928006.64349  -5384018.33745  24452050.757    24452059.499
 03  3 20 19 41 30.0000000  0  6G 6G24G10G 5G30G17
  22251679.811    -9871527.62749  -7676041.15447  22251679.513    22251685.727
  22233944.643     6351833.26049   4943246.46347  22233944.311    22233951.342
  21249666.181   -10609713.81149  -8252102.30147  21249665.183    21249672.052
  20627145.198      183031.46249    145054.30948  20627144.495    20627150.278
  20380739.294    -8811359.20049  -6846561.00948  20380739.398    20380744.382
  24435182.186    -7016654.62149  -5453094.65045  24435181.516    24435190.422
 03  3 20 19 42  0.0000000  0  6G 6G24G10G 5G30G17
  22239934.737    -9933248.39349  -7724135.24947  22239934.434    22239940.629
  22248689.701     6429318.67949   5003624.65947  22248689.343    22248696.377
  21241658.811   -10651792.72649  -8284891.04847  21241657.826    21241664.707
  20635999.961      229563.48349    181312.98348  20635999.265    20636005.064
  20375539.993    -8838681.71349  -6867851.28048  20375540.107    20375545.108
  24418342.913    -7105145.71449  -5522048.68945  24418342.254    24418351.019
 03  3 20 19 42 30.0000000  0  6G 6G24G10G 5G30G17
  22228205.670    -9994884.92249  -7772163.70847  22228205.374    22228211.576
  22263464.451     6506960.25049   5064124.52747  22263464.104    22263471.162
  21233760.458   -10693298.59149  -8317233.26147  21233759.484    21233766.370
  20644950.189      276597.04649    217962.47948  20644949.489    20644955.302
  20370444.776    -8865457.49749  -6888715.52848  20370444.875    20370449.873
  24401533.605    -7193478.97049  -5590879.75045  24401532.951    24401541.716
 03  3 20 19 43  0.0000000  0  6G 6G24G10G 5G30G17
  22216492.750   -10056436.80049  -7820126.20847  22216492.442    22216498.643
  22278268.490     6584755.65649   5124744.25847  22278268.146    22278275.189
  21225971.559   -10734229.51349  -8349127.46847  21225970.586    21225977.485
  20653995.609      324130.99049    255001.88148  20653994.917    20654000.734
  20365453.781    -8891685.39949  -6909152.86148  20365453.879    20365458.854
  24384754.529    -7281653.46049  -5659587.09145  24384753.886    24384762.637
 03  3 20 19 43 30.0000000  0  6G 6G24G10G 5G30G17
  22204796.050   -10117903.49149  -7868022.32847  22204795.740    22204801.916
  22293101.421     6662702.88349   5185482.30647  22293101.027    22293108.067
  21218292.340   -10774583.80349  -8380572.35247  21218291.423    21218298.278
  20663135.960      372163.83249    292430.03348  20663135.259    20663141.106
  20360567.346    -8917363.92049  -6929162.09948  20360567.432    20360572.402
  24368005.930    -7369667.87949  -5728169.69645  24368005.281    24368014.106
 03  3 20 19 44  0.0000000  0  6G 6G24G10G 5G30G17
  22193115.705   -10179284.41149  -7915851.60647  22193115.376    22193121.524
  22307962.870     6740800.01849   5246337.16947  22307962.489    22307969.533
  21210723.298   -10814359.44249  -8411566.34047  21210722.372    21210729.224
  20672371.077      420694.60149    330246.17848  20672370.376    20672376.238
  20355785.675    -8942491.79549  -6948742.27048  20355785.773    20355790.733
  24351287.784    -7457521.94749  -5796627.33945  24351287.125    24351295.979
 03  3 20 19 44 30.0000000  0  6G 6G24G10G 5G30G17
  22181451.830   -10240578.42949  -7963613.16047  22181451.501    22181457.660
  22322852.505     6819045.50249   5307307.62747  22322852.151    22322859.198
  21203264.756   -10853554.31249  -8442107.78447  21203263.806    21203270.645
  20681700.881      469722.81849    368449.95448  20681700.177    20681706.056
  20351109.126    -8967067.25049  -6967891.98148  20351109.230    20351114.204
  24334600.437    -7545214.10149  -5864958.83145  24334599.877    24334608.737
 03  3 20 19 45  0.0000000  0  6G 6G24G10G 5G30G17
  22169804.464   -10301785.62649  -8011307.07347  22169804.164    22169810.301
  22337769.900     6897436.76949   5368391.68447  22337769.544    22337776.588
  21195916.934   -10892167.44449  -8472195.92247  21195915.963    21195922.784
  20691124.989      519246.58949    407039.86748  20691124.283    20691130.164
  20346537.827    -8991089.58149  -6986610.68848  20346537.925    20346542.896
  24317944.118    -7632743.71749  -5933163.67945  24317943.488    24317952.408
 03  3 20 19 45 30.0000000  0  6G 6G24G10G 5G30G17
  22158173.773   -10362905.30449  -8058932.79147  22158173.446    22158179.602
  22352714.682     6975971.92749   5429587.86647  22352714.338    22352721.406
  21188680.177   -10930196.95349  -8501829.29047  21188679.173    21188685.981
  20700643.174      569264.85449    446015.10248  20700642.463    20700648.340
  20342072.080    -9014557.39649  -7004897.30348  20342072.166    20342077.150
  24301318.886    -7720109.75049  -6001241.04645  24301318.317    24301327.142
 03  3 20 19 46  0.0000000  0  6G 6G24G10G 5G30G17
  22146559.977   -10423936.13449  -8106489.26447  22146559.636    22146565.807
  22367686.593     7054649.71549   5490895.17947  22367686.243    22367693.346
  21181554.907   -10967640.45649  -8531006.03347  21181553.935    21181560.700
  20710255.354      619776.94649    485375.14048  20710254.639    20710260.519
  20337712.171    -9037468.82649  -7022750.37448  20337712.265    20337717.235
  24284725.073    -7807310.79949  -6069189.87245  24284724.475    24284733.278
 03  3 20 19 46 30.0000000  0  6G 6G24G10G 5G30G17
  22134963.123   -10484878.07749  -8153976.49547  22134962.784    22134968.915
  22382685.164     7133467.47249   5552311.56947  22382684.820    22382691.932
  21174541.362   -11004496.93249  -8559725.35347  21174540.371    21174547.136
  20719961.170      670781.25249    525118.72248  20719960.460    20719966.350
  20333458.308    -9059823.18349  -7040169.36448  20333458.410    20333463.365
  24268162.667    -7894346.38049  -6137009.74245  24268162.051    24268170.923
 03  3 20 19 47  0.0000000  0  6G 6G24G10G 5G30G17
  22123383.302   -10545730.39949  -8201393.88547  22123382.941    22123389.086
  22397710.013     7212423.34349   5613835.57547  22397709.658    22397716.765
  21167639.859   -11040764.51349  -8587985.79847  21167638.898    21167645.630
  20729760.438      722276.58049    565244.91848  20729759.726    20729765.632
  20329310.647    -9081619.23849  -7057153.31248  20329310.731    20329315.690
  24251631.997    -7981215.50349  -6204699.91945  24251631.415    24251640.205
 03  3 20 19 47 30.0000000  0  6G 6G24G10G 5G30G17
  22111820.718   -10606492.27349  -8248740.79447  22111820.365    22111826.494
  22412760.751     7291515.42749   5675465.71746  22412760.369    22412767.508
  21160850.761   -11076441.53749  -8615786.06847  21160849.778    21160856.493
  20739652.904      774261.72449    605752.78448  20739652.187    20739658.093
  20325269.501    -9102855.69849  -7073701.21548  20325269.589    20325274.536
  24235133.234    -8067917.20549  -6272259.63745  24235132.537    24235141.320
 03  3 20 19 48  0.0000000  0  6G 6G24G10G 5G30G17
  22100275.471   -10667163.02149  -8296016.69247  22100275.128    22100281.224
  22427837.101     7370742.00249   5737200.65846  22427836.731    22427843.928
  21154174.401   -11111526.29449  -8643124.82447  21154173.380    21154180.088
  20749638.317      826735.23649    646641.19748  20749637.605    20749643.519
  20321335.064    -9123531.37449  -7089812.14348  20321335.162    20321340.072
  24218666.376    -8154450.83549  -6339688.39245  24218665.766    24218674.451
 03  3 20 19 48 30.0000000  0  6G 6G24G10G 5G30G17
  22088747.679   -10727741.83049  -8343220.95847  22088747.339    22088753.452
  22442938.729     7450101.58049   5799039.24446  22442938.377    22442945.607
  21147611.029   -11146017.08849  -8670000.75947  21147609.984    21147616.704
  20759716.467      879696.10049    687909.36648  20759715.758    20759721.677
  20317507.616    -9143644.83949  -7105484.98648  20317507.712    20317512.627
  24202231.655    -8240815.63649  -6406985.58545  24202230.974    24202239.760
 03  3 20 19 49  0.0000000  0  6G 6G24G10G 5G30G17
  22077237.551   -10788227.72749  -8390352.82947  22077237.227    22077243.361
  22458065.286     7529591.95249   5860979.74546  22458064.935    22458072.185
  21141160.980   -11179912.14049  -8696412.47647  21141159.960    21141166.690
  20769887.119      933143.10449    729556.35048  20769886.417    20769892.348
  20313787.397    -9163194.79949  -7120718.73648  20313787.508    20313792.419
  24185829.302    -8327009.96949  -6474149.94745  24185828.570    24185837.411
 03  3 20 19 49 30.0000000  0  6G 6G24G10G 5G30G17
  22065745.087   -10848620.81749  -8437412.37847  22065744.773    22065750.937
  22473216.254     7609210.52349   5923020.13846  22473215.896    22473223.174
  21134824.414   -11213210.74749  -8722359.43347  21134823.416    21134830.151
  20780149.893      987074.19649    771580.54648  20780149.202    20780155.130
  20310174.436    -9182181.07849  -7135513.25348  20310174.529    20310179.462
  24169459.548    -8413033.30749  -6541181.07545  24169458.832    24169467.714
 03  3 20 19 50  0.0000000  0  6G 6G24G10G 5G30G17
  22054270.497   -10908920.28349  -8484398.98547  22054270.186    22054276.345
  22488391.241     7688955.57849   5985159.09646  22488390.921    22488398.155
  21128601.669   -11245911.22649  -8747840.31847  21128600.714    21128607.456
  20790504.571     1041488.21349    813981.03948  20790503.864    20790509.801
  20306669.040    -9200602.16449  -7149867.36548  20306669.145    20306674.071
  24153122.510    -8498885.24949  -6608078.66745  24153121.771    24153130.489
 03  3 20 19 50 30.0000000  0  6G 6G24G10G 5G30G17
  22042813.856   -10969125.30149  -8531311.97947  22042813.538    22042819.713
  22503589.990     7768825.23649   6047395.14446  22503589.669    22503596.930
  21122493.087   -11278011.85849  -8772853.79147  21122492.153    21122498.929
  20800950.907     1096383.83249    856756.80748  20800950.212    20800956.146
  20303271.378    -9218457.00649  -7163780.24448  20303271.468    20303276.411
  24136818.318    -8584564.51449  -6674841.69645  24136817.599    24136826.180
 03  3 20 19 51  0.0000000  0  6G 6G24G10G 5G30G17
  22031375.349   -11029235.17849  -8578150.84147  22031375.027    22031381.182
  22518812.089     7848817.82349   6109726.98946  22518811.741    22518819.037
  21116498.978   -11309511.35149  -8797398.84147  21116498.003    21116504.772
  20811488.599     1151759.65849    899906.76548  20811487.907    20811493.845
  20299981.722    -9235744.43249  -7177250.98148  20299981.815    20299986.771
  24120547.048    -8670070.74649  -6741469.89145  24120546.303    24120554.850
 03  3 20 19 51 30.0000000  0  6G 6G24G10G 5G30G17
  22019955.127   -11089249.01749  -8624914.87847  22019954.792    22019960.922
  22534057.263     7928931.62849   6172153.27346  22534056.947    22534064.245
  21110619.528   -11340408.10749  -8821474.22547  21110618.533    21110625.305
  20822117.497     1207614.63749    943430.08848  20822116.788    20822122.729
  20296800.256    -9252463.30049  -7190278.68548  20296800.337    20296805.294
  24104308.960    -8755402.31449  -6807961.98745  24104308.214    24104316.769
 03  3 20 19 52  0.0000000  0  6G 6G24G10G 5G30G17
  22008553.315   -11149165.97749  -8671603.41247  22008552.996    22008559.126
  22549325.117     8009164.56749   6234672.39946  22549324.787    22549332.092
  21104854.999   -11370700.73449  -8845078.85747  21104854.054    21104860.793
  20832837.288     1263947.39549    987325.70848  20832836.577    20832842.531
  20293727.164    -9268612.53049  -7202862.51648  20293727.255    20293732.208
  24088104.227    -8840558.73449  -6874317.61145  24088103.513    24088111.956
 03  3 20 19 52 30.0000000  0  6G 6G24G10G 5G30G17
  21997170.022   -11208985.59949  -8718216.10747  21997169.657    21997175.808
  22564615.348     8089515.00749   6297283.08546  22564615.012    22564622.336
  21099205.784   -11400387.96449  -8868211.75747  21099204.784    21099211.495
  20843647.649     1320756.18049   1031592.25748  20843646.943    20843652.912
  20290762.627    -9284191.32449  -7215001.84948  20290762.727    20290767.691
  24071932.988    -8925539.42049  -6940536.29245  24071932.258    24071940.644
 03  3 20 19 53  0.0000000  0  6G 6G24G10G 5G30G17
  21985805.417   -11268706.93449  -8764752.21147  21985805.064    21985811.243
  22579927.599     8169981.10249   6359983.89346  22579927.252    22579934.594
  21093671.952   -11429468.34949  -8890871.78247  21093670.955    21093677.663
  20854548.371     1378039.75949   1076228.78248  20854547.677    20854553.649
  20287906.815    -9299198.66649  -7226695.89148  20287906.914    20287911.898
  24055795.316    -9010343.29049  -7006617.18745  24055794.560    24055802.973
 03  3 20 19 53 30.0000000  0  6G 6G24G10G 5G30G17
  21974459.696   -11328328.89749  -8811210.88547  21974459.358    21974465.520
  22595261.472     8250560.98649   6422773.37046  22595261.136    22595268.447
  21088253.900   -11457940.16749  -8913057.59847  21088252.956    21088259.659
  20865539.235     1435796.97749   1121234.37148  20865538.538    20865544.498
  20285160.060    -9313633.13349  -7237943.54048  20285160.176    20285165.144
  24039691.524    -9094968.98049  -7072559.25445  24039690.808    24039699.165
 03  3 20 19 54  0.0000000  0  6G 6G24G10G 5G30G17
  21963133.069   -11387850.80549  -8857591.60747  21963132.750    21963138.881
  22610616.747     8331253.07049   6485650.25946  22610616.406    22610623.696
  21082951.926   -11485802.13649  -8934768.21347  21082950.987    21082957.668
  20876619.916     1494026.11249   1166607.68348  20876619.217    20876625.192
  20282522.442    -9327493.97049  -7248744.20548  20282522.542    20282527.511
  24023621.755    -9179415.76849  -7138361.92045  24023620.984    24023629.447
 03  3 20 19 54 30.0000000  0  6G 6G24G10G 5G30G17
  21951825.514   -11447272.39449  -8903894.15247  21951825.188    21951831.309
  22625992.900     8412055.00349   6548612.74946  22625992.551    22625999.836
  21077766.163   -11513053.52849  -8956003.05647  21077765.197    21077771.873
  20887789.996     1552725.26149   1212347.24548  20887789.284    20887795.288
  20279994.094    -9340780.59449  -7259097.42848  20279994.192    20279999.177
  24007586.079    -9263683.48549  -7204025.03845  24007585.335    24007593.772
 03  3 20 19 55  0.0000000  0  6G 6G24G10G 5G30G17
  21940537.287   -11506592.25649  -8950117.43347  21940536.962    21940543.122
  22641389.694     8492965.38649   6611659.74146  22641389.342    22641396.641
  21072696.912   -11539692.53149  -8976760.70847  21072695.976    21072702.621
  20899049.361     1611893.46249   1258452.29348  20899048.660    20899054.689
  20277575.267    -9353491.58049  -7269002.10348  20277575.377    20277580.362
  23991584.772    -9347770.60849  -7269547.43745  23991584.012    23991592.481
 03  3 20 19 55 30.0000000  0  6G 6G24G10G 5G30G17
  21929268.564   -11565809.82749  -8996260.99547  21929268.243    21929274.419
  22656806.771     8573982.41649   6674789.84246  22656806.409    22656813.751
  21067744.400   -11565718.13649  -8997040.39547  21067743.455    21067750.103
  20910397.643     1671529.04849   1304921.54448  20910396.943    20910402.983
  20275266.105    -9365626.40849  -7278457.82648  20275266.205    20275271.218
  23975617.886    -9431676.73749  -7334928.80345  23975617.206    23975625.650
 03  3 20 19 56  0.0000000  0  6G 6G24G10G 5G30G17
  21918019.080   -11624926.35849  -9042325.82247  21918018.771    21918024.937
  22672243.442     8655102.37749   6738000.15046  22672243.083    22672250.423
  21062908.497   -11591131.13749  -9016842.72647  21062907.493    21062914.134
  20921834.183     1731628.34749   1351752.12748  20921833.486    20921839.535
  20273066.370    -9377186.15749  -7287465.43148  20273066.478    20273071.468
  23959685.372    -9515402.59349  -7400169.69845  23959684.695    23959693.171
 03  3 20 19 56 30.0000000  0  6G 6G24G10G 5G30G17
  21906789.727   -11683937.16349  -9088308.26847  21906789.395    21906795.553
  22687700.014     8736327.09349   6801292.08546  22687699.663    22687707.016
  21058190.157   -11615926.31349  -9036163.63647  21058189.139    21058195.785
  20933359.422     1792193.77049   1398945.92548  20933358.717    20933364.775
  20270976.944    -9388166.15449  -7296021.28148  20270977.054    20270982.041
  23943787.951    -9598943.99449  -7465266.85745  23943787.221    23943795.781
 03  3 20 19 57  0.0000000  0  6G 6G24G10G 5G30G17
  21895580.129   -11742843.80549  -9134209.54647  21895579.826    21895585.982
  22703175.760     8817652.61649   6864662.57446  22703175.439    22703182.822
  21053589.087   -11640105.10449  -9055004.24847  21053588.044    21053594.687
  20944972.640     1853221.52549   1446499.98148  20944971.938    20944978.001
  20268997.590    -9398567.87949  -7304126.53048  20268997.685    20269002.687
  23927925.358    -9682302.23349  -7530221.28645  23927924.593    23927933.249
 03  3 20 19 57 30.0000000  0  6G 6G24G10G 5G30G17
  21884390.576   -11801645.34449  -9180028.92847  21884390.272    21884396.410
  22718670.362     8899077.11049   6928110.17646  22718670.022    22718677.449
  21049105.525   -11663666.07149  -9073363.43747  21049104.538    21049111.197
  20956673.563     1914710.08949   1494413.11048  20956672.867    20956678.944
  20267128.410    -9408390.42249  -7311780.46948  20267128.519    20267133.513
  23912097.792    -9765476.48149  -7595032.36145  23912097.030    23912105.707
 03  3 20 19 58  0.0000000  0  6G 6G24G10G 5G30G17
  21873221.174   -11860340.92749  -9225765.74247  21873220.864    21873227.034
  22734183.525     8980599.19049   6991633.80846  22734183.192    22734190.635
  21044739.759   -11686608.21949  -9091240.43247  21044738.761    21044745.415
  20968461.871     1976657.85649   1542684.05948  20968461.166    20968467.247
  20265369.620    -9417632.98449  -7318982.47748  20265369.726    20265374.725
  23896305.415    -9848465.92149  -7659699.41945  23896304.663    23896313.386
 03  3 20 19 58 30.0000000  0  6G 6G24G10G 5G30G17
  21862072.135   -11918929.52549  -9271419.18147  21862071.813    21862077.979
  22749714.953     9062217.21149   7055232.21346  22749714.620    22749722.088
  21040491.942   -11708930.52249  -9108634.42447  21040490.961    21040497.626
  20980337.249     2039063.41349   1591311.72348  20980336.555    20980342.655
  20263721.320    -9426294.90649  -7325732.03448  20263721.437    20263726.423
  23880548.345    -9931269.71749  -7724221.83445  23880547.581    23880556.231
 03  3 20 19 59  0.0000000  0  6G 6G24G10G 5G30G17
  21850943.652   -11977410.11549  -9316988.46447  21850943.337    21850949.515
  22765264.310     9143929.49849   7118904.06946  22765263.985    22765271.489
  21036362.353   -11730631.51749  -9125544.28247  21036361.420    21036368.073
  20992299.477     2101925.20649   1640294.89048  20992298.794    20992304.920
  20262183.733    -9434375.00649  -7332028.22548  20262183.842    20262188.847
  23864826.752   -10013887.30849  -7788599.14245  23864826.004    23864834.608
 03  3 20 19 59 30.0000000  0  6G 6G24G10G 5G30G17
  21839835.762   -12035782.42449  -9362473.36547  21839835.457    21839841.622
  22780831.134     9225733.41149   7182647.32346  22780830.809    22780838.327
  21032351.019   -11751710.80149  -9141969.69047  21032350.127    21032356.794
  21004348.081     2165240.89249   1689631.74648  21004347.403    21004353.551
  20260756.849    -9441873.29049  -7337871.05648  20260756.970    20260761.976
  23849140.658   -10096318.05949  -7852830.86345  23849139.934    23849148.518
 03  3 20 20  0  0.0000000  0  6G 6G24G10G 5G30G17
  21828748.743   -12094044.95149  -9407872.72847  21828748.442    21828754.630
  22796415.250     9307628.08749   7246461.29046  22796414.910    22796422.428
  21028458.307   -11772167.05349  -9157909.62247  21028457.432    21028464.111
  21016482.873     2229009.55349   1739321.56048  21016482.192    21016488.351
  20259440.917    -9448788.49949  -7343259.54148  20259441.041    20259446.068
  23833490.364   -10178560.72049  -7916916.02145  23833489.619    23833498.265
 03  3 20 20  0 30.0000000  0  6G 6G24G10G 5G30G17
  21817682.769   -12152196.96749  -9453185.98147  21817682.483    21817688.676
  22812016.225     9389611.57849   7310344.46946  22812015.890    22812023.421
  21024684.339   -11791999.27949  -9173363.29747  21024683.455    21024690.143
  21028703.553     2293229.38949   1789362.94648  21028702.872    21028709.026
  20258236.098    -9455119.96649  -7348193.16648  20258236.225    20258241.273
  23817875.981   -10260614.71649  -7980854.17045  23817875.248    23817883.854
 03  3 20 20  1  0.0000000  0  6G 6G24G10G 5G30G17
  21806638.121   -12210237.02849  -9498411.99147  21806637.819    21806644.020
  22827633.949     9471683.04049   7374296.20746  22827633.618    22827641.172
  21021029.469   -11811206.01349  -9188329.57747  21021028.545    21021035.229
  21041009.824     2357899.18049   1839754.95348  21041009.142    21041015.305
  20257142.520    -9460866.81249  -7352671.24048  20257142.632    20257147.705
  23802297.704   -10342478.49549  -8044644.09246  23802296.973    23802305.723
 03  3 20 20  1 30.0000000  0  6G 6G24G10G 5G30G17
  21795614.773   -12268165.10649  -9543550.74647  21795614.470    21795620.658
  22843267.869     9553839.56549   7438314.22746  22843267.525    22843275.091
  21017493.584   -11829787.12449  -9202808.36147  21017492.663    21017499.330
  21053401.237     2423016.35749   1890495.56948  21053400.564    21053406.748
  20256160.158    -9466029.13949  -7356693.84648  20256160.272    20256165.345
  23786755.683   -10424152.33749  -8108286.01746  23786754.952    23786763.717
 03  3 20 20  2  0.0000000  0  6G 6G24G10G 5G30G17
  21784612.855   -12325980.50749  -9588601.69647  21784612.547    21784618.727
  22858917.662     9636079.66749   7502397.36546  22858917.320    22858924.885
  21014076.911   -11847742.00649  -9216799.17147  21014075.958    21014082.636
  21065877.426     2488578.98449   1941583.28548  21065876.767    21065882.960
  20255289.131    -9470606.57449  -7360260.69248  20255289.245    20255294.315
  23771249.803   -10505636.02149  -8171779.76446  23771249.136    23771257.766
 03  3 20 20  2 30.0000000  0  6G 6G24G10G 5G30G17
  21773632.656   -12383681.88249  -9633563.78547  21773632.358    21773638.533
  22874583.070     9718401.80649   7566544.43046  22874582.736    22874590.292
  21010779.571   -11865069.50249  -9230301.11047  21010778.621    21010785.291
  21078438.120     2554585.78449   1993017.09548  21078437.451    21078443.674
  20254529.554    -9474598.14449  -7363371.02148  20254529.681    20254534.736
  23755780.427   -10586928.05449  -8235124.17146  23755779.756    23755788.378
 03  3 20 20  3  0.0000000  0  6G 6G24G10G 5G30G17
  21762674.199   -12441268.97049  -9678436.82447  21762673.884    21762680.080
  22890263.661     9800803.79549   7630753.71746  22890263.330    22890270.911
  21007601.705   -11881769.22149  -9243313.87547  21007600.771    21007607.455
  21091082.949     2621034.56049   2044795.31048  21091082.268    21091088.521
  20253881.506    -9478003.72849  -7366024.73548  20253881.639    20253886.708
  23740347.573   -10668028.25349  -8298319.09446  23740346.920    23740355.479
 03  3 20 20  3 30.0000000  0  6G 6G24G10G 5G30G17
  21751737.827   -12498739.94449  -9723219.38447  21751737.516    21751743.710
  22905959.297     9883284.86449   7695024.63646  22905959.005    22905966.585
  21004543.598   -11897839.47949  -9255836.14447  21004542.708    21004549.405
  21103811.656     2687924.12949   2096916.99848  21103810.986    21103817.249
  20253345.204    -9480822.05249  -7368220.84548  20253345.311    20253350.421
  23724951.376   -10748935.83449  -8361363.92946  23724950.758    23724959.246
 03  3 20 20  4  0.0000000  0  6G 6G24G10G 5G30G17
  21740823.634   -12556094.19649  -9767910.99247  21740823.351    21740829.509
  22921669.663     9965843.15149   7759355.71546  22921669.378    22921676.942
  21001605.311   -11913280.02749  -9267867.73647  21001604.452    21001611.170
  21116623.837     2755252.44449   2149380.57548  21116623.166    21116629.454
  20252920.685    -9483052.89849  -7369959.17948  20252920.815    20252925.923
  23709592.037   -10829649.65549  -8424257.79046  23709591.401    23709599.873
 03  3 20 20  4 30.0000000  0  6G 6G24G10G 5G30G17
  21729931.855   -12613330.91349  -9812511.01747  21729931.571    21729937.747
  22937394.423    10048476.87849   7823745.58546  22937394.102    22937401.661
  20998787.059   -11928090.00949  -9279407.97147  20998786.213    20998792.908
  21129519.190     2823017.78749   2202184.70048  21129518.509    21129524.827
  20252608.038    -9484695.93849  -7371239.48248  20252608.171    20252613.277
  23694269.630   -10910169.25449  -8487000.31546  23694268.949    23694277.485
 03  3 20 20  5  0.0000000  0  6G 6G24G10G 5G30G17
  21719062.566   -12670449.32649  -9857018.86247  21719062.306    21719068.476
  22953133.231    10131184.44449   7888192.98346  22953132.917    22953140.443
  20996088.874   -11942269.14749  -9290456.64547  20996088.041    20996094.709
  21142497.322     2891217.99849   2255327.66248  21142496.644    21142502.960
  20252407.242    -9485751.16349  -7372061.75148  20252407.380    20252412.486
  23678984.325   -10990494.15349  -8549591.10746  23678983.640    23678992.102
 03  3 20 20  5 30.0000000  0  6G 6G24G10G 5G30G17
  21708216.010   -12727448.44849  -9901433.74447  21708215.745    21708221.888
  22968885.683    10213963.84449   7952696.36346  22968885.351    22968892.892
  20993510.877   -11955816.76749  -9301013.23447  20993510.005    20993516.663
  21155557.857     2959851.31449   2308808.11347  21155557.182    21155563.495
  20252318.428    -9486217.97249  -7372425.51448  20252318.552    20252323.677
  23663736.190   -11070623.69049  -8612029.67946  23663735.527    23663743.966
 03  3 20 20  6  0.0000000  0  6G 6G24G10G 5G30G17
  21697392.356   -12784327.18749  -9945754.81747  21697392.088    21697398.241
  22984651.536    10296813.68449   8017254.62146  22984651.187    22984658.754
  20991053.247   -11968731.94349  -9311077.00747  20991052.327    20991058.988
  21168700.483     3028916.17549   2362624.84047  21168699.814    21168706.146
  20252341.722    -9486095.64749  -7372330.20848  20252341.855    20252346.960
  23648525.365   -11150557.03249  -8674315.36546  23648524.667    23648533.128
 03  3 20 20  6 30.0000000  0  6G 6G24G10G 5G30G17
  21686591.846   -12841084.20949  -9989981.05647  21686591.565    21686597.716
  23000430.604    10379732.94049   8081866.96546  23000430.243    23000437.815
  20988716.096   -11981013.80449  -9320647.28747  20988715.165    20988721.828
  21181924.938     3098410.90549   2416776.52247  21181924.269    21181930.619
  20252477.240    -9485383.57249  -7371775.36148  20252477.372    20252482.481
  23633352.024   -11230293.23449  -8736447.44546  23633351.321    23633359.757
 03  3 20 20  7  0.0000000  0  6G 6G24G10G 5G30G17
  21675814.560   -12897719.13449 -10034112.15847  21675814.266    21675820.419
  23016222.409    10462719.36449   8146531.65846  23016222.051    23016229.663
  20986499.463   -11992662.14549  -9329723.91647  20986498.539    20986505.207
  21195230.719     3168333.05849   2471261.26147  21195230.057    21195236.437
  20252724.955    -9484081.97749  -7370761.14348  20252725.080    20252730.211
  23618216.309   -11309831.95349  -8798425.64046  23618215.619    23618224.037
 03  3 20 20  7 30.0000000  0  6G 6G24G10G 5G30G17
  21665060.780   -12954230.63549 -10078147.08347  21665060.501    21665066.631
  23032026.768    10545771.67749   8211247.68846  23032026.440    23032034.079
  20984403.500   -12003676.42649  -9338306.47547  20984402.560    20984409.271
  21208617.584     3238681.23649   2526077.96747  21208616.920    21208623.317
  20253084.937    -9482190.31549  -7369287.13948  20253085.071    20253090.191
  23603118.366   -11389172.20949  -8860249.19146  23603117.652    23603126.063
 03  3 20 20  8  0.0000000  0  6G 6G24G10G 5G30G17
  21654330.578   -13010618.18049 -10122085.42247  21654330.299    21654336.426
  23047843.315    10628887.94249   8276013.55946  23047843.000    23047850.629
  20982428.315   -12014056.39949  -9346394.76447  20982427.338    20982434.073
  21222085.081     3309453.14149   2581224.85247  21222084.417    21222090.845
  20253557.189    -9479708.52449  -7367353.29148  20253557.314    20253562.456
  23588058.080   -11468314.43049  -8921918.42146  23588057.398    23588065.780
 03  3 20 20  8 30.0000000  0  6G 6G24G10G 5G30G17
  21643624.243   -13066880.48049 -10165926.16847  21643623.961    21643630.085
  23063671.828    10712066.99249   8340828.35046  23063671.512    23063679.121
  20980573.957   -12023801.18349  -9353988.10847  20980572.982    20980579.714
  21235632.811     3380646.93249   2636700.47747  21235632.158    21235638.606
  20254141.886    -9476636.06349  -7364959.18048  20254142.019    20254147.159
  23573035.814   -11547257.05349  -8983432.13046  23573035.097    23573043.502
 03  3 20 20  9  0.0000000  0  6G 6G24G10G 5G30G17
  21632941.837   -13123016.85049 -10209668.78247  21632941.556    21632947.647
  23079511.921    10795306.98849   8405690.63046  23079511.616    23079519.287
  20978840.516   -12032910.44949  -9361086.23647  20978839.532    20978846.292
  21249260.453     3452260.30449   2692503.04547  21249259.783    21249266.264
  20254838.935    -9472973.14449  -7362104.97048  20254839.077    20254844.228
  23558051.493   -11625999.90849  -9044790.17146  23558050.771    23558059.178
 03  3 20 20  9 30.0000000  0  6G 6G24G10G 5G30G17
  21622283.596   -13179026.11649 -10253312.34947  21622283.325    21622289.406
  23095363.270    10878606.32449   8470599.14946  23095362.993    23095370.704
  20977228.094   -12041383.76049  -9367688.82447  20977227.138    20977233.854
  21262967.582     3524291.66349   2748631.31847  21262966.924    21262973.397
  20255648.412    -9468719.33249  -7358790.32648  20255648.576    20255653.709
  23543105.389   -11704542.12149  -9105991.85246  23543104.698    23543113.091
 03  3 20 20 10  0.0000000  0  6G 6G24G10G 5G30G17
  21611649.808   -13234907.03349 -10296855.90547  21611649.536    21611655.636
  23111225.639    10961963.56849   8535552.78946  23111225.361    23111233.125
  20975736.766   -12049220.68049  -9373795.51747  20975735.800    20975742.519
  21276754.002     3596739.32249   2805083.98347  21276753.330    21276759.790
  20256570.437    -9463874.21549  -7355014.92348  20256570.588    20256575.722
  23528197.571   -11782883.17449  -9167036.79646  23528196.868    23528205.251
 03  3 20 20 10 30.0000000  0  6G 6G24G10G 5G30G17
  21601040.693   -13290658.32549 -10340298.45147  21601040.411    21601046.513
  23127098.853    11045377.64049   8600550.70846  23127098.593    23127106.399
  20974366.678   -12056420.54349  -9379405.80647  20974365.739    20974372.459
  21290619.256     3669601.54349   2861859.68347  21290618.591    21290625.044
  20257605.058    -9458437.32149  -7350778.39948  20257605.212    20257610.349
  23513328.088   -11861022.28649  -9227924.38046  23513327.452    23513335.802
 03  3 20 20 11  0.0000000  0  6G 6G24G10G 5G30G17
  21590456.296   -13346279.53849 -10383639.63847  21590456.028    21590462.132
  23142982.469    11128846.45849   8665591.29746  23142982.217    23142990.063
  20973117.755   -12062983.51949  -9384519.81747  20973116.843    20973123.562
  21304562.930     3742875.85049   2918956.48447  21304562.258    21304568.733
  20258752.192    -9452409.16249  -7346081.14648  20258752.348    20258757.493
  23498497.221   -11938959.04349  -9288654.29146  23498496.550    23498504.919
 03  3 20 20 11 30.0000000  0  6G 6G24G10G 5G30G17
  21579896.832   -13401769.71649 -10426878.71947  21579896.568    21579902.650
  23158876.128    11212368.17349   8730673.09346  23158875.864    23158883.802
  20971990.046   -12068909.49149  -9389137.46447  20971989.194    20971995.906
  21318584.606     3816560.01449   2976372.65147  21318583.951    21318590.432
  20260011.847    -9445789.77349  -7340923.19648  20260012.006    20260017.139
  23483704.960   -12016692.81849  -9349226.02346  23483704.270    23483712.669
 03  3 20 20 12  0.0000000  0  6G 6G24G10G 5G30G17
  21569362.534   -13457127.92249 -10470014.96547  21569362.271    21569368.338
  23174779.656    11295941.81349   8795795.36046  23174779.415    23174787.377
  20970983.684   -12074198.02149  -9393258.40247  20970982.851    20970989.553
  21332683.933     3890652.13949   3034106.71547  21332683.280    21332689.735
  20261384.032    -9438578.91649  -7335304.35848  20261384.186    20261389.332
  23468951.262   -12094223.66249  -9409639.62846  23468950.604    23468958.936
 03  3 20 20 12 30.0000000  0  6G 6G24G10G 5G30G17
  21558853.586   -13512352.65749 -10513047.21147  21558853.326    21558859.401
  23190692.826    11379566.00049   8860956.99646  23190692.587    23190700.597
  20970098.747   -12078848.44549  -9396882.12447  20970097.913    20970104.625
  21346860.563     3965150.36549   3092157.22047  21346859.896    21346866.350
  20262868.863    -9430776.11549  -7329224.27448  20262868.998    20262874.165
  23454236.430   -12171550.37349  -9469894.17446  23454235.801    23454244.201
 03  3 20 20 13  0.0000000  0  6G 6G24G10G 5G30G17
  21548370.198   -13567443.06749 -10555974.78847  21548369.934    21548376.026
  23206615.351    11463238.94049   8926156.64846  23206615.095    23206623.051
  20969335.162   -12082861.04849  -9400008.83247  20969334.322    20969341.046
  21361114.010     4040052.61149   3150522.54447  21361113.359    21361119.831
  20264466.270    -9422381.72449  -7322683.20648  20264466.422    20264471.590
  23439560.582   -12248672.44649  -9529989.26346  23439559.931    23439568.367
 03  3 20 20 13 30.0000000  0  6G 6G24G10G 5G30G17
  21537912.592   -13622398.06149 -10598796.84047  21537912.334    21537918.429
  23222546.728    11546958.74949   8991392.80346  23222546.475    23222554.422
  20968693.078   -12086235.37449  -9402638.18647  20968692.226    20968698.948
  21375443.945     4115356.70849   3209200.99847  21375443.288    21375449.801
  20266176.229    -9413395.85949  -7315681.24848  20266176.368    20266181.539
  23424923.713   -12325589.47449  -9589924.56846  23424923.063    23424931.514
 03  3 20 20 14  0.0000000  0  6G 6G24G10G 5G30G17
  21527480.958   -13677216.65749 -10641512.62447  21527480.695    21527486.800
  23238486.803    11630724.23349   9056664.55746  23238486.550    23238494.557
  20968172.424   -12088971.51649  -9404770.25847  20968171.567    20968178.293
  21389849.923     4191060.43649   3268190.85347  21389849.255    21389855.797
  20267998.772    -9403818.44049  -7308218.34348  20267998.936    20268004.109
  23410325.944   -12402301.21649  -9649699.91846  23410325.299    23410333.720
 03  3 20 20 14 30.0000000  0  6G 6G24G10G 5G30G17
  21517075.502   -13731897.73649 -10684121.24447  21517075.209    21517081.338
  23254435.310    11714534.24349   9121971.00346  23254435.099    23254443.090
  20967773.295   -12091069.02549  -9406404.69347  20967772.433    20967779.183
  21404331.671     4267162.28749   3327490.93947  21404331.010    21404337.576
  20269933.917    -9393649.24349  -7300294.31048  20269934.087    20269939.254
  23395767.383   -12478806.88549  -9709314.69046  23395766.747    23395775.147
 03  3 20 20 15  0.0000000  0  6G 6G24G10G 5G30G17
  21506696.417   -13786439.98149 -10726621.68047  21506696.134    21506702.276
  23270392.106    11798387.57049   9187311.19946  23270391.853    23270399.947
  20967495.756   -12092527.46149  -9407541.15147  20967494.905    20967501.628
  21418888.807     4343660.21649   3387099.65547  21418888.132    21418894.700
  20271981.685    -9382888.12849  -7291909.04248  20271981.849    20271987.039
  23381248.206   -12555105.57749  -9768768.17246  23381247.579    23381255.988
 03  3 20 20 15 30.0000000  0  6G 6G24G10G 5G30G17
  21496343.884   -13840842.84449 -10769013.51147  21496343.601    21496349.755
  23286356.767    11882282.06749   9252683.47746  23286356.471    23286364.585
  20967339.666   -12093347.78349  -9408180.37147  20967338.843    20967345.545
  21433520.763     4420551.45049   3447014.83947  21433520.093    21433526.665
  20274141.987    -9371535.85649  -7283063.13148  20274142.153    20274147.354
  23366768.390   -12631197.34149  -9828060.41546  23366767.773    23366776.148
 03  3 20 20 16  0.0000000  0  6G 6G24G10G 5G30G17
  21486018.161   -13895104.85449 -10811295.58447  21486017.879    21486024.023
  23302329.028    11966216.58549   9318086.93546  23302328.683    23302336.846
  20967305.080   -12093529.51249  -9408321.99047  20967304.267    20967310.981
  21448227.264     4497834.32149   3507235.20247  21448226.602    21448233.195
  20276414.799    -9359592.08849  -7273756.31748  20276414.950    20276420.179
  23352328.082   -12707081.57049  -9887190.95546  23352327.460    23352335.858
 03  3 20 20 16 30.0000000  0  6G 6G24G10G 5G30G17
  21475719.376   -13949225.32949 -10853467.37247  21475719.089    21475725.258
  23318308.597    12050189.56649   9383520.37746  23318308.251    23318316.443
  20967392.094   -12093072.69949  -9407966.04147  20967391.207    20967397.930
  21463007.799     4575506.32349   3567758.78347  21463007.129    21463013.745
  20278800.071    -9347057.38949  -7263989.03648  20278800.229    20278805.463
  23337927.444   -12782757.39649  -9946159.08946  23337926.810    23337935.238
 03  3 20 20 17  0.0000000  0  6G 6G24G10G 5G30G17
  21465447.755   -14003202.99349 -10895527.88147  21465447.480    21465453.648
  23334295.288    12134199.81949   9448982.86846  23334294.964    23334303.075
  20967600.560   -12091977.23149  -9407112.44147  20967599.663    20967606.379
  21477862.019     4653565.73349   3628584.23747  21477861.376    21477868.017
  20281297.851    -9333931.58449  -7253761.15448  20281298.010    20281303.254
  23323566.411   -12858225.02749 -10004964.99546  23323565.791    23323574.188
 03  3 20 20 17 30.0000000  0  6G 6G24G10G 5G30G17
  21455203.518   -14057036.70049 -10937476.21547  21455203.232    21455209.411
  23350288.768    12218245.64549   9514473.07946  23350288.412    23350296.518
  20967930.526   -12090243.11549  -9405761.19647  20967929.654    20967936.382
  21492789.487     4732009.99949   3689709.57547  21492788.852    21492795.518
  20283908.007    -9320215.11549  -7243073.01548  20283908.143    20283913.404
  23309245.156   -12933483.63749 -10063608.02946  23309244.556    23309252.896
 03  3 20 20 18  0.0000000  0  6G 6G24G10G 5G30G17
  21444986.930   -14110725.18849 -10979311.38947  21444986.665    21444992.831
  23366288.673    12302325.72449   9579989.98346  23366288.385    23366296.449
  20968382.078   -12087870.34649  -9403912.29347  20968381.172    20968387.924
  21507789.851     4810837.15849   3751133.27947  21507789.207    21507795.878
  20286630.595    -9305907.97649  -7231924.61048  20286630.758    20286635.993
  23294963.846   -13008532.54049 -10122087.66446  23294963.223    23294971.508
 03  3 20 20 18 30.0000000  0  6G 6G24G10G 5G30G17
  21434798.168   -14164267.43349 -11021032.61847  21434797.908    21434804.036
  23382294.962    12386439.03049   9645532.75646  23382294.624    23382302.726
  20968955.112   -12084859.24349  -9401565.99147  20968954.195    20968960.955
  21522862.672     4890045.18949   3812853.75747  21522862.042    21522868.719
  20289465.525    -9291010.44149  -7220316.16348  20289465.675    20289470.890
  23280722.461   -13083371.42149 -10180403.63346  23280721.782    23280730.084
 03  3 20 20 19  0.0000000  0  6G 6G24G10G 5G30G17
  21424637.421   -14217662.49549 -11062639.15347  21424637.162    21424643.278
  23398307.219    12470583.71849   9711100.02146  23398306.929    23398314.992
  20969649.490   -12081209.98849  -9398722.43447  20969648.654    20969655.390
  21538007.511     4969631.50649   3874869.00847  21538006.858    21538013.557
  20292412.718    -9275522.88949  -7208247.95348  20292412.865    20292418.088
  23266521.094   -13157999.97249 -10238555.71646  23266520.443    23266528.656
 03  3 20 20 19 30.0000000  0  6G 6G24G10G 5G30G17
  21414505.075   -14270908.42049 -11104129.47747  21414504.817    21414510.899
  23414325.248    12554759.03049   9776691.11746  23414325.000    23414333.054
  20970465.514   -12076922.06849  -9395381.21247  20970464.619    20970471.366
  21553224.072     5049594.76249   3937177.97447  21553223.414    21553230.138
  20295472.283    -9259444.97149  -7195719.72148  20295472.427    20295477.651
  23252359.936   -13232417.07649 -10296543.02746  23252359.257    23252367.520
 03  3 20 20 20  0.0000000  0  6G 6G24G10G 5G30G17
  21404401.196   -14324004.65249 -11145503.15547  21404400.941    21404407.024
  23430348.770    12638963.04349   9842304.57846  23430348.497    23430356.529
  20971402.906   -12071996.20349  -9391542.89147  20971401.980    20971408.729
  21568511.821     5129932.27649   3999778.57747  21568511.180    21568517.902
  20298643.995    -9242777.54349  -7182732.13348  20298644.141    20298649.355
  23238238.957   -13306622.93149 -10354365.73646  23238238.312    23238246.492
 03  3 20 20 20 30.0000000  0  6G 6G24G10G 5G30G17
  21394326.061   -14376949.97149 -11186759.23447  21394325.796    21394331.841
  23446377.641    12723194.92949   9907939.76546  23446377.331    23446385.335
  20972461.531   -12066432.89249  -9387207.86147  20972460.638    20972467.403
  21583870.438     5210641.91949   4062669.14047  21583869.788    21583876.518
  20301927.847    -9225520.90549  -7169285.42148  20301927.998    20301933.205
  23224158.397   -13380616.77049 -10412023.23946  23224157.760    23224165.887
 03  3 20 20 21  0.0000000  0  6G 6G24G10G 5G30G17
  21384279.756   -14429743.66649 -11227897.17047  21384279.491    21384285.521
  23462411.380    12807452.49649   9973594.96646  23462411.042    23462419.057
  20973641.494   -12060232.20849  -9382376.16947  20973640.611    20973647.353
  21599299.337     5291720.92449   4125847.52447  21599298.667    21599305.398
  20305323.645    -9207675.86549  -7155380.21248  20305323.797    20305329.007
  23210118.144   -13454398.71249 -10469515.61946  23210117.500    23210125.618
 03  3 20 20 21 30.0000000  0  6G 6G24G10G 5G30G17
  21374262.541   -14482384.31949 -11268915.85047  21374262.266    21374268.342
  23478449.874    12891734.86149  10039269.49746  23478449.537    23478457.540
  20974942.664   -12053394.40649  -9377048.02447  20974941.810    20974948.540
  21614798.147     5373167.35349   4189312.20847  21614797.467    21614804.211
  20308831.434    -9189242.43649  -7141016.52148  20308831.588    20308836.810
  23196118.358   -13527967.77549 -10526842.12746  23196117.682    23196125.818
 03  3 20 20 22  0.0000000  0  6G 6G24G10G 5G30G17
  21364274.677   -14534870.93349 -11309814.49347  21364274.391    21364280.495
  23494492.757    12976040.63649  10104962.25346  23494492.441    23494500.445
  20976364.970   -12045920.18149  -9371223.96847  20976364.115    20976370.880
  21630366.370     5454978.71949   4253061.25947  21630365.699    21630372.455
  20312451.071    -9170221.16849  -7126194.77048  20312451.243    20312456.463
  23182159.150   -13601323.78049 -10584002.61146  23182158.495    23182166.610
 03  3 20 20 22 30.0000000  0  6G 6G24G10G 5G30G17
  21354316.339   -14587202.22949 -11350592.11047  21354316.055    21354322.163
  23510539.850    13060368.46849  10170672.21646  23510539.542    23510547.609
  20977908.392   -12037809.69849  -9364904.12647  20977907.507    20977914.243
  21646003.627     5537152.81049   4317092.95147  21646002.964    21646009.728
  20316182.425    -9150612.75949  -7110915.50748  20316182.579    20316187.838
  23168240.477   -13674466.68949 -10640997.05146  23168239.831    23168247.952
 03  3 20 20 23  0.0000000  0  6G 6G24G10G 5G30G17
  21344387.916   -14639376.40649 -11391247.29847  21344387.638    21344393.736
  23526590.908    13144717.38449  10236398.59146  23526590.600    23526598.776
  20979573.005   -12029062.69849  -9358088.30047  20979572.024    20979578.766
  21661709.582     5619688.01349   4381406.02547  21661708.931    21661715.695
  20320025.585    -9130416.81949  -7095178.43248  20320025.739    20320030.995
  23154362.571   -13747395.44449 -10697824.61446  23154361.959    23154370.003
 03  3 20 20 23 30.0000000  0  6G 6G24G10G 5G30G17
  21334489.507   -14691392.90049 -11431779.61347  21334489.221    21334495.310
  23542645.742    13229085.75949  10302140.13346  23542645.475    23542653.647
  20981358.396   -12019680.05049  -9350777.15747  20981357.478    20981364.229
  21677483.816     5702581.77849   4445998.50047  21677483.151    21677489.886
  20323980.388    -9109634.29949  -7078984.27848  20323980.531    20323985.805
  23140525.456   -13820109.84849 -10754485.14346  23140524.828    23140532.895
 03  3 20 20 24  0.0000000  0  6G 6G24G10G 5G30G17
  21324621.289   -14743250.48349 -11472188.10947  21324621.032    21324627.131
  23558704.060    13313472.66949  10367896.10746  23558703.769    23558711.997
  20983264.740   -12009662.09949  -9342970.97647  20983263.829    20983270.603
  21693325.791     5785831.65749   4510868.46347  21693325.133    21693331.874
  20328046.705    -9088265.68649  -7062333.43348  20328046.866    20328052.120
  23126729.174   -13892609.35349 -10810978.23146  23126728.539    23126736.649
 03  3 20 20 24 30.0000000  0  6G 6G24G10G 5G30G17
  21314783.556   -14794948.01849 -11512471.88647  21314783.303    21314789.410
  23574765.537    13397876.39749  10433665.18946  23574765.240    23574773.535
  20985291.872   -11999009.51349  -9334670.26647  20985290.975    20985297.753
  21709235.101     5869435.23849   4576014.04147  21709234.440    21709241.171
  20332224.394    -9066311.79649  -7045226.52548  20332224.574    20332229.836
  23112973.762   -13964894.31149 -10867304.13146  23112973.122    23112981.261
 03  3 20 20 25  0.0000000  0  6G 6G24G10G 5G30G17
  21304976.572   -14846484.20749 -11552629.94347  21304976.322    21304982.403
  23590830.037    13482295.91449  10499446.58146  23590829.789    23590838.123
  20987439.681   -11987722.68149  -9325875.33947  20987438.788    20987445.555
  21725211.297     5953390.25349   4641433.46147  21725210.619    21725217.367
  20336513.365    -9043772.99449  -7027663.84348  20336513.535    20336518.823
  23099259.373   -14036963.80249 -10923462.13646  23099258.746    23099266.897
 03  3 20 20 25 30.0000000  0  6G 6G24G10G 5G30G17
  21295200.448   -14897858.04149 -11592661.48747  21295200.190    21295206.253
  23606897.300    13566729.69149  10565239.08246  23606897.025    23606905.441
  20989708.122   -11975802.17949  -9316586.64247  20989707.208    20989713.928
  21741253.824     6037694.18349   4707124.76447  21741253.153    21741259.912
  20340913.533    -9020650.02749  -7009645.96848  20340913.698    20340919.008
  23085586.022   -14108817.75749 -10979452.17946  23085585.362    23085593.491
 03  3 20 20 26  0.0000000  0  6G 6G24G10G 5G30G17
  21285455.578   -14949067.83949 -11632565.21747  21285455.306    21285461.377
  23622967.154    13651176.98349  10631042.11946  23622966.870    23622975.277
  20992097.144   -11963248.08149  -9306804.23847  20992096.184    20992102.916
  21757362.428     6122345.29849   4773086.59747  21757361.762    21757368.567
  20345424.837    -8996943.17249  -6991173.12148  20345425.005    20345430.315
  23071953.861   -14180454.99549 -11035273.36846  23071953.229    23071961.391
 03  3 20 20 26 30.0000000  0  6G 6G24G10G 5G30G17
  21275742.047   -15000112.80649 -11672340.50547  21275741.770    21275747.817
  23639039.213    13735636.05749  10696854.34446  23639038.934    23639047.319
  20994606.419   -11950061.49149  -9296528.97847  20994605.497    20994612.253
  21773536.612     6207340.92049   4839316.88447  21773535.955    21773542.759
  20350047.068    -8972653.34949  -6972246.00848  20350047.235    20350052.536
  23058362.771   -14251876.45749 -11090926.40946  23058362.138    23058370.291
 03  3 20 20 27  0.0000000  0  6G 6G24G10G 5G30G17
  21266060.191   -15050991.20949 -11711986.00347  21266059.923    21266065.971
  23655113.409    13820106.23749  10762675.21346  23655113.156    23655121.463
  20997236.058   -11936242.81049  -9285761.18147  20997235.127    20997241.881
  21789775.992     6292679.14749   4905814.13347  21789775.342    21789782.122
  20354780.172    -8947780.86649  -6952864.87548  20354780.339    20354785.638
  23044812.993   -14323080.89549 -11146410.34846  23044812.368    23044820.567
 03  3 20 20 27 30.0000000  0  6G 6G24G10G 5G30G17
  21256410.153   -15101702.57049 -11751501.33447  21256409.874    21256415.931
  23671189.321    13904585.31249  10828503.01746  23671189.006    23671197.325
  20999985.774   -11921792.94549  -9274501.54847  20999984.853    20999991.619
  21806079.957     6378356.81449   4972575.87747  21806079.305    21806086.127
  20359623.899    -8922327.09149  -6933030.78848  20359624.066    20359629.375
  23031304.486   -14394068.39649 -11201725.24946  23031303.850    23031312.041
 03  3 20 20 28  0.0000000  0  6G 6G24G10G 5G30G17
  21246792.197   -15152245.26649 -11790885.23347  21246791.922    21246797.983
  23687266.798    13989072.60249  10894337.22246  23687266.427    23687274.736
  21002855.554   -11906712.34949  -9262750.44147  21002854.586    21002861.362
  21822448.105     6464371.79349   5039600.46047  21822447.464    21822454.296
  20364578.170    -8896292.33349  -6912743.99048  20364578.336    20364583.636
  23017837.411   -14464838.33149 -11256870.60546  23017836.783    23017844.922
 03  3 20 20 28 30.0000000  0  6G 6G24G10G 5G30G17
  21237206.573   -15202617.86949 -11830136.59847  21237206.308    21237212.366
  23703345.578    14073567.13549  10960177.07646  23703345.265    23703353.523
  21005845.212   -11891001.49849  -9250508.21847  21005844.277    21005851.077
  21838880.061     6550722.08549   5106886.32847  21838879.438    21838886.279
  20369642.871    -8869677.22449  -6892004.96648  20369643.029    20369648.335
  23004411.778   -14535390.44249 -11311846.24446  23004411.167    23004419.275
 03  3 20 20 29  0.0000000  0  6G 6G24G10G 5G30G17
  21227653.548   -15252819.32349 -11869254.60247  21227653.271    21227659.348
  23719425.530    14158067.42949  11026021.42046  23719425.124    23719433.448
  21008954.611   -11874661.46249  -9237775.72347  21008953.674    21008960.473
  21855375.348     6637405.06749   5174431.43247  21855374.729    21855381.603
  20374817.840    -8842482.80449  -6870814.53448  20374817.997    20374823.316
  22991027.621   -14605724.52049 -11366651.97946  22991026.973    22991035.084
 03  3 20 20 29 30.0000000  0  6G 6G24G10G 5G30G17
  21218133.380   -15302848.05349 -11908238.02247  21218133.112    21218139.169
  23735506.288    14242572.30949  11091869.32745  23735505.971    23735514.292
  21012183.705   -11857692.43449  -9224553.10947  21012182.789    21012189.580
  21871933.556     6724418.65649   5242234.14747  21871932.926    21871939.853
  20380102.900    -8814709.53649  -6849173.05448  20380103.058    20380108.387
  22977685.066   -14675840.06749 -11421287.43746  22977684.430    22977692.509
 03  3 20 20 30  0.0000000  0  6G 6G24G10G 5G30G17
  21208646.276   -15352702.95649 -11947085.98247  21208646.030    21208652.077
  23751587.768    14327080.91849  11157720.13845  23751587.457    23751595.740
  21015532.261   -11840095.54949  -9210841.25247  21015531.360    21015538.155
  21888554.153     6811760.34249   5310292.52547  21888553.529    21888560.497
  20385497.991    -8786358.23549  -6827081.15348  20385498.153    20385503.495
  22964384.057   -14745737.10549 -11475752.61646  22964383.418    22964391.462
 03  3 20 20 30 30.0000000  0  6G 6G24G10G 5G30G17
  21199192.592   -15402382.58549 -11985797.37047  21199192.335    21199198.353
  23767669.756    14411591.79549  11223572.73945  23767669.405    23767677.659
  21019000.241   -11821871.32149  -9196640.56047  21018999.319    21019006.130
  21905236.791     6899427.80149   5378604.74847  21905236.160    21905243.155
  20391002.938    -8757429.62849  -6804539.40848  20391003.092    20391008.449
  22951124.848   -14815414.63849 -11530046.76946  22951124.218    22951132.268
 03  3 20 20 31  0.0000000  0  6G 6G24G10G 5G30G17
  21189772.360   -15451886.17249 -12024371.57947  21189772.096    21189778.129
  23783751.986    14496104.08049  11289426.43945  23783751.611    23783759.877
  21022587.380   -11803020.91549  -9181951.93747  21022586.456    21022593.269
  21921980.862     6987418.21949   5447168.63247  21921980.239    21921987.258
  20396617.523    -8727925.01249  -6781548.82048  20396617.665    20396623.036
  22937907.275   -14884873.17849 -11584170.25946  22937906.688    22937914.750
 03  3 20 20 31 30.0000000  0  6G 6G24G10G 5G30G17
  21180385.961   -15501212.01249 -12062807.28747  21180385.684    21180391.711
  23799834.200    14580616.59649  11355280.28145  23799833.868    23799842.042
  21026293.559   -11783544.90049  -9166775.82847  21026292.620    21026299.434
  21938786.033     7075729.62049   5515982.63147  21938785.405    21938792.446
  20402341.545    -8697845.08549  -6758109.94148  20402341.703    20402347.050
  22924731.555   -14954111.89749 -11638122.48146  22924730.959    22924739.020
 03  3 20 20 32  0.0000000  0  6G 6G24G10G 5G30G17
  21171033.586   -15550359.09649 -12101103.71147  21171033.299    21171039.306
  23815916.201    14665128.04149  11421133.31245  23815915.884    23815924.092
  21030118.512   -11763444.43549  -9151113.13447  21030117.603    21030124.431
  21955651.762     7164359.32049   5585044.64547  21955651.139    21955658.199
  20408174.914    -8667190.74149  -6734223.46548  20408175.064    20408180.407
  22911597.628   -15023130.99649 -11691903.55746  22911597.061    22911605.099
 03  3 20 20 32 30.0000000  0  6G 6G24G10G 5G30G17
  21161715.449   -15599326.25649 -12139259.92847  21161715.179    21161721.183
  23831997.692    14749636.87949  11486984.31745  23831997.391    23832005.624
  21034062.159   -11742720.75749  -9134964.81647  21034061.222    21034068.031
  21972577.562     7253304.57749   5654352.56147  21972576.921    21972583.983
  20414117.315    -8635963.35449  -6709890.45748  20414117.471    20414122.805
  22898505.547   -15091930.36849 -11745513.42146  22898504.965    22898512.969
 03  3 20 20 33  0.0000000  0  6G 6G24G10G 5G30G17
  21152431.985   -15648111.13349 -12177274.11347  21152431.696    21152437.709
  23848078.691    14834142.97149  11552833.16945  23848078.389    23848086.668
  21038124.401   -11721373.53349  -9118330.61947  21038123.450    21038130.271
  21989563.133     7342563.98349   5723905.25847  21989562.492    21989569.579
  20420168.787    -8604162.64249  -6685110.70648  20420168.951    20420174.291
  22885455.476   -15160508.79449 -11798951.12246  22885454.889    22885462.891
 03  3 20 20 33 30.0000000  0  6G 6G24G10G 5G30G17
  21143183.310   -15696713.27949 -12215145.90947  21143183.029    21143189.043
  23864158.764    14918644.54549  11618678.49145  23864158.527    23864166.894
  21042304.955   -11699404.57649  -9101211.95347  21042303.996    21042310.822
  22006607.874     7432134.40549   5793700.30947  22006607.242    22006614.356
  20426329.034    -8571790.41749  -6659885.61748  20426329.196    20426334.551
  22872447.436   -15228866.39949 -11852216.74746  22872446.815    22872454.865
 03  3 20 20 34  0.0000000  0  6G 6G24G10G 5G30G17
  21133969.655   -15745131.11849 -12252874.08847  21133969.378    21133975.413
  23880237.890    15003140.66249  11684519.56045  23880237.646    23880246.051
  21046603.654   -11676814.89949  -9083609.61547  21046602.700    21046609.522
  22023711.377     7522013.55949   5863735.92347  22023710.742    22023717.858
  20432597.895    -8538847.59049  -6634215.90448  20432598.057    20432603.404
  22859481.378   -15297003.23049 -11905310.35046  22859480.761    22859488.789
 03  3 20 20 34 30.0000000  0  6G 6G24G10G 5G30G17
  21124791.345   -15793363.33649 -12290457.63047  21124791.071    21124797.106
  23896315.825    15087630.53549  11750355.77745  23896315.534    23896323.953
  21051020.335   -11653605.15549  -9065524.10647  21051019.373    21051026.190
  22040873.133     7612198.83749   5934010.07847  22040872.501    22040879.631
  20438975.114    -8505335.12749  -6608102.32548  20438975.252    20438980.631
  22846557.474   -15364918.77449 -11958231.52146  22846556.848    22846564.865
 03  3 20 20 35  0.0000000  0  6G 6G24G10G 5G30G17
  21115648.607   -15841408.89849 -12327895.72547  21115648.331    21115654.362
  23912392.308    15172112.46449  11816185.80045  23912392.005    23912400.363
  21055554.701   -11629776.90649  -9046956.64647  21055553.753    21055560.584
  22058092.622     7702687.74549   6004520.82147  22058091.991    22058099.154
  20445460.516    -8471254.22949  -6581545.80848  20445460.682    20445466.053
  22833675.594   -15432613.35949 -12010980.51146  22833674.976    22833682.954
 03  3 20 20 35 30.0000000  0  6G 6G24G10G 5G30G17
  21106541.590   -15889266.37649 -12365187.26047  21106541.325    21106547.361
  23928467.024    15256585.64449  11882008.99445  23928466.737    23928475.137
  21060206.582   -11605331.02749  -9027907.91547  21060205.633    21060212.460
  22075369.480     7793477.87949   6075266.29347  22075368.840    22075376.051
  20452053.839    -8436606.21349  -6554547.38048  20452053.998    20452059.348
  22820835.847   -15500086.35249 -12063556.85246  22820835.235    22820843.193
 03  3 20 20 36  0.0000000  0  6G 6G24G10G 5G30G17
  21097470.744   -15936933.94749 -12402330.81647  21097470.475    21097476.521
  23944539.929    15341049.24849  11947824.71845  23944539.690    23944548.110
  21064975.854   -11580268.13549  -9008378.39947  21064974.931    21064981.777
  22092703.235     7884567.09149   6146244.80647  22092702.590    22092709.809
  20458755.040    -8401391.35749  -6527107.26148  20458755.208    20458760.558
  22808038.458   -15567337.17049 -12115960.05746  22808037.814    22808045.778
 03  3 20 20 36 30.0000000  0  6G 6G24G10G 5G30G17
  21088436.108   -15984411.21249 -12439326.08047  21088435.830    21088441.882
  23960610.805    15425501.76049  12013631.81345  23960610.575    23960618.936
  21069862.224   -11554590.25049  -8988369.66447  21069861.269    21069868.128
  22110093.329     7975952.19649   6217453.88247  22110092.681    22110099.919
  20465563.703    -8365611.72549  -6499227.05648  20465563.855    20465569.211
  22795283.296   -15634366.05749 -12168190.32146  22795282.644    22795290.601
 03  3 20 20 37  0.0000000  0  6G 6G24G10G 5G30G17
  21079437.919   -16031696.90249 -12476172.06047  21079437.649    21079443.714
  23976679.241    15509941.47649  12079428.93445  23976678.981    23976687.358
  21074865.340   -11528298.63249  -8967882.69647  21074864.395    21074871.279
  22127539.202     8067630.63749   6288891.53947  22127538.544    22127545.836
  20472479.580    -8329268.69349  -6470907.83848  20472479.727    20472485.086
  22782570.248   -15701173.31649 -12220247.88746  22782569.585    22782577.598
 03  3 20 20 37 30.0000000  0  6G 6G24G10G 5G30G17
  21070476.600   -16078788.88849 -12512867.10547  21070476.333    21070482.390
  23992745.197    15594368.34449  12145216.02945  23992744.938    23992753.281
  21079985.138   -11501393.81149  -8946917.91047  21079984.211    21079991.094
  22145040.541     8159600.52049   6360556.28747  22145039.878    22145047.224
  20479502.562    -8292362.74849  -6442149.98748  20479502.715    20479508.094
  22769899.489   -15767758.29049 -12272132.24646  22769898.857    22769906.831
 03  3 20 20 38  0.0000000  0  6G 6G24G10G 5G30G17
  21061552.370   -16125686.10449 -12549410.37647  21061552.101    21061558.148
  24008808.547    15678781.22249  12210992.23045  24008808.267    24008816.589
  21085221.417   -11473877.06849  -8925476.29847  21085220.496    21085227.366
  22162596.818     8251859.08249   6432445.98047  22162596.154    22162603.521
  20486632.431    -8254895.13749  -6412954.47648  20486632.589    20486637.967
  22757271.126   -15834120.65549 -12323843.14646  22757270.489    22757278.450
 03  3 20 20 38 30.0000000  0  6G 6G24G10G 5G30G17
  21052665.492   -16172387.02349 -12585800.69047  21052665.213    21052671.268
  24024869.040    15763179.35349  12276756.94845  24024868.760    24024877.180
  21090573.906   -11445749.54649  -8903558.75747  21090572.990    21090579.883
  22180207.600     8344403.95449   6504558.76647  22180206.952    22180214.325
  20493868.940    -8216867.05949  -6383322.23948  20493869.100    20493874.471
  22744685.109   -15900260.49949 -12375380.65246  22744684.512    22744692.420
 03  3 20 20 39  0.0000000  0  6G 6G24G10G 5G30G17
  21043816.204   -16218890.16349 -12622036.89247  21043815.929    21043821.986
  24040926.414    15847561.51549  12342509.18645  24040926.143    24040934.597
  21096042.360   -11417012.56449  -8881166.31247  21096041.474    21096048.360
  22197872.389     8437232.62749   6576892.70247  22197871.733    22197879.131
  20501211.914    -8178279.65149  -6353254.15748  20501212.076    20501217.454
  22732141.569   -15966177.18249 -12426744.26746  22732140.936    22732148.868
 03  3 20 20 39 30.0000000  0  6G 6G24G10G 5G30G17
  21035004.742   -16265194.65149 -12658118.30647  21035004.479    21035010.530
  24056980.593    15931926.44349  12408248.03445  24056980.378    24056988.870
  21101626.452   -11387667.88149  -8858300.33647  21101625.559    21101632.450
  22215590.643     8530342.22749   6649445.54146  22215589.977    22215597.405
  20508660.982    -8139134.55349  -6322751.51548  20508661.159    20508666.539
  22719640.417   -16031870.99849 -12477934.22346  22719639.781    22719647.734
 03  3 20 20 40  0.0000000  0  6G 6G24G10G 5G30G17
  21026231.429   -16311298.80849 -12694043.61547  21026231.163    21026237.213
  24073031.353    16016273.41549  12473972.84345  24073031.009    24073039.600
  21107326.113   -11357716.09649  -8834961.29447  21107325.203    21107332.105
  22233361.917     8623730.41749   6722215.46246  22233361.274    22233368.676
  20516215.989    -8099432.84949  -6291815.15248  20516216.179    20516221.582
  22707181.776   -16097341.38949 -12528950.07846  22707181.135    22707189.052
 03  3 20 20 40 30.0000000  0  6G 6G24G10G 5G30G17
  21017496.414   -16357201.46549 -12729811.91447  21017496.150    21017502.192
  24089078.365    16100601.09449  12539682.63145  24089078.107    24089086.741
  21113140.970   -11327158.86649  -8811150.47947  21113140.057    21113146.953
  22251185.664     8717394.35949   6795200.24846  22251185.015    22251192.416
  20523876.600    -8059176.10049  -6260446.29148  20523876.776    20523882.206
  22694765.621   -16162588.58349 -12579792.01646  22694764.971    22694772.884
 03  3 20 20 41  0.0000000  0  6G 6G24G10G 5G30G17
  21008800.204   -16402900.44249 -12765421.49747  21008799.930    21008805.972
  24105121.786    16184909.38449  12605377.36145  24105121.671    24105130.279
  21119070.938   -11295996.79049  -8786868.35047  21119070.012    21119076.921
  22269061.577     8811332.59749   6868398.76246  22269060.930    22269068.376
  20531642.786    -8018364.72949  -6228645.25548  20531642.949    20531648.381
  22682392.129   -16227611.66549 -12630459.31646  22682391.487    22682399.399
 03  3 20 20 41 30.0000000  0  6G 6G24G10G 5G30G17
  21000142.925   -16448394.65549 -12800871.52947  21000142.654    21000148.703
  24121161.228    16269197.08749  12671055.96045  24121160.909    24121169.767
  21125115.661   -11264231.55949  -8762116.23347  21125114.737    21125121.630
  22286989.130     8905542.28049   6941808.79246  22286988.489    22286995.980
  20539514.199    -7977000.35649  -6196413.31148  20539514.360    20539519.802
  22670061.243   -16292410.72149 -12680952.05846  22670060.623    22670068.504
 03  3 20 20 42  0.0000000  0  6G 6G24G10G 5G30G17
  20991524.735   -16493683.63149 -12836161.62747  20991524.460    20991530.481
  24137196.367    16353462.37049  12736717.10545  24137196.145    24137204.993
  21131274.783   -11231865.34049  -8736895.80847  21131273.873    21131280.759
  22304967.686     9000019.75249   7015427.46546  22304967.033    22304974.531
  20547490.379    -7935085.41649  -6163752.34848  20547490.538    20547495.993
  22657772.879   -16356986.43949 -12731270.75446  22657772.251    22657780.121
 03  3 20 20 42 30.0000000  0  6G 6G24G10G 5G30G17
  20982946.105   -16538764.65449 -12871289.68548  20982945.829    20982951.856
  24153227.237    16437705.04049  12802360.69545  24153227.227    24153236.057
  21137548.203   -11198898.29349  -8711207.20947  21137547.290    21137554.166
  22322996.977     9094763.82049   7089253.86246  22322996.301    22323003.823
  20555571.302    -7892619.98249  -6130662.42848  20555571.464    20555576.940
  22645527.159   -16421337.84949 -12781414.67146  22645526.538    22645534.404
 03  3 20 20 43  0.0000000  0  6G 6G24G10G 5G30G17
  20974407.091   -16583637.45849 -12906255.49648  20974406.830    20974412.858
  24169253.597    16521923.59849  12867985.46645  24169253.604    24169262.571
  21143935.454   -11165333.09249  -8685052.51547  21143934.559    21143941.414
  22341076.289     9189770.87749   7163285.20146  22341075.635    22341083.173
  20563756.519    -7849606.46149  -6097145.43248  20563756.677    20563762.163
  22633323.998   -16485465.79749 -12831384.46546  22633323.387    22633331.228
 03  3 20 20 43 30.0000000  0  6G 6G24G10G 5G30G17
  20965907.993   -16628300.42549 -12941057.79848  20965907.724    20965913.743
  24185275.275    16606117.54549  12933591.01545  24185275.045    24185284.253
  21150436.342   -11131170.90849  -8658432.64447  21150435.428    21150442.307
  22359205.236     9285038.65949   7237519.72346  22359204.585    22359212.106
  20572045.775    -7806046.27549  -6063202.46148  20572045.939    20572051.433
  22621163.432   -16549369.89649 -12881179.82746  22621162.805    22621170.672
 03  3 20 20 44  0.0000000  0  6G 6G24G10G 5G30G17
  20957449.224   -16672751.49849 -12975694.99148  20957448.950    20957454.980
  24201291.987    16690286.18549  12999176.86145  24201291.783    24201300.938
  21157050.622   -11096412.54749  -8631348.22047  21157049.699    21157056.610
  22377383.434     9380565.14349   7311955.82646  22377382.780    22377390.358
  20580438.922    -7761940.00549  -6028833.97248  20580439.078    20580444.597
  22609045.594   -16613049.18249 -12930800.00446  22609044.974    22609052.836
 03  3 20 20 44 30.0000000  0  6G 6G24G10G 5G30G17
  20949030.931   -16716989.75549 -13010166.34548  20949030.668    20949036.702
  24217303.732    16774428.01949  13064741.86645  24217303.538    24217312.766
  21163777.976   -11061060.04849  -8603800.83247  21163777.062    21163783.976
  22395610.240     9476347.15849   7386591.04846  22395609.582    22395617.183
  20588935.607    -7717289.90849  -5994041.72048  20588935.766    20588941.252
  22596970.490   -16676504.21549 -12980245.44046  22596969.864    22596977.726
 03  3 20 20 45  0.0000000  0  6G 6G24G10G 5G30G17
  20940653.502   -16761013.43449 -13044470.49748  20940653.237    20940659.247
  24233310.320    16858542.59749  13130285.65645  24233310.108    24233319.395
  21170618.127   -11025114.82349  -8575791.58047  21170617.217    21170624.127
  22413885.295     9572382.51349   7461423.67846  22413884.621    22413892.255
  20597535.548    -7672097.00649  -5958826.50348  20597535.703    20597541.196
  22584938.143   -16739734.66449 -13029515.87947  22584937.523    22584945.360
 03  3 20 20 45 30.0000000  0  6G 6G24G10G 5G30G17
  20932317.185   -16804821.09049 -13078606.32248  20932316.909    20932322.904
  24249311.410    16942628.80849  13195807.33645  24249311.172    24249320.449
  21177570.800   -10988578.35049  -8547321.61447  21177569.893    21177576.800
  22432208.020     9668668.50449   7536451.61846  22432207.336    22432214.997
  20606238.459    -7626362.99249  -5923189.64048  20606238.618    20606244.133
  22572948.536   -16802740.45449 -13078611.25647  22572947.923    22572955.739
 03  3 20 20 46  0.0000000  0  7G 6G24G10G23G 5G30G17
  20924020.434   -16848420.84249 -13112580.14848  20924020.142    20924026.135
  24265305.257    17026676.75349  13261299.22245  24265304.940    24265314.158
  21184633.925   -10951461.61449  -8518399.49447  21184633.014    21184639.907
  24474388.999    -4843686.11549  -3758202.41645  24474388.525    24474402.581
  22450576.213     9765193.34849   7611665.67046  22450575.510    22450583.199
  20615042.325    -7580098.61949  -5887139.51448  20615042.473    20615048.011
  22560999.850   -16865531.07949 -13127538.96847  22560999.235    22561007.004
 03  3 20 20 46 30.0000000  0  7G 6G24G10G23G 5G30G17
  20915765.638   -16891799.97749 -13146382.05748  20915765.367    20915771.359
  24281293.800    17110696.73349  13326769.27345  24281293.522    24281302.485
  21191809.249   -10913755.05449  -8489017.77047  21191808.336    21191815.225
  24453657.833    -4952626.92949  -3843090.82345  24453657.366    24453671.222
  22468991.409     9861965.55949   7687072.47946  22468990.741    22468998.466
  20623948.890    -7533294.37949  -5850668.71248  20623949.047    20623954.580
  22549094.393   -16928094.79549 -13176289.87247  22549093.757    22549101.482
 03  3 20 20 47  0.0000000  0  7G 6G24G10G23G 5G30G17
  20907553.459   -16934955.25149 -13180009.53248  20907553.202    20907559.188
  24297277.175    17194689.87249  13392218.36845  24297276.857    24297285.719
  21199096.856   -10875458.65049  -8459176.43147  21199095.901    21199102.801
  24432938.756    -5061504.00649  -3927929.58745  24432938.350    24432951.855
  22487453.581     9958984.46249   7762671.50146  22487452.920    22487460.709
  20632958.282    -7485949.89049  -5813776.93848  20632958.450    20632963.980
  22537232.434   -16990429.45349 -13224862.28547  22537231.819    22537239.536
 03  3 20 20 47 30.0000000  0  7G 6G24G10G23G 5G30G17
  20899383.776   -16977887.24449 -13213463.02048  20899383.508    20899389.495
  24313254.841    17278652.79049  13457643.92045  24313254.545    24313263.416
  21206495.967   -10836576.01349  -8428878.28847  21206495.029    21206501.905
  24412231.931    -5170316.92849  -4012718.38345  24412231.545    24412244.882
  22505961.815    10056245.36749   7838459.11046  22505961.147    22505968.973
  20642069.720    -7438068.97049  -5776467.16948  20642069.872    20642075.415
  22525413.571   -17052537.86749 -13273258.40747  22525412.961    22525420.676
 03  3 20 20 48  0.0000000  0  8G 6G24G10G29G23G 5G30G17
  20891256.376   -17020597.00949 -13246743.35348  20891256.094    20891262.119
  24329226.150    17362582.34749  13523043.46445  24329225.968    24329234.727
  21214005.904   -10797111.05449  -8398126.39147  21214004.970    21214011.872
  24645274.647    -3229439.60649  -2506109.77545  24645274.442    24645289.144
  24391537.310    -5279065.63849  -4097457.17345  24391536.901    24391550.175
  22524515.113    10153743.19749   7914431.34046  22524514.433    22524522.291
  20651282.526    -7389655.68249  -5738742.56648  20651282.684    20651288.215
  22513637.343   -17114422.06149 -13321479.81347  22513636.744    22513644.468
 03  3 20 20 48 30.0000000  0  8G 6G24G10G29G23G 5G30G17
  20883172.005   -17063080.58449 -13279847.43048  20883171.721    20883177.760
  24345191.396    17446480.14649  13588418.28145  24345191.285    24345200.047
  21221626.790   -10757063.06249  -8366920.18047  21221625.854    21221632.755
  24631748.171    -3300520.40649  -2561497.08045  24631748.086    24631762.547
  24370855.873    -5387745.12349  -4182142.02845  24370855.359    24370868.669
  22543113.419    10251477.59049   7990587.89046  22543112.758    22543120.648
  20660596.760    -7340709.19149  -5700602.48148  20660596.896    20660602.442
  22501904.233   -17176079.77449 -13369524.74747  22501903.626    22501911.360
 03  3 20 20 49  0.0000000  0  8G 6G24G10G29G23G 5G30G17
  20875130.809   -17105337.32849 -13312774.75948  20875130.538    20875136.540
  24361150.380    17530344.59049  13653767.13545  24361150.226    24361158.984
  21229358.182   -10716434.54449  -8335261.61147  21229357.252    21229364.134
  24618237.276    -3371519.08049  -2616820.39045  24618237.200    24618251.570
  24350187.959    -5496353.73649  -4266771.67945  24350187.527    24350200.569
  22561756.111    10349445.26849   8066926.22846  22561755.481    22561763.394
  20670011.966    -7291231.97949  -5662048.84748  20670012.108    20670017.691
  22490214.114   -17237511.57249 -13417393.64647  22490213.509    22490221.224
 03  3 20 20 49 30.0000000  0  8G 6G24G10G29G23G 5G30G17
  20867132.942   -17147366.44749 -13345524.71548  20867132.655    20867138.664
  24377102.728    17614174.15149  13719088.81845  24377102.552    24377111.363
  21237199.493   -10675228.07649  -8303152.69247  21237198.563    21237205.435
  24604742.467    -3442433.40849  -2672077.97045  24604742.322    24604756.609
  24329533.841    -5604889.78649  -4351344.78545  24329533.306    24329546.100
  22580442.605    10447643.05749   8143443.86846  22580441.965    22580449.909
  20679527.723    -7241226.44649  -5623083.53347  20679527.881    20679533.467
  22478566.905   -17298717.88749 -13465086.83047  22478566.263    22478574.012
 03  3 20 20 50  0.0000000  0  8G 6G24G10G29G23G 5G30G17
  20859178.651   -17189166.38549 -13378096.09348  20859178.381    20859184.359
  24393048.296    17697968.13149  13784382.73845  24393048.113    24393056.889
  21245150.552   -10633445.05649  -8270594.51847  21245149.639    21245156.513
  24591264.298    -3513260.28949  -2727267.42445  24591264.123    24591278.320
  24308894.106    -5713350.38549  -4435859.11645  24308893.495    24308906.181
  22599172.457    10546068.54549   8220138.92146  22599171.789    22599179.771
  20689143.719    -7190694.07749  -5583707.70247  20689143.884    20689149.489
  22466962.597   -17359698.81849 -13512604.40847  22466961.966    22466969.699
 03  3 20 20 50 30.0000000  0  8G 6G24G10G29G23G 5G30G17
  20851268.256   -17230735.78249 -13410487.82648  20851267.988    20851273.947
  24408986.937    17781725.89049  13849648.38545  24408986.759    24408995.688
  21253210.936   -10591087.49449  -8237588.64747  21253210.029    21253216.905
  24577803.334    -3583996.89349  -2782386.51445  24577803.022    24577817.096
  24288269.090    -5821733.27849  -4520312.88945  24288268.362    24288281.030
  22617945.065    10644718.72949   8297009.08246  22617944.403    22617952.371
  20698859.605    -7139636.95949  -5543922.97447  20698859.758    20698865.366
  22455401.221   -17420453.97749 -13559946.05847  22455400.610    22455408.319
 03  3 20 20 51  0.0000000  0  8G 6G24G10G29G23G 5G30G17
  20843402.003   -17272073.16249 -13442698.76848  20843401.733    20843407.685
  24424918.491    17865446.41649  13914885.04545  24424918.330    24424927.502
  21261380.269   -10548157.51849  -8204136.74047  21261379.363    21261386.227
  24564360.123    -3654640.27249  -2837432.98345  24564359.927    24564373.724
  24267659.432    -5930035.76349  -4604704.01645  24267659.080    24267671.499
  22636759.963    10743591.14549   8374052.40546  22636759.277    22636767.276
  20708675.066    -7088056.59349  -5503730.52247  20708675.222    20708680.835
  22443882.784   -17480983.68449 -13607112.03147  22443882.144    22443889.842
 03  3 20 20 51 30.0000000  0  8G 6G24G10G29G23G 5G30G17
  20835580.144   -17313177.35649 -13474728.00748  20835579.878    20835585.819
  24440842.752    17949128.52049  13980091.87345  24440842.476    24440851.543
  21269658.168   -10504657.00549  -8170240.25747  21269657.263    21269664.116
  24550935.073    -3725187.74449  -2892404.74645  24550935.032    24550948.624
  24247065.537    -6038255.72249  -4689030.86145  24247065.247    24247077.347
  22655616.542    10842682.82549   8451266.58746  22655615.883    22655623.886
  20718589.626    -7035955.25949  -5463132.11947  20718589.779    20718595.401
  22432407.194   -17541288.44449 -13654102.72447  22432406.528    22432414.205
 03  3 20 20 52  0.0000000  0  8G 6G24G10G29G23G 5G30G17
  20827802.989   -17354046.80849 -13506574.32748  20827802.722    20827808.647
  24456759.647    18032771.46049  14045268.08045  24456759.208    24456768.237
  21278044.312   -10460587.59949  -8135900.48147  21278043.407    21278050.253
  24537528.877    -3795636.47349  -2947299.59445  24537528.743    24537542.234
  24226487.896    -6146390.56949  -4773291.39745  24226487.492    24226499.683
  22674514.387    10941991.11749   8528649.55146  22674513.701    22674521.740
  20728603.014    -6983334.65249  -5422129.09147  20728603.167    20728608.805
  22420974.369   -17601368.19049 -13700918.08747  22420973.723    22420981.376
 03  3 20 20 52 30.0000000  0  8G 6G24G10G29G23G 5G30G17
  20820070.749   -17394679.98049 -13538236.53648  20820070.475    20820076.402
  24472668.980    18116374.45149  14110413.10645  24472668.546    24472677.856
  21286538.385   -10415951.09649  -8101118.81347  21286537.467    21286544.321
  24524141.980    -3865983.32249  -3002115.02545  24524141.831    24524155.311
  24205926.955    -6254437.60449  -4857483.51845  24205926.506    24205938.758
  22693452.917    11041513.48349   8606199.33046  22693452.270    22693460.315
  20738714.913    -6930196.49749  -5380722.77947  20738715.066    20738720.699
  22409584.343   -17661222.93149 -13747558.12147  22409583.708    22409591.348
 03  3 20 20 53  0.0000000  0  8G 6G24G10G29G23G 5G30G17
  20812383.803   -17435075.18049 -13569713.31248  20812383.517    20812389.433
  24488570.670    18199937.42049  14175527.13945  24488570.327    24488579.219
  21295140.066   -10370749.20949  -8065896.58447  21295139.132    21295145.999
  24510775.103    -3936225.05149  -3056848.54145  24510774.934    24510788.465
  24185383.276    -6362394.27349  -4941605.24045  24185382.699    24185395.011
  22712431.739    11141247.52049   8683914.05046  22712431.101    22712439.192
  20748924.991    -6876542.21349  -5338914.28647  20748925.148    20748930.807
  22398237.263   -17720852.23849 -13794022.49547  22398236.643    22398244.249
 03  3 20 20 53 30.0000000  0  8G 6G24G10G29G23G 5G30G17
  20804742.339   -17475231.35049 -13601003.83448  20804742.057    20804747.978
  24504464.241    18283458.86049  14240608.66645  24504464.062    24504472.903
  21303848.835   -10324984.26049  -8030235.61047  21303847.923    21303854.757
  24497428.743    -4006359.04949  -3111498.12145  24497428.743    24497442.187
  24164857.197    -6470258.43749  -5025654.89145  24164856.509    24164868.742
  22731450.302    11241190.16449   8761791.30446  22731449.625    22731457.792
  20759232.804    -6822374.35949  -5296705.61247  20759232.962    20759238.654
  22386932.978   -17780256.40149 -13840311.42747  22386932.350    22386939.983
 03  3 20 20 54  0.0000000  0  8G 6G24G10G29G23G 5G30G17
  20797146.684   -17515146.65949 -13632106.67148  20797146.405    20797152.325
  24520349.874    18366938.40849  14305657.50945  24520349.703    24520358.837
  21312664.466   -10278657.93449  -7994137.20047  21312663.510    21312670.377
  24484103.573    -4076382.29449  -3166061.40745  24484103.449    24484117.090
  24144349.253    -6578027.37749  -5109630.35645  24144348.595    24144360.673
  22750508.145    11341339.19949   8839829.38546  22750507.441    22750515.652
  20769638.116    -6767694.37149  -5254097.87047  20769638.268    20769643.974
  22375671.616   -17839435.17149 -13886424.73547  22375670.995    22375678.602
 03  3 20 20 54 30.0000000  0  8G 6G24G10G29G23G 5G30G17
  20789597.112   -17554819.81749 -13663020.81748  20789596.852    20789602.753
  24536227.407    18450375.14249  14370673.13345  24536227.122    24536235.985
  21321586.523   -10231772.37449  -7957603.03047  21321585.593    21321592.459
  24470800.069    -4146291.68849  -3220535.99145  24470799.848    24470813.510
  24123859.822    -6685698.67849  -5193529.76245  24123859.180    24123871.107
  22769604.677    11441691.71649   8918026.02946  22769603.991    22769612.193
  20780140.428    -6712504.36849  -5211092.71547  20780140.588    20780146.290
  22364453.092   -17898388.81149 -13932362.60547  22364452.472    22364460.063
 03  3 20 20 55  0.0000000  0  8G 6G24G10G29G23G 5G30G17
  20782093.988   -17594249.08149 -13693744.92048  20782093.716    20782099.629
  24552096.763    18533768.81949  14435654.96245  24552096.377    24552105.851
  21330614.690   -10184329.16249  -7920634.32447  21330613.753    21330620.628
  24457518.792    -4216084.27349  -3274919.50045  24457518.512    24457531.978
  24103389.509    -6793269.57149  -5277350.93245  24103388.901    24103400.767
  22788739.501    11542245.38349   8996379.40246  22788738.834    22788747.001
  20790739.544    -6656805.89749  -5167691.35147  20790739.700    20790745.421
  22353277.423   -17957117.36149 -13978125.08247  22353276.799    22353284.389
 03  3 20 20 55 30.0000000  0  8G 6G24G10G29G23G 5G30G17
  20774637.501   -17633433.14649 -13724277.95648  20774637.248    20774643.139
  24567957.751    18617118.13549  14500602.44945  24567957.428    24567966.625
  21339748.538   -10136330.51549  -7883232.81147  21339747.600    21339754.494
  24444260.255    -4285757.18849  -3329209.82845  24444259.942    24444273.270
  24082938.730    -6900737.71649  -5361092.05045  24082938.100    24082949.851
  22807912.078    11642997.37349   9074887.31746  22807911.411    22807919.632
  20801434.984    -6600601.18349  -5123895.51547  20801435.146    20801440.893
  22342144.642   -18015620.56749 -14023711.97547  22342143.966    22342151.551
 03  3 20 20 56  0.0000000  0  8G 6G24G10G29G23G 5G30G17
  20767228.085   -17672370.03149 -13754618.38548  20767227.807    20767233.698
  24583810.158    18700422.94749  14565515.30845  24583810.052    24583818.741
  21348987.752   -10087778.27549  -7845399.92647  21348986.794    21348993.721
  24431025.114    -4355307.10049  -3383404.25345  24431024.884    24431038.247
  24062508.063    -7008100.25649  -5444750.89145  24062507.403    24062519.060
  22827121.959    11743945.40249   9153547.98846  22827121.283    22827129.564
  20812226.448    -6543891.81949  -5079706.44147  20812226.605    20812232.364
  22331054.709   -18073898.39249 -14069123.24447  22331054.043    22331061.600
 03  3 20 20 56 30.0000000  0  8G 6G24G10G29G23G 5G30G17
  20759865.857   -17711058.64249 -13784765.35748  20759865.584    20759871.478
  24599653.891    18783682.41849  14630392.55145  24599653.702    24599663.038
  21358331.864   -10038674.68349  -7807137.42047  21358330.915    21358337.850
  24417813.819    -4424731.45049  -3437500.89345  24417813.610    24417826.757
  24042097.894    -7115355.10449  -5528325.82945  24042097.243    24042108.756
  22846368.531    11845086.35249   9232358.98346  22846367.868    22846376.171
  20823113.502    -6486680.06949  -5035125.90247  20823113.658    20823119.434
  22320007.552   -18131951.25249 -14114359.20547  22320006.911    22320014.458
 03  3 20 20 57  0.0000000  0  8G 6G24G10G29G23G 5G30G17
  20752551.195   -17749497.54749 -13814717.75748  20752550.918    20752556.812
  24615488.887    18866895.63349  14695233.93245  24615488.601    24615497.884
  21367780.529    -9989021.67849  -7768446.80147  21367779.594    21367786.540
  24404627.091    -4494027.09249  -3491497.21745  24404626.998    24404639.901
  24021708.766    -7222499.50149  -5611814.70345  24021708.028    24021719.509
  22865651.383    11946417.73949   9311318.37246  22865650.729    22865659.044
  20834095.802    -6428967.90649  -4990155.42947  20834095.945    20834101.710
  22309003.226   -18189779.21849 -14159419.91747  22309002.599    22309010.153
 03  3 20 20 57 30.0000000  0  8G 6G24G10G29G23G 5G30G17
  20745284.318   -17787685.23049 -13844474.39448  20745284.039    20745289.951
  24631314.949    18950061.75649  14760038.63245  24631314.705    24631323.910
  21377333.333    -9938821.56849  -7729329.86647  21377332.381    21377339.297
  24391465.446    -4563191.38349  -3545391.16945  24391465.201    24391478.263
  24001341.116    -7329531.17149  -5695215.74645  24001340.338    24001351.843
  22884969.910    12047936.77949   9390423.98546  22884969.245    22884977.591
  20845172.900    -6370757.50449  -4944796.71747  20845173.057    20845178.845
  22298041.802   -18247381.81349 -14204305.01547  22298041.157    22298048.702
 03  3 20 20 58  0.0000000  0  8G 6G24G10G29G23G 5G30G17
  20738065.559   -17825620.03649 -13874033.98748  20738065.296    20738071.184
  24647131.864    19033180.34349  14824806.29145  24647131.576    24647140.679
  21386989.908    -9888076.10749  -7689787.98347  21386988.956    21386995.903
  24378329.347    -4632220.98949  -3599180.22645  24378329.095    24378342.077
  23980995.389    -7436447.29749  -5778526.77845  23980994.654    23981005.970
  22904323.665    12149641.12849   9469673.98446  22904323.016    22904331.392
  20856344.492    -6312050.48649  -4899051.03647  20856344.663    20856350.474
  22287123.217   -18304759.39749 -14249014.78847  22287122.566    22287130.115
 03  3 20 20 58 30.0000000  0  8G 6G24G10G29G23G 5G30G17
  20730895.135   -17863300.63549 -13903395.49648  20730894.870    20730900.785
  24662939.676    19116250.71049  14889536.31445  24662939.342    24662948.522
  21396749.816    -9836787.56049  -7649822.91447  21396748.849    21396755.817
  24365219.344    -4701112.89949  -3652861.99145  24365219.159    24365232.035
  23960672.165    -7543245.53849  -5861745.96545  23960671.423    23960682.634
  22923712.154    12251527.92649   9549066.14346  22923711.514    22923719.953
  20867610.145    -6252849.26949  -4852920.26247  20867610.314    20867616.141
  22276247.382   -18361911.95949 -14293549.22347  22276246.765    22276254.298
 03  3 20 20 59  0.0000000  0  8G 6G24G10G29G23G 5G30G17
  20723773.496   -17900725.20549 -13932557.49848  20723773.230    20723779.137
  24678738.308    19199272.41649  14954228.42845  24678737.975    24678747.203
  21406612.703    -9784957.76549  -7609436.09647  21406611.751    21406618.731
  24352136.226    -4769864.35549  -3706434.30445  24352136.077    24352148.944
  23940371.868    -7649923.21149  -5944871.19745  23940371.226    23940382.224
  22943134.916    12353594.70049   9628598.55746  22943134.289    22943142.767
  20878969.543    -6193155.54549  -4806405.71647  20878969.690    20878975.512
  22265414.321   -18418839.95049 -14337908.66047  22265413.715    22265421.245
 03  3 20 20 59 30.0000000  0  8G 6G24G10G29G23G 5G30G17
  20716700.776   -17937892.60449 -13961519.11048  20716700.507    20716706.424
  24694527.373    19282244.28549  15018881.72645  24694527.204    24694536.421
  21416578.075    -9732589.47249  -7568629.66947  21416577.132    21416584.113
  24339080.352    -4838472.68949  -3759895.07845  24339080.216    24339092.899
  23920094.953    -7756478.25049  -6027900.89845  23920094.344    23920105.238
  22962591.334    12455838.19649   9708268.65846  22962590.669    22962599.155
  20890422.157    -6132971.86749  -4759509.39047  20890422.301    20890428.130
  22254623.988   -18475543.48749 -14382093.19247  22254623.355    22254630.933
 03  3 20 21  0  0.0000000  0  8G 6G24G10G29G23G 5G30G17
  20709677.349   -17974800.91849 -13990278.84048  20709677.079    20709682.997
  24710306.847    19365166.10749  15083496.05145  24710306.501    24710315.753
  21426645.586    -9679684.38949  -7527404.96747  21426644.642    21426651.643
  24326052.288    -4906934.23649  -3813241.48445  24326052.204    24326064.842
  23899841.960    -7862907.78349  -6110832.79945  23899841.324    23899852.200
  22982080.945    12558256.19049   9788074.73046  22982080.277    22982088.773
  20901967.686    -6072299.84449  -4712232.53847  20901967.839    20901973.654
  22243876.416   -18532022.05149 -14426102.42247  22243875.795    22243883.374
 03  3 20 21  0 30.0000000  0  8G 6G24G10G29G23G 5G30G17
  20702703.485   -18011448.64149 -14018835.50648  20702703.237    20702709.154
  24726076.805    19448037.13549  15148070.85945  24726076.463    24726085.595
  21436814.874    -9626244.66249  -7485763.65347  21436813.933    21436820.915
  24313052.762    -4975246.25849  -3866471.40745  24313052.664    24313065.271
  23879613.269    -7969209.33149  -6193664.97645  23879612.688    23879623.547
  23001603.297    12660846.28749   9868014.91146  23001602.622    23001611.170
  20913605.747    -6011141.63749  -4664576.83747  20913605.902    20913611.733
  22233171.637   -18588275.92849 -14469936.58047  22233171.016    22233178.564
 03  3 20 21  1  0.0000000  0  8G 6G24G10G29G23G 5G30G17
  20695779.508   -18047834.50149 -14047188.12348  20695779.250    20695785.192
  24741836.948    19530856.94349  15212605.59645  24741836.603    24741845.779
  21447085.502    -9572272.29049  -7443707.28847  21447084.572    21447091.577
  24300082.206    -5043405.99749  -3919582.66845  24300082.034    24300094.711
  23859409.399    -8075380.42049  -6276395.49645  23859408.805    23859419.682
  23021157.812    12763605.54549   9948086.90146  23021157.134    23021165.699
  20925335.899    -5949499.47749  -4616544.03047  20925336.071    20925341.907
  22222509.516   -18644305.46749 -14513595.92047  22222508.887    22222516.455
 03  3 20 21  1 30.0000000  0  8G 6G24G10G29G23G 5G30G17
  20688905.661   -18083956.88849 -14075335.44348  20688905.409    20688911.349
  24757587.236    19613624.91649  15277099.98545  24757586.880    24757596.321
  21457457.009    -9517769.65249  -7401237.73647  21457456.072    21457463.091
  24287141.224    -5111410.11249  -3972572.66245  24287141.033    24287153.684
  23839230.847    -8181418.43849  -6359022.33245  23839230.285    23839241.127
  23040744.036    12866531.41749  10028288.71546  23040743.375    23040751.956
  20937157.753    -5887375.48049  -4568135.77047  20937157.917    20937163.773
  22211890.130   -18700110.57949 -14557080.39447  22211889.509    22211897.071
 03  3 20 21  2  0.0000000  0  8G 6G24G10G29G23G 5G30G17
  20682082.166   -18119814.62049 -14103276.53648  20682081.903    20682087.857
  24773327.622    19696339.87749  15341553.25645  24773327.253    24773336.152
  21467929.017    -9462739.19449  -7358356.89247  21467928.073    21467935.088
  24274230.338    -5179256.29949  -4025439.59545  24274230.190    24274242.764
  23819078.100    -8287321.18049  -6441543.77745  23819077.506    23819088.324
  23060361.469    12969620.93049  10108618.04846  23060360.804    23060369.427
  20949070.846    -5824772.05249  -4519353.92747  20949071.010    20949076.853
  22201313.423   -18755691.61749 -14600390.26047  22201312.791    22201320.338
 03  3 20 21  2 30.0000000  0  8G 6G24G10G29G23G 5G30G17
  20675309.350   -18155405.95749 -14131010.04848  20675309.091    20675315.073
  24789057.582    19779001.31749  15405964.52645  24789057.341    24789066.507
  21478501.033    -9407182.94649  -7315066.33947  21478500.114    21478507.124
  24261350.116    -5246941.31149  -4078180.94745  24261349.908    24261362.453
  23798951.645    -8393085.95049  -6523957.71845  23798951.079    23798961.759
  23080009.562    13072871.60349  10189072.94146  23080008.892    23080017.574
  20961074.707    -5761691.43249  -4470200.24847  20961074.880    20961080.753
  22190779.319   -18811048.55749 -14643525.52247  22190778.694    22190786.235
 03  3 20 21  3  0.0000000  0  8G 6G24G10G29G23G 5G30G17
  20668587.563   -18190729.14949 -14158534.61748  20668587.315    20668593.292
  24804777.379    19861608.97049  15470334.02045  24804777.089    24804786.533
  21489172.668    -9351103.26749  -7271367.91847  21489171.756    21489178.745
  24248501.242    -5314461.97149  -4130794.23545  24248501.032    24248513.444
  23778851.880    -8498710.22149  -6606262.15945  23778851.274    23778861.989
  23099687.763    13176280.83049  10269651.39046  23099687.139    23099695.910
  20973169.048    -5698135.38649  -4420676.10047  20973169.217    20973175.087
  22180287.848   -18866181.40949 -14686486.16247  22180287.217    22180294.772
 03  3 20 21  3 30.0000000  0  8G 6G24G10G29G23G 5G30G17
  20661917.152   -18225782.43349 -14185848.87448  20661916.903    20661922.895
  24820486.923    19944162.64949  15534661.52345  24820486.664    24820496.005
  21499943.569    -9294502.05749  -7227263.10647  21499942.639    21499949.611
  24235684.101    -5381815.15849  -4183277.00545  24235683.926    24235696.403
  23758779.371    -8604191.15049  -6688454.91145  23758778.770    23758789.444
  23119395.765    13279846.43149  10350351.68146  23119395.155    23119403.911
  20985353.487    -5634105.98649  -4370783.11047  20985353.642    20985359.527
  22169839.052   -18921090.07249 -14729272.11047  22169838.410    22169845.970
 03  3 20 21  4  0.0000000  0  8G 6G24G10G29G23G 5G30G17
  20655298.336   -18260564.64049 -14212951.89848  20655298.095    20655304.064
  24836186.001    20026661.42549  15598946.09445  24836185.716    24836195.212
  21510813.145    -9237382.10249  -7182754.07747  21510812.215    21510819.199
  24222899.425    -5448998.32949  -4235627.29245  24222899.216    24222911.817
  23738734.524    -8709526.60749  -6770534.31245  23738733.937    23738744.578
  23139132.939    13383565.16249  10431171.29446  23139132.332    23139141.081
  20997627.504    -5569605.70849  -4320523.20347  20997627.685    20997633.568
  22159432.823   -18975774.87649 -14771883.62947  22159432.214    22159439.769
 03  3 20 21  4 30.0000000  0  8G 6G24G10G29G23G 5G30G17
  20648731.362   -18295074.34649 -14239842.58348  20648731.101    20648737.064
  24851874.654    20109104.61649  15663187.47045  24851874.336    24851883.800
  21521781.054    -9179745.58849  -7137842.53347  21521780.132    21521787.122
  24210147.657    -5516008.48349  -4287842.80645  24210147.454    24210159.991
  23718717.830    -8814714.15449  -6852498.47945  23718717.214    23718727.961
  23158898.738    13487434.41949  10512108.20246  23158898.078    23158906.928
  21009990.665    -5504636.83149  -4269898.15247  21009990.866    21009996.762
  22149069.238   -19030235.73749 -14814320.63747  22149068.609    22149076.179
 03  3 20 21  5  0.0000000  0  8G 6G24G10G29G23G 5G30G17
  20642216.477   -18329310.26449 -14266519.92748  20642216.231    20642222.166
  24867552.424    20191491.61649  15727385.06345  24867552.211    24867561.548
  21532846.820    -9121594.69849  -7092530.17747  21532845.891    21532852.908
  24197429.420    -5582842.61449  -4339921.13545  24197429.238    24197441.601
  23698729.737    -8919751.53549  -6934345.63545  23698729.121    23698739.786
  23178692.613    13591451.50849  10593160.28846  23178692.035    23178700.866
  21022442.613    -5439201.72249  -4218909.80547  21022442.816    21022448.737
  22138748.184   -19084473.18149 -14856583.55947  22138747.564    22138755.096
 03  3 20 21  5 30.0000000  0  8G 6G24G10G29G23G 5G30G17
  20635754.176   -18363269.96449 -14292982.03448  20635753.935    20635759.875
  24883219.499    20273822.39749  15791538.70845  24883219.236    24883228.863
  21544010.086    -9062931.38849  -7046818.52947  21544009.163    21544016.204
  24184745.364    -5649497.34849  -4391859.67545  24184745.230    24184757.454
  23678770.848    -9024635.73849  -7016073.44745  23678770.229    23678780.793
  23198514.296    13695614.30049  10674325.92546  23198513.703    23198522.591
  21034982.898    -5373302.31749  -4167559.67047  21034983.094    21034989.027
  22128469.689   -19138486.92049 -14898672.15747  22128469.070    22128476.597
 03  3 20 21  6  0.0000000  0  9G 6G24G10G29G23G 5G15G30G17
  20629343.284   -18396959.50349 -14319233.63148  20629343.033    20629348.977
  24898874.382    20356089.01949  15855642.51045  24898874.078    24898883.543
  21555269.060    -9003765.25649  -7000715.07447  21555268.148    21555275.171
  24172094.484    -5715977.23149  -4443661.98245  24172094.388    24172106.555
  23658840.081    -9129371.59349  -7097685.64045  23658839.527    23658849.988
  23218361.724    13799912.49849  10755597.06846  23218361.133    23218370.071
  24767973.438    -5995533.77049  -4417918.57845  24767972.909    24767982.935
  21047609.732    -5306948.07549  -4115855.11447  21047609.933    21047615.868
  22118232.418   -19192284.08049 -14940591.99847  22118231.807    22118239.314
 03  3 20 21  6 30.0000000  0  8G 6G10G29G23G 5G15G30G17
  20622984.872   -18430373.14449 -14345270.24148  20622984.625    20622990.559
  21566624.008    -8944094.62949  -6954218.50847  21566623.088    21566630.130
  24159478.131    -5782275.02549  -4495322.37145  24159478.121    24159490.248
  23638938.763    -9233952.59549  -7179177.19145  23638938.214    23638948.683
  23238235.221    13904347.73849  10836974.99346  23238234.585    23238243.582
  24751541.189    -6081885.53449  -4485205.62145  24751540.725    24751550.579
  21060323.455    -5240137.30549  -4063794.82447  21060323.661    21060329.616
  22108037.034   -19245861.14949 -14982340.35447  22108036.435    22108043.935
 03  3 20 21  7  0.0000000  0  8G 6G10G29G23G 5G15G30G17
  20616680.738   -18463501.66549 -14371084.67948  20616680.489    20616686.437
  21578075.969    -8883914.18949  -6907324.68447  21578075.059    21578082.083
  24146898.604    -5848380.16249  -4546832.64045  24146898.530    24146910.649
  23619068.899    -9338368.56449  -7260540.15045  23619068.310    23619078.806
  23258135.738    14008924.93649  10918463.52046  23258135.117    23258144.184
  24735132.282    -6168114.84549  -4552397.23745  24735131.734    24735141.784
  21073125.028    -5172864.70749  -4011374.67347  21073125.239    21073131.218
  22097884.998   -19299210.35349 -15023911.14047  22097884.393    22097891.884
 03  3 20 21  7 30.0000000  0  8G 6G10G29G23G 5G15G30G17
  20610430.690   -18496345.78049 -14396677.49848  20610430.436    20610436.399
  21589624.016    -8823228.88149  -6860037.45147  21589623.115    21589630.144
  24134355.879    -5914292.21149  -4598192.49045  24134355.764    24134367.776
  23599230.576    -9442619.23349  -7341774.31845  23599229.953    23599240.325
  23278062.372    14113639.33749  11000058.95846  23278061.753    23278070.863
  24718746.329    -6254223.43549  -4619494.79745  24718745.788    24718755.722
  21086013.639    -5105134.80349  -3958598.17647  21086013.856    21086019.861
  22087775.751   -19352334.75149 -15065306.75547  22087775.151    22087782.654
 03  3 20 21  8  0.0000000  0  8G 6G10G29G23G 5G15G30G17
  20604234.912   -18528904.84649 -14422048.19948  20604234.655    20604240.634
  21601267.599    -8762041.71549  -6812359.16147  21601266.684    21601273.731
  24121850.118    -5980008.78549  -4649399.97445  24121850.030    24121862.038
  23579423.999    -9546703.04449  -7422878.47445  23579423.435    23579433.726
  23298014.449    14218487.30749  11081758.48946  23298013.790    23298023.001
  24702383.299    -6340211.72149  -4686498.60445  24702382.547    24702392.658
  21098988.642    -5036950.79849  -3905467.83347  21098988.854    21098994.902
  22077709.171   -19405234.84049 -15106527.58247  22077708.590    22077716.089
 03  3 20 21  8 30.0000000  0  9G 6G10G29G23G 5G15G30G17G26
  20598093.406   -18561178.70549 -14447196.65948  20598093.157    20598099.125
  21613005.937    -8700356.32349  -6764292.64547  21613005.038    21613012.093
  24109382.046    -6045528.30049  -4700453.95745  24109381.992    24109393.829
  23559649.333    -9650618.84249  -7503851.71145  23559648.795    23559659.086
  23317991.148    14323464.98449  11163559.07646  23317990.491    23317999.735
  24686043.009    -6426080.39449  -4753409.22745  24686042.329    24686052.237
  21112049.409    -4968316.16549  -3851986.35347  21112049.612    21112055.653
  22067685.123   -19457911.55349 -15147574.34847  22067684.530    22067692.008
  24277740.167    -5309077.15649  -3906744.76945  24277740.110    24277754.683
 03  3 20 21  9  0.0000000  0  9G 6G10G29G23G 5G15G30G17G26
  20592006.413   -18593166.07949 -14472121.89248  20592006.161    20592012.149
  21624838.524    -8638175.79749  -6715840.30747  21624837.626    21624844.694
  24096951.882    -6110848.11249  -4751352.28445  24096951.818    24096963.725
  23539907.079    -9754364.61149  -7584692.44745  23539906.522    23539916.745
  23337992.010    14428569.41749  11245458.42846  23337991.354    23338000.646
  24669725.383    -6511829.84649  -4820226.93345  24669724.665    24669734.675
  21125195.423    -4899233.77949  -3798155.97847  21125195.621    21125201.665
  22057703.411   -19510365.81149 -15188447.76947  22057702.820    22057710.280
  24260696.020    -5398643.41749  -3976536.34945  24260696.090    24260710.582
 03  3 20 21  9 30.0000000  0  9G 6G10G29G23G 5G15G30G17G26
  20585974.488   -18624864.05849 -14496821.61448  20585974.237    20585980.223
  21636765.176    -8575500.95449  -6667002.78447  21636764.260    21636771.354
  24084560.532    -6175964.02649  -4802091.72645  24084560.466    24084572.404
  23520197.932    -9857936.43149  -7665397.64745  23520197.357    23520207.573
  23358016.696    14533798.90949  11327455.22846  23358016.061    23358025.357
  24653430.766    -6597458.43149  -4886950.47345  24653429.926    24653440.011
  21138426.407    -4829704.62749  -3743977.47847  21138426.602    21138432.658
  22047764.180   -19562596.73249 -15229147.16047  22047763.571    22047771.024
  24243658.638    -5488174.22149  -4046300.29645  24243658.765    24243673.274
 03  3 20 21 10  0.0000000  0  9G 6G10G29G23G 5G15G30G17G26
  20579997.757   -18656271.96749 -14521295.30848  20579997.514    20580003.491
  21648785.288    -8512335.00149  -6617782.58547  21648784.369    21648791.451
  24072208.420    -6240873.92149  -4852670.67845  24072208.407    24072220.137
  23500522.268    -9961332.57249  -7745965.96245  23500521.648    23500531.832
  23378064.487    14639150.20449  11409546.94346  23378063.862    23378073.260
  24637159.133    -6682966.22849  -4953579.88745  24637158.350    24637168.379
  21151741.804    -4759731.88249  -3689453.31947  21151742.003    21151748.062
  22037867.301   -19614605.00349 -15269673.06747  22037866.712    22037874.151
  24226628.618    -5577666.69349  -4116034.39145  24226628.734    24226643.157
 03  3 20 21 10 30.0000000  0  9G 6G10G29G23G 5G15G30G17G26
  20574076.464   -18687388.69749 -14545542.11048  20574076.203    20574082.210
  21660898.269    -8448680.82549  -6568181.94347  21660897.353    21660904.458
  24059896.081    -6305575.31149  -4903087.13845  24059896.021    24059907.720
  23480880.326   -10064551.20449  -7826395.95245  23480879.686    23480889.816
  23398134.875    14744620.27649  11491731.19746  23398134.328    23398143.795
  24620910.348    -6768353.58449  -5020115.44045  24620909.589    24620919.624
  21165141.053    -4689318.59949  -3634585.88147  21165141.248    21165147.318
  22028012.621   -19666391.62049 -15310026.25047  22028012.055    22028019.505
  24209606.265    -5667118.28149  -4185736.67145  24209606.330    24209620.817
 03  3 20 21 11  0.0000000  0  9G 6G10G29G23G 5G15G30G17G26
  20568210.926   -18718212.26249 -14569560.47648  20568210.684    20568216.678
  21673103.739    -8384540.58149  -6518202.55047  21673102.823    21673109.928
  24047624.048    -6370064.91549  -4953338.54945  24047623.987    24047635.594
  23461272.667   -10167589.49349  -7906685.43145  23461272.079    23461282.171
  23418227.491    14850206.87349  11574006.26346  23418226.958    23418236.414
  24604684.761    -6853619.83549  -5086556.62645  24604683.992    24604693.815
  21178623.718    -4618466.82449  -3579376.76347  21178623.914    21178630.016
  22018200.199   -19717955.95849 -15350206.23647  22018199.628    22018207.082
  24192592.465    -5756525.36149  -4255404.27945  24192592.538    24192607.100
 03  3 20 21 11 30.0000000  0  9G 6G10G29G23G 5G15G30G17G26
  20562401.318   -18748741.80149 -14593349.72348  20562401.086    20562407.084
  21685401.065    -8319917.71449  -6467847.08747  21685400.160    21685407.257
  24035392.749    -6434340.39949  -5003423.14745  24035392.685    24035404.009
  23441699.713   -10270445.59049  -7986832.94245  23441699.189    23441709.216
  23438341.649    14955906.60049  11656369.48046  23438341.133    23438350.610
  24588482.188    -6938764.95849  -5152903.44445  24588481.249    24588491.337
  21192189.294    -4547179.47949  -3523828.23847  21192189.502    21192195.602
  22008429.995   -19769298.79049 -15390213.60447  22008429.402    22008436.874
  24175587.700    -5845885.00249  -4325034.85845  24175587.810    24175602.360
 03  3 20 21 12  0.0000000  0  9G 6G10G29G23G 5G15G30G17G26
  20556648.085   -18778975.39949 -14616908.37048  20556647.839    20556653.824
  21697789.907    -8254814.12949  -6417117.03947  21697788.993    21697796.101
  24023202.760    -6498398.24449  -5053338.16145  24023202.723    24023213.726
  23422162.029   -10373116.46449  -8066836.12245  23422161.435    23422171.488
  23458476.909    15061717.35349  11738819.19946  23458476.384    23458485.905
  24572302.822    -7023788.18549  -5219155.26845  24572301.939    24572311.882
  21205837.385    -4475458.58749  -3467941.88847  21205837.574    21205843.697
  21998701.867   -19820420.38649 -15430048.58647  21998701.266    21998708.736
  24158592.622    -5935193.50149  -4394625.64245  24158592.704    24158607.234
 03  3 20 21 12 30.0000000  0  9G 6G10G29G23G 5G15G30G17G26
  20550951.521   -18808911.21749 -14640234.98948  20550951.272    20550957.263
  21710269.806    -8189231.87749  -6366014.00847  21710268.894    21710275.997
  24011054.872    -6562235.43549  -5103081.23245  24011054.862    24011065.997
  23402660.090   -10475599.37949  -8146692.82745  23402659.546    23402669.622
  23478632.870    15167636.80649  11821353.61445  23478632.311    23478641.924
  24556146.782    -7108688.73149  -5285311.49445  24556145.994    24556155.847
  21219567.561    -4403306.25549  -3411719.35647  21219567.739    21219573.866
  21989015.919   -19871320.11949 -15469710.69447  21989015.322    21989022.793
  24141608.022    -6024447.06549  -4464173.63445  24141608.043    24141622.554
 03  3 20 21 13  0.0000000  0  9G 6G10G29G23G 5G15G30G17G26
  20545311.829   -18838547.94149 -14663328.54448  20545311.587    20545317.568
  21722840.237    -8123173.88549  -6314540.26547  21722839.321    21722846.468
  23998949.382    -6625849.25849  -5152650.23945  23998949.334    23998960.461
  23383194.352   -10577892.25049  -8226401.46245  23383193.782    23383203.888
  23498808.966    15273662.00349  11903970.43645  23498808.424    23498818.069
  24540013.941    -7193466.93249  -5351372.38545  24540013.202    24540023.066
  21233379.260    -4330725.45749  -3355162.95047  21233379.437    21233385.594
  21979372.102   -19921998.72249 -15509200.48747  21979371.508    21979378.965
  24124634.494    -6113642.81849  -4533676.52445  24124634.444    24124649.147
 03  3 20 21 13 30.0000000  0  9G 6G10G29G23G 5G15G30G17G26
  20539729.301   -18867884.29349 -14686188.04848  20539729.071    20539735.022
  21735500.729    -8056642.70249  -6262697.80747  21735499.806    21735506.977
  23986886.923    -6689237.23649  -5202043.28545  23986886.884    23986897.945
  23363765.185   -10679992.84149  -8305960.26045  23363764.553    23363774.697
  23519004.630    15379789.98349  11986667.33746  23519004.052    23519013.764
  24523904.464    -7278122.37449  -5417337.61345  24523903.694    24523913.663
  21247272.031    -4257718.72549  -3298274.65047  21247272.209    21247278.372
  21969770.300   -19972456.32049 -15548518.07647  21969769.705    21969777.167
  24107672.472    -6202777.56849  -4603131.93345  24107672.336    24107686.988
 03  3 20 21 14  0.0000000  0  9G 6G10G29G23G 5G15G30G17G26
  20534204.356   -18896918.31449 -14708811.96848  20534204.096    20534210.066
  21748250.780    -7989640.54049  -6210488.35747  21748249.880    21748257.060
  23974868.135    -6752395.85149  -5251257.60145  23974868.055    23974879.107
  23344373.144   -10781898.40449  -8385367.09746  23344372.497    23344382.646
  23539219.458    15486018.53949  12069442.61346  23539218.798    23539228.621
  24507818.523    -7362654.35749  -5483206.62045  24507817.711    24507827.893
  21261245.427    -4184288.24249  -3241056.15547  21261245.616    21261251.785
  21960210.487   -20022693.37249 -15587663.81847  21960209.893    21960217.347
  24090722.869    -6291847.62349  -4672536.89245  24090722.850    24090737.336
 03  3 20 21 14 30.0000000  0  9G 6G10G29G23G 5G15G30G17G26
  20528737.079   -18925649.01849 -14731199.54148  20528736.821    20528742.772
  21761089.836    -7922170.76949  -6157914.53347  21761088.952    21761096.149
  23962893.374    -6815322.94549  -5300291.50745  23962893.265    23962904.279
  23325018.531   -10883607.18649  -8464620.59446  23325017.916    23325028.021
  23559452.756    15592344.39949  12152293.71045  23559452.050    23559461.946
  24491756.041    -7447063.11049  -5548979.63345  24491755.371    24491765.402
  21275298.878    -4110437.18649  -3183509.94247  21275299.057    21275305.242
  21950692.623   -20072710.33749 -15626638.07047  21950692.002    21950699.434
  24073786.014    -6380850.24549  -4741889.36945  24073786.044    24073800.114
 03  3 20 21 15  0.0000000  0  9G 6G10G29G23G 5G15G30G17G26
  20523327.856   -18954074.65349 -14753349.39548  20523327.606    20523333.561
  21774017.486    -7854235.56149  -6104978.03147  21774016.592    21774023.811
  23950963.247    -6878015.29949  -5349142.48245  23950963.164    23950974.272
  23305701.825   -10985116.54449  -8543718.69646  23305701.229    23305711.312
  23579704.069    15698765.01649  12235218.63145  23579703.391    23579713.314
  24475717.070    -7531348.28249  -5614656.33145  24475716.434    24475726.345
  21289431.889    -4036167.93849  -3125637.85847  21289432.063    21289438.255
  21941216.584   -20122507.26249 -15665440.85647  21941215.952    21941223.356
  24056862.742    -6469781.76349  -4811186.34345  24056862.800    24056876.781
 03  3 20 21 15 30.0000000  0  9G 6G10G29G23G 5G15G30G17G26
  20517977.010   -18982193.65149 -14775260.30648  20517976.750    20517982.712
  21787033.199    -7785837.56249  -6051680.90447  21787032.272    21787039.533
  23939078.330    -6940470.11349  -5397808.38145  23939078.231    23939089.271
  23286423.580   -11086424.01249  -8622659.48446  23286423.015    23286433.093
  23599972.983    15805277.91249  12318215.46445  23599972.279    23599982.301
  24459701.684    -7615509.61449  -5680236.52845  24459700.961    24459710.971
  21303644.032    -3961482.86349  -3067441.75247  21303644.224    21303650.422
  21931782.412   -20172084.13449 -15704072.16547  21931781.774    21931789.173
  24039953.607    -6558638.88549  -4880425.36845  24039953.729    24039967.690
 03  3 20 21 16  0.0000000  0  9G 6G10G29G23G 5G15G30G17G26
  20512684.840   -19010004.14249 -14796930.82648  20512684.574    20512690.548
  21800136.624    -7716978.83649  -5998024.77447  21800135.690    21800142.914
  23927239.295    -7002683.83049  -5446286.40045  23927239.177    23927250.273
  23267184.356   -11187526.68349  -8701440.69046  23267183.754    23267193.831
  23620259.083    15911881.05349  12401282.62445  23620258.315    23620268.314
  24443710.045    -7699546.21049  -5745719.54245  24443709.273    24443719.287
  21317934.899    -3886384.13049  -3008923.32747  21317935.090    21317941.297
  21922390.185   -20221440.60749 -15742531.73247  21922389.536    21922396.940
  24023059.245    -6647417.75549  -4949603.53545  24023059.422    24023072.833
 03  3 20 21 16 30.0000000  0 10G 6G10G29G23G 5G15G30G18G17G26
  20507451.525   -19037505.58949 -14818360.53248  20507451.257    20507457.221
  21813326.972    -7647663.05249  -5944012.48947  21813326.069    21813333.272
  23915446.399    -7064654.74649  -5494575.22645  23915446.271    23915457.445
  23247984.327   -11288423.12549  -8780061.20246  23247983.766    23247993.767
  23640561.643    16018570.79449  12484417.24545  23640560.890    23640570.987
  24427741.949    -7783458.67149  -5811105.81345  24427741.207    24427751.192
  21332303.822    -3810875.13149  -2950085.21547  21332304.003    21332310.240
  24773889.706    -4376708.56149  -3381917.83745  24773889.444    24773901.825
  21913039.655   -20270577.99849 -15780820.58847  21913039.009    21913046.374
  24006180.349    -6736115.77149  -5018718.52345  24006180.408    24006194.315
 03  3 20 21 17  0.0000000  0 10G 6G10G29G23G 5G15G30G18G17G26
  20502276.632   -19064699.69249 -14839550.75248  20502276.359    20502282.356
  21826603.144    -7577896.17149  -5889648.70447  21826602.248    21826609.465
  23903699.771    -7126383.17649  -5542675.11645  23903699.643    23903710.720
  23228823.387   -11389114.24649  -8858521.71746  23228822.801    23228832.806
  23660879.523    16125341.11749  12567614.66645  23660878.784    23660888.965
  24411796.966    -7867249.97249  -5876397.65945  24411796.175    24411806.234
  21346749.691    -3734961.84349  -2890932.07647  21346749.873    21346756.121
  24752678.664    -4488171.27849  -3468771.37145  24752678.239    24752690.592
  21903730.049   -20319500.26349 -15818941.80747  21903729.394    21903736.756
  23989316.849    -6824732.93349  -5087770.63245  23989316.812    23989330.778
 03  3 20 21 17 30.0000000  0 10G 6G10G29G23G 5G15G30G18G17G26
  20497161.719   -19091578.75349 -14860495.47848  20497161.460    20497167.430
  21839965.882    -7507674.65249  -5834930.65447  21839964.977    21839972.212
  23892000.909    -7187860.18049  -5590579.07445  23892000.782    23892011.930
  23209703.129   -11489591.53849  -8936815.61746  23209702.508    23209712.540
  23681213.414    16232195.46649  12650877.56645  23681212.667    23681222.918
  24395876.216    -7950913.72249  -5941590.13345  24395875.447    24395885.490
  21361273.162    -3658640.71349  -2831461.13447  21361273.348    21361279.627
  24731476.572    -4599586.74149  -3555588.09245  24731476.156    24731488.450
  21894462.507   -20368201.20449 -15856890.57547  21894461.879    21894469.238
  23972470.498    -6913259.64949  -5156752.14645  23972470.624    23972484.274
 03  3 20 21 18  0.0000000  0 10G 6G10G29G23G 5G15G30G18G17G26
  20492106.895   -19118142.13149 -14881194.22148  20492106.640    20492112.625
  21853414.504    -7437001.89249  -5779860.98947  21853413.597    21853420.859
  23880350.300    -7249083.83549  -5638285.63145  23880350.148    23880361.206
  23190623.884   -11589853.58249  -9014941.78846  23190623.255    23190633.159
  23701562.588    16339130.29149  12734203.16745  23701561.870    23701572.107
  24379979.681    -8034450.53949  -6006683.70145  24379978.852    24379988.869
  21375873.581    -3581915.28949  -2771675.15947  21375873.760    21375880.051
  24710283.720    -4710953.64249  -3642367.00945  24710283.338    24710295.458
  21885237.007   -20416681.60649 -15894667.48847  21885236.366    21885243.722
  23955641.861    -7001693.54049  -5225661.40545  23955641.855    23955655.318
 03  3 20 21 18 30.0000000  0 10G 6G10G29G23G 5G15G30G18G17G26
  20487112.335   -19144388.75849 -14901646.14448  20487112.077    20487118.046
  21866948.371    -7365881.05249  -5724442.16947  21866947.457    21866954.744
  23868748.335    -7310051.62349  -5685792.78445  23868748.229    23868759.257
  23171585.897   -11689898.61749  -9092898.86946  23171585.226    23171595.053
  23721926.502    16446142.39549  12817588.99245  23721925.792    23721936.042
  24364107.227    -8117860.51249  -6071678.41645  24364106.410    24364116.479
  21390550.340    -3504788.66449  -2711576.56447  21390550.510    21390556.819
  24689100.419    -4822270.37649  -3729106.85045  24689099.983    24689111.789
  21876053.213   -20464942.64749 -15932273.47147  21876052.584    21876059.938
  23938831.522    -7090031.63649  -5294495.98745  23938831.432    23938844.880
 03  3 20 21 19  0.0000000  0 10G 6G10G29G23G 5G15G30G18G17G26
  20482178.273   -19170317.42849 -14921850.30648  20482178.013    20482183.995
  21880566.892    -7294315.12149  -5668676.52247  21880565.989    21880573.285
  23857195.550    -7370761.04949  -5733098.64445  23857195.437    23857206.446
  23152589.605   -11789724.33849  -9170685.05546  23152588.936    23152598.752
  23742304.606    16553229.03249  12901032.89245  23742303.895    23742314.231
  24348258.974    -8201143.48049  -6136574.16145  24348258.271    24348268.255
  21405302.911    -3427263.64149  -2651167.52747  21405303.087    21405309.411
  24667927.067    -4933534.81449  -3815805.96045  24667926.681    24667938.311
  21866911.070   -20512984.80749 -15969708.89247  21866910.433    21866917.806
  23922039.976    -7178270.85549  -5363253.54545  23922039.947    23922053.394
 03  3 20 21 19 30.0000000  0 10G 6G10G29G23G 5G15G30G18G17G26
  20477304.897   -19195927.25549 -14941806.01848  20477304.657    20477310.632
  21894269.575    -7222307.31349  -5612566.55647  21894268.673    21894275.931
  23845692.418    -7431209.91049  -5780201.45745  23845692.241    23845703.151
  23133635.367   -11889329.11049  -9248299.05546  23133634.728    23133644.513
  23762696.224    16660386.86349  12984532.24945  23762695.498    23762705.950
  24332434.760    -8284300.07849  -6201371.44645  24332434.027    24332444.054
  21420130.633    -3349343.63649  -2590450.71547  21420130.822    21420137.163
  24646763.998    -5044745.44649  -3902463.16145  24646763.602    24646774.953
  21857810.417   -20560809.10949 -16006974.56147  21857809.783    21857817.137
  23905267.734    -7266408.35349  -5431931.84345  23905267.798    23905281.179
 03  3 20 21 20  0.0000000  0 10G 6G10G29G23G 5G15G30G18G17G26
  20472492.563   -19221216.05449 -14961511.57748  20472492.309    20472498.296
  21908055.976    -7149859.68349  -5556113.87747  21908055.049    21908062.283
  23834239.449    -7491394.97749  -5827098.72845  23834239.270    23834250.156
  23114723.762   -11988709.88449  -9325738.51646  23114723.081    23114732.907
  23783100.985    16767613.83449  13068085.48745  23783100.303    23783110.755
  24316634.662    -8367329.41949  -6266069.54445  24316633.934    24316643.941
  21435033.140    -3271030.75249  -2529427.77247  21435033.325    21435039.674
  24625611.654    -5155899.36249  -3989076.21145  24625611.295    24625622.680
  21848751.398   -20608414.53549 -16044069.67947  21848750.755    21848758.076
  23888515.620    -7354440.24949  -5500527.83745  23888515.645    23888529.005
 03  3 20 21 20 30.0000000  0 10G 6G10G29G23G 5G15G30G18G17G26
  20467741.550   -19246182.94549 -14980966.30148  20467741.298    20467747.273
  21921925.431    -7076975.34249  -5499320.90347  21921924.488    21921931.690
  23822837.184    -7551313.71249  -5873788.49145  23822836.974    23822847.793
  23095855.097   -12087864.96249  -9403002.10446  23095854.483    23095864.209
  23803518.409    16874907.08349  13151690.36845  23803517.727    23803528.199
  24300858.874    -8450231.59549  -6330668.57645  24300858.146    24300868.094
  21450009.823    -3192328.07849  -2468101.09847  21450010.027    21450016.369
  24604470.550    -5266994.69249  -4075643.57745  24604470.131    24604481.502
  21839733.761   -20655802.38549 -16080995.27047  21839733.127    21839740.460
  23871784.274    -7442363.39149  -5569039.09745  23871784.308    23871797.702
 03  3 20 21 21  0.0000000  0 10G 6G10G29G23G 5G15G30G18G17G26
  20463052.048   -19270826.49249 -15000169.06548  20463051.794    20463057.756
  21935877.423    -7003657.14249  -5442189.85347  21935876.479    21935883.677
  23811486.146    -7610963.34649  -5920268.55445  23811485.862    23811496.652
  23077029.811   -12186792.05349  -9480088.05146  23077029.216    23077038.898
  23823947.874    16982263.73749  13235344.65645  23823947.154    23823957.752
  24285107.319    -8533006.59549  -6395168.49545  24285106.690    24285116.477
  21465060.197    -3113238.26649  -2406472.75347  21465060.388    21465066.735
  24583341.037    -5378029.46749  -4162163.80445  24583340.518    24583351.915
  21830757.503   -20702972.90949 -16117751.51447  21830756.872    21830764.158
  23855074.141    -7530174.59649  -5637463.13745  23855074.167    23855087.558
 03  3 20 21 21 30.0000000  0 10G 6G10G29G23G 5G15G30G18G17G26
  20458424.394   -19295144.87349 -15019118.45448  20458424.128    20458430.115
  21949911.445    -6929907.76149  -5384722.82647  21949910.513    21949917.744
  23800186.792    -7670340.75049  -5966536.48545  23800186.544    23800197.272
  23058248.470   -12285488.44649  -9556994.21346  23058247.887    23058257.544
  23844388.876    17089681.25949  13319046.37345  23844388.213    23844398.869
  24269380.027    -8615653.70949  -6459568.75745  24269379.418    24269389.064
  21480183.746    -3033763.74349  -2344544.62247  21480183.918    21480190.301
  24562223.484    -5489001.02349  -4248634.78845  24562223.027    24562234.184
  21821822.637   -20749926.06949 -16154338.37747  21821822.007    21821829.287
  23838386.053    -7617869.98949  -5705796.91445  23838386.088    23838399.554
 03  3 20 21 22  0.0000000  0 10G 6G10G29G23G 5G15G30G18G17G26
  20453859.000   -19319136.30149 -15037813.07748  20453858.748    20453864.717
  21964027.111    -6855729.45849  -5326921.57347  21964026.161    21964033.422
  23788939.874    -7729442.99449  -6012590.02945  23788939.640    23788950.355
  23039511.426   -12383951.66149  -9633718.68346  23039510.859    23039520.522
  23864841.078    17197157.36549  13402793.72145  23864840.454    23864851.136
  24253677.165    -8698172.40749  -6523868.97545  24253676.570    24253686.207
  21495380.049    -2953906.99749  -2282318.65647  21495380.228    21495386.613
  24541118.462    -5599907.10049  -4335054.75145  24541117.908    24541129.180
  21812929.070   -20796662.01249 -16190755.97847  21812928.444    21812935.730
  23821720.692    -7705446.11549  -5774037.80145  23821720.706    23821734.054
 03  3 20 21 22 30.0000000  0 10G 6G10G29G23G 5G15G30G18G17G26
  20449356.020   -19342799.71949 -15056252.10248  20449355.766    20449361.724
  21978223.839    -6781125.34749  -5268788.52347  21978222.903    21978230.157
  23777745.771    -7788267.63649  -6058427.24945  23777745.589    23777756.147
  23020819.159   -12482179.63549  -9710259.84746  23020818.579    23020828.247
  23885303.942    17304689.11549  13486584.43945  23885303.298    23885314.019
  24237998.733    -8780562.76349  -6588069.18245  24237998.063    24238007.742
  21510648.482    -2873671.09549  -2219797.23847  21510648.658    21510655.043
  24520026.290    -5710745.50449  -4421421.98945  24520025.740    24520036.918
  21804076.739   -20843181.25149 -16227004.72047  21804076.122    21804083.410
  23805078.649    -7792899.84649  -5842183.29145  23805078.677    23805092.002
 03  3 20 21 23  0.0000000  0 10G 6G10G29G23G 5G15G30G18G17G26
  20444915.771   -19366133.44749 -15074434.22848  20444915.500    20444921.458
  21992501.083    -6706097.92849  -5210325.62147  21992500.149    21992507.412
  23766605.102    -7846811.73849  -6104045.86445  23766604.853    23766615.464
  23002172.188   -12580169.96749  -9786615.82446  23002171.598    23002181.239
  23905776.825    17412274.05349  13570416.58145  23905776.204    23905786.991
  24222344.755    -8862824.65149  -6652169.26545  24222344.050    24222353.795
  21525988.626    -2793058.61149  -2156982.38347  21525988.798    21525995.175
  24498947.533    -5821513.87449  -4507734.68545  24498947.082    24498957.977
  21795265.640   -20889483.78649 -16263084.59647  21795265.012    21795272.304
  23788460.502    -7880227.42249  -5910230.49045  23788460.541    23788473.828
 03  3 20 21 23 30.0000000  0 10G 6G10G29G23G 5G15G30G18G17G26
  20440538.522   -19389136.08449 -15092358.35348  20440538.250    20440544.224
  22006858.404    -6630649.75649  -5151534.86147  22006857.470    22006864.744
  23755518.329    -7905072.48549  -6149443.66845  23755518.068    23755528.597
  22983570.825   -12677920.39849  -9862784.87346  22983570.236    22983579.805
  23926259.428    17519909.60549  13654288.18545  23926258.775    23926269.627
  24206715.314    -8944957.64649  -6716168.91245  24206714.590    24206724.327
  21541399.870    -2712072.22849  -2093876.18047  21541400.039    21541406.450
  24477882.588    -5932210.13549  -4593991.21545  24477882.085    24477892.862
  21786495.701   -20935570.09349 -16298995.98847  21786495.073    21786502.344
  23771867.069    -7967425.47749  -5978176.80245  23771867.220    23771880.236
 03  3 20 21 24  0.0000000  0 10G 6G10G29G23G 5G15G30G18G17G26
  20436224.509   -19411806.40849 -15110023.54348  20436224.246    20436230.212
  22021295.202    -6554783.96749  -5092418.68947  22021294.265    22021301.538
  23744485.966    -7963047.39449  -6194618.77145  23744485.725    23744496.080
  22965015.432   -12775428.96349  -9938765.45846  22965014.851    22965024.397
  23946750.978    17627592.66449  13738196.79945  23946750.319    23946761.322
  24191110.408    -9026961.94949  -6780068.28945  24191109.584    24191119.424
  21556881.666    -2630715.16249  -2030481.14247  21556881.831    21556888.258
  24456831.734    -6042832.27849  -4680189.98845  24456831.208    24456841.885
  21777766.671   -20981441.22449 -16334739.71047  21777766.056    21777773.314
  23755298.823    -8054491.03849  -6046019.82745  23755298.880    23755312.028
 03  3 20 21 24 30.0000000  0 10G 6G10G29G23G 5G15G30G18G17G26
  20431974.117   -19434142.31049 -15127428.13648  20431973.849    20431979.799
  22035810.987    -6478503.06749  -5032979.05647  22035810.046    22035817.310
  23733508.532    -8020733.38349  -6239568.71245  23733508.305    23733518.587
  22946506.639   -12872692.77749 -10014555.32346  22946506.035    22946515.570
  23967251.244    17735321.21249  13822140.84645  23967250.618    23967261.612
  24175530.112    -9108836.76249  -6843866.76845  24175529.269    24175539.021
  21572433.622    -2548989.58549  -1966798.95247  21572433.775    21572440.179
  24435795.406    -6153377.77849  -4766329.05245  24435794.912    24435805.536
  21769078.729   -21027096.54949 -16370315.26747  21769078.091    21769085.357
  23738756.557    -8141420.10849  -6113756.49045  23738756.561    23738769.769
 03  3 20 21 25  0.0000000  0 10G 6G10G29G23G 5G15G30G18G17G26
  20427787.616   -19456142.51049 -15144571.14648  20427787.347    20427793.289
  22050405.251    -6401809.73249  -4973218.04647  22050404.353    22050411.588
  23722586.719    -8078127.33849  -6284291.09945  23722586.486    23722596.673
  22928044.873   -12969709.52349 -10090152.67146  22928044.295    22928053.750
  23987759.622    17843092.61949  13906118.28145  23987759.069    23987770.080
  24159974.455    -9190581.83449  -6907564.15945  24159973.728    24159983.280
  21588055.137    -2466898.22949  -1902831.73547  21588055.300    21588061.716
  24414774.044    -6263844.34149  -4852406.60845  24414773.575    24414784.121
  21760431.838   -21072536.17549 -16405722.75447  21760431.197    21760438.469
  23722240.932    -8228209.24149  -6181384.17945  23722241.015    23722253.946
 03  3 20 21 25 30.0000000  0 10G 6G10G29G23G 5G15G30G18G17G26
  20423665.291   -19477805.61449 -15161451.48548  20423665.011    20423670.948
  22065077.467    -6324706.85349  -4913137.91647  22065076.555    22065083.787
  23711720.915    -8135226.88149  -6328784.07445  23711720.717    23711730.817
  22909630.512   -13066477.13449 -10165555.88746  22909629.924    22909639.391
  24008275.647    17950903.98949  13990126.85845  24008275.067    24008286.208
  24144443.520    -9272197.11749  -6971160.40045  24144442.800    24144452.266
  21603745.694    -2384443.99749  -1838581.75847  21603745.848    21603752.276
  24393768.153    -6374229.71949  -4938420.92145  24393767.716    24393778.271
  21751825.890   -21117760.68449 -16440962.61147  21751825.245    21751832.494
  23705752.689    -8314855.00749  -6248900.11445  23705752.738    23705765.597
 03  3 20 21 26  0.0000000  0 10G 6G10G29G23G 5G15G30G18G17G26
  20419607.398   -19499129.95749 -15178067.84948  20419607.120    20419613.074
  22079827.166    -6247196.86449  -4852740.56247  22079826.274    22079833.490
  23700911.729    -8192029.04949  -6373045.32445  23700911.511    23700921.537
  22891264.032   -13162993.18149 -10240763.08646  22891263.459    22891272.874
  24028798.865    18058753.12349  14074164.85745  24028798.419    24028809.513
  24128937.350    -9353682.31449  -7034655.27945  24128936.595    24128946.029
  21619504.800    -2301629.45649  -1774051.02547  21619504.968    21619511.427
  24372778.205    -6484531.65749  -5024370.21245  24372777.758    24372788.156
  21743260.867   -21162770.07449 -16476034.84847  21743260.244    21743267.482
  23689292.231    -8401353.91949  -6316301.61245  23689292.224    23689305.261
 03  3 20 21 26 30.0000000  0 10G 6G10G29G23G 5G15G30G18G17G26
  20415614.161   -19520114.59549 -15194419.51348  20415613.875    20415619.825
  22094653.661    -6169283.18449  -4792028.64247  22094652.760    22094659.975
  23690159.528    -8248531.76549  -6417073.22245  23690159.215    23690169.209
  22872945.756   -13259255.94649 -10315772.92546  22872945.160    22872954.545
  24049328.738    18166637.05749  14158229.97045  24049328.226    24049339.452
  24113455.914    -9435037.63449  -7098048.95945  24113455.112    24113464.589
  21635331.826    -2218458.13949  -1709242.29647  21635331.981    21635338.505
  24351804.443    -6594748.37349  -5110253.12445  24351803.988    24351814.277
  21734736.605   -21207565.31649 -16510940.21047  21734735.975    21734743.240
  23672860.407    -8487702.99349  -6383586.40145  23672860.521    23672873.433
 03  3 20 21 27  0.0000000  0 10G 6G10G29G23G 5G15G30G18G17G26
  20411685.918   -19540757.42449 -15210504.83148  20411685.654    20411691.584
  22109556.592    -6090967.95049  -4731003.82547  22109555.683    22109562.930
  23679464.957    -8304731.41649  -6460864.96045  23679464.648    23679474.652
  22854676.241   -13355262.45549 -10390583.07646  22854675.608    22854684.984
  24069864.770    18274553.59649  14242320.48945  24069864.210    24069875.559
  24097999.310    -9516262.25549  -7161340.80145  24097998.633    24098008.020
  21651226.412    -2134931.74649  -1644156.89047  21651226.587    21651233.123
  24330847.524    -6704876.90649  -5196067.31345  24330847.045    24330857.205
  21726253.070   -21252146.42649 -16545678.71547  21726252.449    21726259.718
  23656457.848    -8573897.95349  -6450751.10545  23656457.876    23656470.736
 03  3 20 21 27 30.0000000  0 10G 6G10G29G23G 5G15G30G18G17G26
  20407823.040   -19561057.02249 -15226322.70248  20407822.768    20407828.693
  22124535.372    -6012254.00649  -4669668.32847  22124534.434    22124541.698
  23668828.525    -8360625.47549  -6504418.59945  23668828.282    23668838.258
  22836455.895   -13451010.49249 -10465191.82146  22836455.291    22836464.668
  24090406.528    18382500.15049  14326434.39045  24090405.929    24090417.304
  24082567.664    -9597355.80749  -7224530.50445  24082566.975    24082576.388
  21667187.993    -2051053.41649  -1578797.25647  21667188.178    21667194.703
  24309907.791    -6814914.97449  -5281811.03445  24309907.352    24309917.379
  21717810.295   -21296513.42249 -16580250.38547  21717809.663    21717816.967
  23640085.243    -8659935.47649  -6517793.13845  23640085.329    23640097.920
 03  3 20 21 28  0.0000000  0 10G 6G10G29G23G 5G15G30G18G17G26
  20404025.709   -19581012.10349 -15241872.11348  20404025.437    20404031.372
  22139589.449    -5933144.22849  -4608024.39147  22139588.532    22139595.807
  23658250.710    -8416211.35749  -6547732.06545  23658250.484    23658260.417
  22818285.141   -13546498.00849 -10539597.57846  22818284.570    22818293.903
  24110953.543    18490473.88849  14410569.48345  24110952.834    24110964.391
  24067160.955    -9678318.44049  -7287618.20845  24067160.302    24067169.695
  21683215.983    -1966826.19249  -1513165.75247  21683216.162    21683222.702
  24288985.594    -6924860.59749  -5367482.72945  24288985.215    24288995.004
  21709408.181   -21340666.62249 -16614655.45447  21709407.540    21709414.841
  23623743.201    -8745812.30349  -6584709.91145  23623743.323    23623755.797
 03  3 20 21 28 30.0000000  0 10G 6G10G29G23G 5G15G30G18G17G26
  20400294.297   -19600620.81749 -15257151.62948  20400294.010    20400299.934
  22154718.399    -5853641.19849  -4546074.02347  22154717.488    22154724.766
  23647732.162    -8471486.05749  -6590803.05645  23647731.946    23647741.827
  22800164.451   -13641722.38349 -10613798.28346  22800163.855    22800173.167
  24131505.197    18598472.48049  14494723.90745  24131504.546    24131516.096
  24051779.191    -9759149.80649  -7350603.61145  24051778.501    24051787.979
  21699309.900    -1882252.27449  -1447264.10547  21699310.090    21699316.650
  24268081.514    -7034711.36749  -5453080.50145  24268081.128    24268090.772
  21701046.728   -21384606.21349 -16648894.07847  21701046.108    21701053.395
  23607432.490    -8831524.49249  -6651498.44445  23607432.686    23607445.138
 03  3 20 21 29  0.0000000  0 10G 6G10G29G23G 5G15G30G18G17G26
  20396628.918   -19619882.46749 -15272160.70448  20396628.638    20396634.560
  22169921.567    -5773748.33749  -4483819.89247  22169920.633    22169927.909
  23637273.258    -8526447.49649  -6633629.97345  23637272.986    23637282.815
  22782094.145   -13736682.19849 -10687792.84546  22782093.555    22782102.800
  24152061.040    18706492.86449  14578895.32345  24152060.436    24152071.940
  24036422.366    -9839849.99249  -7413486.80245  24036421.702    24036431.192
  21715469.128    -1797335.31449  -1381095.13747  21715469.313    21715475.916
  24247195.785    -7144465.38049  -5538602.90645  24247195.297    24247205.069
  21692725.770   -21428333.02349 -16682966.89247  21692725.149    21692732.461
  23591153.650    -8917069.31549  -6718156.55145  23591153.945    23591166.321
 03  3 20 21 29 30.0000000  0 10G 6G10G29G23G 5G15G30G18G17G26
  20393030.056   -19638794.53849 -15286897.38048  20393029.769    20393035.715
  22185198.496    -5693467.64249  -4421263.55447  22185197.557    22185204.853
  23626874.595    -8581092.16349  -6676210.02645  23626874.256    23626884.084
  22764074.783   -13831374.13449 -10761578.67446  22764074.150    22764083.405
  24172620.726    18814533.46749  14663082.50045  24172620.162    24172631.594
  24021090.726    -9920417.88449  -7476266.89445  24021090.065    24021099.612
  21731693.297    -1712077.07649  -1314660.23747  21731693.462    21731700.105
  24226329.074    -7254119.66149  -5624047.59145  24226328.612    24226338.241
  21684445.387   -21471846.63249 -16716873.58247  21684444.761    21684452.067
  23574907.564    -9002442.37549  -6784680.81745  23574907.902    23574920.263
 03  3 20 21 30  0.0000000  0 10G 6G10G29G23G 5G15G30G18G17G26
  20389497.845   -19657356.29349 -15301361.08548  20389497.575    20389503.550
  22200548.630    -5612802.26249  -4358407.46247  22200547.701    22200555.029
  23616536.628    -8635417.80149  -6718541.52645  23616536.313    23616546.003
  22746106.670   -13925796.71649 -10835154.61246  22746106.089    22746115.287
  24193183.628    18922591.10949  14747282.95145  24193183.067    24193194.571
  24005784.219   -10000853.97949  -7538944.32245  24005783.482    24005793.119
  21747981.704    -1626481.28949  -1247962.30947  21747981.875    21747988.544
  24205481.631    -7363672.72849  -5709413.42945  24205481.224    24205490.801
  21676205.472   -21515147.55349 -16750614.54347  21676204.846    21676212.160
  23558694.682    -9087640.81049  -6851069.00945  23558694.956    23558707.228
 03  3 20 21 30 30.0000000  0 10G 6G10G29G23G 5G15G30G18G17G26
  20386032.691   -19675565.87249 -15315550.36648  20386032.413    20386038.405
  22215971.525    -5531754.60149  -4295253.49147  22215970.594    22215977.921
  23606259.870    -8689421.64349  -6760622.28145  23606259.597    23606269.190
  22728190.367   -14019947.26649 -10908518.59746  22728189.762    22728198.904
  24213749.312    19030663.61649  14831494.96945  24213748.650    24213760.300
  23990502.789   -10081158.03149  -7601518.84245  23990502.071    23990511.645
  21764333.921    -1540550.16549  -1181003.07347  21764334.085    21764340.804
  24184654.044    -7473121.93449  -5794698.32345  24184653.542    24184663.021
  21668006.032   -21558235.75849 -16784189.75747  21668005.412    21668012.709
  23542515.758    -9172660.76749  -6917318.11945  23542516.046    23542528.149
 03  3 20 21 31  0.0000000  0 10G 6G10G29G23G 5G15G30G18G17G26
  20382634.643   -19693422.73349 -15329464.80148  20382634.366    20382640.358
  22231466.505    -5450328.24849  -4231804.44247  22231465.577    22231472.880
  23596044.782    -8743101.53649  -6802450.57345  23596044.499    23596054.025
  22710326.086   -14113824.47549 -10981669.58146  22710325.459    22710334.558
  24234317.220    19138747.48349  14915715.84245  24234316.581    24234328.219
  23975246.461   -10161330.38249  -7663990.72745  23975245.713    23975255.344
  21780749.274    -1454287.38849  -1113785.40747  21780749.431    21780756.163
  24163846.438    -7582465.73449  -5879901.09345  24163845.958    24163855.385
  21659846.868   -21601112.59249 -16817600.25247  21659846.240    21659853.524
  23526371.397    -9257499.32749  -6983425.86945  23526371.542    23526383.780
 03  3 20 21 31 30.0000000  0 10G 6G10G29G23G 5G15G30G18G17G26
  20379304.162   -19710924.49049 -15343102.53048  20379303.882    20379309.864
  22247033.176    -5368525.19049  -4168061.85346  22247032.210    22247039.564
  23585891.992    -8796453.91749  -6844023.67545  23585891.697    23585901.254
  22692514.390   -14207425.15249 -11054605.07846  22692513.780    22692522.871
  24254886.988    19246841.04949  14999944.26945  24254886.391    24254898.120
  23960015.374   -10241369.91849  -7726359.14345  23960014.667    23960024.239
  21797227.367    -1367694.79849  -1046310.75447  21797227.513    21797234.265
  24143059.503    -7691701.05649  -5965019.34445  24143059.059    24143068.359
  21651728.072   -21643777.20249 -16850845.37847  21651727.431    21651734.705
  23510262.334    -9342152.34549  -7049389.04445  23510262.454    23510274.650
 03  3 20 21 32  0.0000000  0 10G 6G10G29G23G 5G15G30G18G17G26
  20376041.398   -19728070.38849 -15356462.97348  20376041.110    20376047.101
  22262670.841    -5286348.83449  -4104028.39146  22262669.874    22262677.234
  23575801.897    -8849476.84749  -6885340.04245  23575801.652    23575811.139
  22674755.610   -14300747.74749 -11127323.88946  22674755.004    22674764.095
  24275457.963    19354941.09549  15084177.74145  24275457.430    24275469.123
  23944809.501   -10321276.81249  -7788624.18445  23944808.874    23944818.450
  21813767.504    -1280776.03949   -978581.94547  21813767.653    21813774.422
  24122293.515    -7800826.20249  -6050051.75145  24122292.984    24122302.399
  21643649.345   -21686231.01749 -16883926.24747  21643648.714    21643655.977
  23494189.177    -9426616.76149  -7115205.24345  23494189.231    23494201.409
 03  3 20 21 32 30.0000000  0 10G 6G10G29G23G 5G15G30G18G17G26
  20372846.691   -19744858.79749 -15369544.85148  20372846.422    20372852.397
  22278379.017    -5203802.05649  -4039706.26946  22278378.070    22278385.425
  23565775.063    -8902167.62349  -6926397.60145  23565774.744    23565784.181
  22657050.180   -14393790.00749 -11199824.26046  22657049.571    22657058.636
  24296029.788    19463045.20849  15168414.38645  24296029.128    24296041.051
  23929628.901   -10401050.99249  -7850785.81645  23929628.203    23929637.853
  21830369.239    -1193533.77149   -910601.06447  21830369.420    21830376.201
  24101548.901    -7909838.99749  -6134996.61045  24101548.385    24101557.833
  21635610.698   -21728474.25149 -16916843.02147  21635610.059    21635617.334
  23478152.529    -9510889.16249  -7180871.82745  23478152.613    23478164.666
 03  3 20 21 33  0.0000000  0 10G 6G10G29G23G 5G15G30G18G17G26
  20369720.391   -19761287.58849 -15382346.51048  20369720.106    20369726.087
  22294157.285    -5120886.82549  -3975097.05346  22294156.357    22294163.694
  23555812.048    -8954522.67949  -6967193.56045  23555811.761    23555821.226
  22639398.664   -14486548.83549 -11272103.77446  22639398.081    22639407.155
  24316601.937    19571151.72449  15252652.88545  24316601.317    24316613.394
  23914473.714   -10480691.61049  -7912843.36845  23914473.005    23914482.684
  21847032.153    -1105969.98249   -842369.65347  21847032.324    21847039.117
  24080826.307    -8018736.31949  -6219851.48745  24080825.821    24080835.211
  21627612.308   -21770506.11049 -16949595.09247  21627611.656    21627618.921
  23462153.250    -9594965.09749  -7246385.29545  23462153.260    23462165.394
 03  3 20 21 33 30.0000000  0 10G 6G10G29G23G 5G15G30G18G17G26
  20366662.627   -19777356.26049 -15394867.55548  20366662.363    20366668.307
  22310004.940    -5037606.89949  -3910203.65446  22310004.016    22310011.358
  23545913.234    -9006540.54949  -7007726.77845  23545912.954    23545922.386
  22621801.312   -14579023.00949 -11344161.47746  22621800.724    22621809.842
  24337173.920    19679257.20149  15336890.56045  24337173.255    24337185.520
  23899343.861   -10560199.25549  -7974797.31345  23899343.169    23899352.747
  21863755.519    -1018088.54749   -773890.69947  21863755.687    21863762.513
  24060125.981    -8127516.96049  -6304615.46145  24060125.432    24060134.764
  21619653.891   -21812327.68649 -16982183.30847  21619653.256    21619660.512
  23446191.834    -9678842.00249  -7311743.68145  23446191.849    23446203.899
 03  3 20 21 34  0.0000000  0 10G 6G10G29G23G 5G15G30G18G17G26
  20363673.776   -19793062.84449 -15407106.45048  20363673.492    20363679.447
  22325921.585    -4953964.56549  -3845027.85746  22325920.657    22325928.064
  23536079.131    -9058217.87349  -7047994.63645  23536078.942    23536088.420
  22604258.617   -14671210.00149 -11415995.39946  22604258.008    22604267.119
  24357745.384    19787359.59749  15421125.83245  24357744.704    24357757.016
  23884239.375   -10639573.46449  -8036647.27345  23884238.705    23884248.237
  21880538.836     -929891.98849   -705166.18947  21880538.998    21880545.844
  24039448.323    -8236177.95249  -6389286.20145  24039447.827    24039457.154
  21611735.491   -21853939.09849 -17014607.76147  21611734.847    21611742.115
  23430269.063    -9762515.92649  -7376943.89945  23430269.103    23430281.079
 03  3 20 21 34 30.0000000  0 10G 6G10G29G23G 5G15G30G18G17G26
  20360754.007   -19808406.26349 -15419062.36148  20360753.743    20360759.694
  22341906.603    -4869962.82549  -3779572.00846  22341905.700    22341913.136
  23526310.327    -9109552.50649  -7087995.49145  23526310.155    23526319.546
  22586770.892   -14763108.08049 -11487604.20446  22586770.304    22586779.372
  24378315.780    19895456.11249  15505356.52445  24378315.153    24378327.484
  23869160.340   -10718814.10449  -8098393.16345  23869159.644    23869169.157
  21897381.587     -841383.21249   -636198.36847  21897381.748    21897388.603
  24018793.801    -8344717.57649  -6473862.36545  24018793.316    24018802.653
  21603856.983   -21895340.78349 -17046868.79347  21603856.341    21603863.576
  23414385.504    -9845983.58149  -7441983.37145  23414385.560    23414397.590
 03  3 20 21 35  0.0000000  0 10G 6G10G29G23G 5G15G30G18G17G26
  20357903.698   -19823384.71949 -15430733.88748  20357903.427    20357909.392
  22357959.536    -4785604.32649  -3713838.16046  22357958.627    22357966.084
  23516607.219    -9160541.51449  -7127727.00946  23516607.092    23516616.492
  22569338.676   -14854714.58549 -11558985.79846  22569338.093    22569347.150
  24398884.597    20003544.51749  15589580.88445  24398883.973    24398896.344
  23854106.829   -10797920.78649  -8160034.67145  23854106.086    23854115.579
  21914283.214     -752564.90049   -566989.35747  21914283.377    21914290.253
  23998162.876    -8453132.90649  -6558341.69345  23998162.428    23998171.725
  21596018.447   -21936532.56149 -17078966.25647  21596017.818    21596025.034
  23398541.922    -9929241.16849  -7506859.16145  23398542.006    23398553.976
 03  3 20 21 35 30.0000000  0 10G 6G10G29G23G 5G15G30G18G17G26
  20355123.061   -19837996.99049 -15442120.07748  20355122.792    20355128.764
  22374079.835    -4700892.08549  -3647828.67346  22374078.927    22374086.358
  23506970.431    -9211182.45349  -7167187.32045  23506970.284    23506979.747
  22551962.360   -14946027.51749 -11630138.64246  22551961.792    22551970.787
  24419451.394    20111622.24449  15673796.92045  24419450.796    24419463.245
  23839078.791   -10876893.50649  -8221571.80345  23839078.039    23839087.487
  21931243.178     -663440.06949   -497541.51347  21931243.346    21931250.257
  23977555.932    -8561422.28649  -6642722.86245  23977555.514    23977564.818
  21588219.638   -21977515.48049 -17110900.97847  21588219.007    21588226.211
  23382739.001   -10012285.30749  -7571568.63745  23382739.047    23382750.934
 03  3 20 21 36  0.0000000  0 10G 6G10G29G23G 5G15G30G18G17G26
  20352412.336   -19852241.90849 -15453220.01548  20352412.068    20352418.030
  22390266.849    -4615828.98849  -3581545.78146  22390265.951    22390273.376
  23497400.329    -9261472.91849  -7206374.53545  23497400.159    23497409.613
  22534642.256   -15037044.95349 -11701061.21246  22534641.653    22534650.644
  24440015.715    20219686.46249  15758002.43745  24440015.079    24440027.459
  23824076.191   -10955732.32849  -8283004.58745  23824075.456    23824084.854
  21948260.854     -574011.81649   -427857.25447  21948261.035    21948267.957
  23956973.418    -8669583.47649  -6727004.15845  23956973.013    23956982.276
  21580460.492   -22018289.80249 -17142673.14947  21580459.869    21580467.091
  23366977.294   -10095112.65049  -7636109.16645  23366977.359    23366989.240
 03  3 20 21 36 30.0000000  0 10G 6G10G29G23G 5G15G30G18G17G26
  20349771.787   -19866118.00849 -15464032.56348  20349771.516    20349777.487
  22406520.114    -4530417.78749  -3514991.63746  22406519.190    22406526.635
  23487897.415    -9311410.39149  -7245286.69646  23487897.237    23487906.682
  22517378.803   -15127764.64349 -11771751.78246  22517378.203    22517387.179
  24460576.905    20327734.80949  15842195.57545  24460576.254    24460588.749
  23809099.129   -11034437.07249  -8344332.89145  23809098.424    23809107.812
  21965335.706     -484283.07349   -357938.85247  21965335.864    21965342.860
  23936415.764    -8777614.12049  -6811183.74645  23936415.335    23936424.624
  21572741.041   -22058855.75749 -17174282.95247  21572740.443    21572747.662
  23351257.428   -10177719.82849  -7700478.10845  23351257.501    23351269.423
 03  3 20 21 37  0.0000000  0 10G 6G10G29G23G 5G15G30G18G17G26
  20347201.786   -19879623.61349 -15474556.41548  20347201.516    20347207.494
  22422839.109    -4444661.11849  -3448168.29946  22422838.202    22422845.692
  23478462.245    -9360991.89949  -7283921.50246  23478462.000    23478471.483
  22500172.450   -15218184.25549 -11842208.53046  22500171.855    22500180.804
  24481134.700    20435765.12749  15926374.66545  24481134.083    24481146.720
  23794147.747   -11113007.15449  -8405556.28645  23794147.025    23794156.297
  21982467.323     -394256.22649   -287788.15347  21982467.494    21982474.509
  23915883.406    -8885511.84249  -6895259.76745  23915883.009    23915892.152
  21565061.274   -22099213.20949 -17205730.29547  21565060.659    21565067.878
  23335580.291   -10260102.71549  -7764672.28745  23335580.384    23335592.220
 03  3 20 21 37 30.0000000  0 10G 6G10G29G23G 5G15G30G18G17G26
  20344702.500   -19892757.40149 -15484790.54048  20344702.226    20344708.191
  22439223.273    -4358561.91149  -3381078.05846  22439222.380    22439229.906
  23469095.258    -9410214.97049  -7322276.98946  23469095.004    23469104.472
  22483023.578   -15308301.91549 -11912429.99746  22483022.947    22483031.887
  24501688.515    20543774.67749  16010537.56945  24501687.874    24501700.660
  23779222.013   -11191442.37249  -8466674.58745  23779221.297    23779230.466
  21999655.009     -303934.49249   -217407.67447  21999655.186    21999662.210
  23895376.717    -8993274.66449  -6979230.66945  23895376.295    23895385.358
  21557421.129   -22139362.47649 -17237015.41947  21557420.498    21557427.723
  23319946.468   -10342258.13249  -7828689.23545  23319946.528    23319958.297
 03  3 20 21 38  0.0000000  0 10G 6G10G29G23G 5G15G30G18G17G26
  20342274.302   -19905517.56549 -15494733.53048  20342274.037    20342280.022
  22455672.070    -4272122.98749  -3313723.08846  22455671.172    22455678.707
  23459796.995    -9459076.86849  -7360351.06346  23459796.801    23459806.230
  22465932.586   -15398115.05849 -11982414.17346  22465931.989    22465940.910
  24522237.942    20651761.19849  16094682.51645  24522237.298    24522250.126
  23764321.983   -11269742.48449  -8527687.61745  23764321.273    23764330.393
  22016898.385     -213320.34849   -146799.34747  22016898.538    22016905.590
  23874896.181    -9100900.01449  -7063094.45345  23874895.744    23874904.771
  21549820.507   -22179303.86349 -17268138.56747  21549819.890    21549827.114
  23304356.645   -10424182.14749  -7892525.85745  23304356.630    23304368.415
 03  3 20 21 38 30.0000000  0 10G 6G10G29G23G 5G15G30G18G17G26
  20339917.283   -19917903.86849 -15504385.20148  20339917.018    20339923.002
  22472184.921    -4185347.56249  -3246105.91746  22472184.021    22472191.573
  23450567.820    -9507575.93849  -7398142.40546  23450567.620    23450577.030
  22448899.805   -15487622.65049 -12052160.26246  22448899.191    22448908.107
  24542782.345    20759721.45149  16178807.00345  24542781.685    24542794.711
  23749447.503   -11347908.28049  -8588595.99345  23749446.740    23749455.879
  22034196.665     -122417.71949    -75966.20647  22034196.823    22034203.879
  23854442.000    -9208386.55349  -7146850.07345  23854441.644    23854450.644
  21542259.276   -22219038.33249 -17299100.47347  21542258.665    21542265.873
  23288811.271   -10505872.34949  -7956180.26545  23288811.212    23288822.988
 03  3 20 21 39  0.0000000  0 10G 6G10G29G23G 5G15G30G18G17G26
  20337631.878   -19929913.67749 -15513743.49948  20337631.641    20337637.631
  22488761.428    -4098237.40749  -3178227.92146  22488760.545    22488768.111
  23441408.417    -9555708.58849  -7435648.25246  23441408.261    23441417.538
  22431925.792   -15576821.34549 -12121665.66646  22431925.152    22431934.034
  24563321.496    20867653.95849  16262909.84945  24563320.856    24563333.943
  23734598.823   -11425938.36549  -8649398.59945  23734598.109    23734607.173
  22051549.539      -31228.15749     -4909.48247  22051549.690    22051556.797
  23834014.941    -9315730.86549  -7230494.88045  23834014.565    23834023.488
  21534737.488   -22258565.43849 -17329900.79447  21534736.882    21534744.065
  23273311.332   -10587323.79349  -8019648.66045  23273311.332    23273323.007
 03  3 20 21 39 30.0000000  0 10G 6G10G29G23G 5G15G30G18G17G26
  20335418.288   -19941546.18349 -15522807.79948  20335418.043    20335424.025
  22505401.002    -4010796.11649  -3110091.88346  22505400.106    22505407.663
  23432319.058    -9603472.79249  -7472866.98446  23432318.913    23432328.190
  22415010.846   -15665709.56749 -12190929.15746  22415010.221    22415019.054
  24583854.836    20975555.94249  16346988.92545  24583854.242    24583867.256
  23719775.966   -11503833.07049  -8710095.73545  23719775.251    23719784.268
  22068956.267       60244.58249     66367.89247  22068956.439    22068963.537
  23813615.362    -9422931.06049  -7314027.39945  23813614.918    23813623.844
  21527255.034   -22297885.92049 -17360540.10347  21527254.422    21527261.597
  23257857.371   -10668533.62549  -8082928.75445  23257857.401    23257868.989
 03  3 20 21 40  0.0000000  0 11G 6G10G29G23G16G 5G15G30G18G17G26
  20333276.046   -19952803.72549 -15531579.92248  20333275.796    20333281.789
  22522102.354    -3923030.18749  -3041702.89846  22522101.423    22522109.006
  23423299.684    -9650869.63249  -7509799.45546  23423299.527    23423308.749
  22398154.712   -15754288.87249 -12259951.92946  22398154.081    22398162.902
  24758043.397    -5882414.53649  -4569270.85945  24758043.024    24758050.133
  24604381.227    21083421.30449  16431039.46245  24604380.482    24604393.850
  23704978.124   -11581595.96049  -8770690.14945  23704977.415    23704986.449
  22086415.689      151994.20649    137861.02847  22086415.872    22086422.961
  23793242.899    -9529988.63149  -7397448.78345  23793242.431    23793251.251
  21519811.204   -22337003.68049 -17391021.44447  21519810.575    21519817.751
  23242449.453   -10749501.98949  -8146020.71345  23242449.418    23242460.967
 03  3 20 21 40 30.0000000  0 11G 6G10G29G23G16G 5G15G30G18G17G26
  20331206.026   -19963681.81549 -15540056.36748  20331205.779    20331211.770
  22538865.557    -3834938.90949  -2973060.37746  22538864.668    22538872.219
  23414351.233    -9697893.58949  -7546441.36746  23414351.062    23414360.274
  22381358.330   -15842553.96349 -12328729.84546  22381357.739    22381366.516
  24741740.906    -5968085.02549  -4636027.14645  24741740.489    24741747.720
  24624900.787    21191250.88349  16515062.11845  24624899.996    24624913.552
  23690206.040   -11659223.56949  -8831179.15045  23690205.362    23690214.363
  22103927.838      244020.91049    209570.06047  22103928.019    22103935.130
  23772898.650    -9636898.13449  -7480754.79245  23772898.215    23772906.892
  21512406.476   -22375915.62449 -17421342.41747  21512405.851    21512413.000
  23227088.754   -10830221.97449  -8208919.14945  23227088.652    23227100.200
 03  3 20 21 41  0.0000000  0 11G 6G10G29G23G16G 5G15G30G18G17G26
  20329208.922   -19974176.69549 -15548234.20948  20329208.682    20329214.662
  22555690.564    -3746523.09649  -2904164.97646  22555689.681    22555697.255
  23405474.675    -9744539.78049  -7582788.94346  23405474.527    23405483.649
  22364622.583   -15930500.62649 -12397259.61946  22364621.995    22364630.762
  24725499.501    -6053434.07349  -4702532.93345  24725499.123    24725506.380
  24645413.505    21299044.45149  16599056.70945  24645412.717    24645426.262
  23675460.125   -11736713.58749  -8891560.93445  23675459.471    23675468.445
  22121492.590      336324.03749    281494.48947  22121492.779    22121499.945
  23752583.406    -9743655.14649  -7563941.98645  23752583.009    23752591.568
  21505041.257   -22414620.11949 -17451501.74247  21505040.630    21505047.776
  23211776.386   -10910688.09149  -8271619.75245  23211776.262    23211787.741
 03  3 20 21 41 30.0000000  0 11G 6G10G29G23G16G 5G15G30G18G17G26
  20327284.812   -19984287.87649 -15556113.06348  20327284.574    20327290.556
  22572576.599    -3657786.54049  -2835019.64246  22572575.721    22572583.297
  23396670.338    -9790806.67649  -7618840.95346  23396670.132    23396679.269
  22347947.652   -16018127.72849 -12465540.39846  22347947.058    22347955.805
  24709319.635    -6138460.14649  -4768787.03145  24709319.115    24709326.607
  24665918.679    21406798.50149  16683020.48645  24665918.030    24665931.790
  23660740.266   -11814066.75649  -8951836.07945  23660739.621    23660748.540
  22139109.227      428899.69749    353631.28047  22139109.423    22139116.611
  23732297.363    -9850258.65349  -7647009.55045  23732296.913    23732305.522
  21497715.288   -22453118.27249 -17481500.28547  21497714.672    21497721.801
  23196512.835   -10990897.59649  -8334120.42445  23196512.709    23196524.090
 03  3 20 21 42  0.0000000  0 11G 6G10G29G23G16G 5G15G30G18G17G26
  20325433.917   -19994014.50649 -15563692.26748  20325433.675    20325439.668
  22589523.031    -3568732.58749  -2765626.98746  22589522.149    22589529.750
  23387938.471    -9836692.29149  -7654595.86946  23387938.307    23387947.356
  22331333.853   -16105433.68849 -12533570.93046  22331333.240    22331341.958
  24693201.549    -6223161.65549  -4834788.20845  24693201.053    24693208.187
  24686415.797    21514510.10749  16766951.18945  24686415.260    24686428.953
  23646046.314   -11891283.41649  -9012004.85545  23646045.673    23646054.627
  22156777.064      521744.51549    425977.79647  22156777.262    22156784.472
  23712040.898    -9956706.78149  -7729956.05545  23712040.436    23712048.959
  21490428.470   -22491410.72649 -17511338.54047  21490427.837    21490434.980
  23181298.613   -11070847.46349  -8396418.77445  23181298.601    23181309.835
 03  3 20 21 42 30.0000000  0 11G 6G10G29G23G16G 5G15G30G18G17G26
  20323656.395   -20003355.58349 -15570971.04348  20323656.136    20323662.130
  22606529.338    -3479364.16049  -2695989.28946  22606528.416    22606536.034
  23379279.624    -9882194.53949  -7690052.05246  23379279.482    23379288.440
  22314781.454   -16192416.83249 -12601349.91846  22314780.859    22314789.497
  24677145.675    -6307535.89449  -4900534.35545  24677145.098    24677152.340
  24706904.369    21622176.70549  16850846.83245  24706903.726    24706917.558
  23631378.331   -11968363.73749  -9072067.38045  23631377.708    23631386.679
  22174495.529      614855.34649    498531.58447  22174495.756    22174502.971
  23691814.392   -10062997.42849  -7812779.85445  23691813.918    23691822.440
  21483180.664   -22529497.88949 -17541016.83947  21483180.054    21483187.225
  23166134.475   -11150534.43249  -8458512.28445  23166134.469    23166145.601
 03  3 20 21 43  0.0000000  0 11G 6G10G29G23G16G 5G15G30G18G17G26
  20321952.522   -20012309.65049 -15577948.24648  20321952.275    20321958.247
  22623594.942    -3389683.97649  -2626108.66546  22623594.032    22623601.641
  23370694.199    -9927310.90149  -7725207.55846  23370694.016    23370702.973
  22298290.886   -16279075.11749 -12668875.77146  22298290.285    22298298.918
  24661152.656    -6391580.10549  -4966023.33545  24661152.110    24661159.375
  24727383.940    21729795.95949  16934705.57145  24727383.388    24727397.063
  23616736.369   -12045307.30249  -9132023.36945  23616735.725    23616744.794
  22192264.110      708229.40749    571290.49547  22192264.315    22192271.540
  23671618.275   -10169128.40449  -7895479.23045  23671617.830    23671626.325
  21475971.830   -22567380.48549 -17570535.72947  21475971.225    21475978.376
  23151021.107   -11229954.81749  -8520398.07945  23151021.102    23151032.125
 03  3 20 21 43 30.0000000  0 11G 6G10G29G23G16G 5G15G30G18G17G26
  20320322.465   -20020875.77149 -15584623.15748  20320322.224    20320328.200
  22640719.220    -3299695.15249  -2555987.53146  22640718.347    22640725.944
  23362182.668    -9972039.18649  -7760060.66146  23362182.438    23362191.376
  22281862.486   -16365406.73149 -12736147.06346  22281861.888    22281870.476
  24645222.791    -6475292.43549  -5031253.69545  24645222.048    24645229.316
  24747853.965    21837365.20749  17018525.34945  24747853.476    24747867.234
  23602120.410   -12122114.47849  -9191873.05745  23602119.643    23602128.823
  22210082.145      801863.41249    644251.98547  22210082.340    22210089.563
  23651452.897   -10275097.72149  -7978052.63845  23651452.450    23651460.983
  21468801.776   -22605059.20849 -17599895.75847  21468801.168    21468808.329
  23135959.019   -11309105.46249  -8582073.67945  23135959.049    23135969.989
 03  3 20 21 44  0.0000000  0 11G 6G10G29G23G16G 5G15G30G18G17G26
  20318766.469   -20029052.58349 -15590994.71048  20318766.211    20318772.212
  22657901.706    -3209400.54549  -2485628.12846  22657900.852    22657908.448
  23353745.365   -10016376.95249  -7794609.45346  23353745.189    23353754.076
  22265496.634   -16451409.78449 -12803162.33547  22265496.028    22265504.581
  24629356.432    -6558670.39849  -5096223.48645  24629355.763    24629363.071
  24768314.080    21944882.00249  17102304.27345  24768313.732    24768327.334
  23587530.508   -12198785.07149  -9251616.33145  23587529.703    23587538.893
  22227949.082      895754.41449    717413.73647  22227949.271    22227956.535
  23631318.693   -10380903.14649  -8060498.33845  23631318.259    23631326.767
  21461670.505   -22642534.08549 -17629096.94447  21461669.905    21461677.063
  23120949.016   -11387982.92749  -8643536.43645  23120949.070    23120959.796
 03  3 20 21 44 30.0000000  0 11G 6G10G29G23G16G 5G15G30G18G17G26
  20317284.801   -20036839.00049 -15597062.05548  20317284.557    20317290.550
  22675141.863    -3118803.10549  -2415032.76246  22675141.046    22675148.585
  23345382.821   -10060322.10449  -7828852.31746  23345382.588    23345391.440
  22249193.631   -16537082.38349 -12869920.11347  22249193.054    22249201.539
  24613554.225    -6641711.59349  -5160930.85845  24613553.661    24613560.916
  24788763.705    22052343.73649  17186040.28345  24788763.475    24788776.985
  23572966.479   -12275319.18949  -9311253.24345  23572965.715    23572974.955
  22245864.309      989899.37049    790773.34247  22245864.478    22245871.811
  23611216.060   -10486542.66649  -8142814.74445  23611215.626    23611224.220
  21454578.025   -22679805.35649 -17658139.48147  21454577.415    21454584.566
  23105991.611   -11466583.65149  -8704783.53745  23105991.725    23106002.363
 03  3 20 21 45  0.0000000  0 11G 6G10G29G23G16G 5G15G30G18G17G26
  20315877.658   -20044233.59349 -15602824.08248  20315877.411    20315883.416
  22692439.146    -3027905.53249  -2344203.50546  22692438.301    22692445.849
  23337095.433   -10103872.03449  -7862787.20946  23337095.216    23337103.978
  22232953.906   -16622422.41649 -12936418.74747  22232953.277    22232961.774
  24597816.566    -6724413.45949  -5225373.83945  24597816.006    24597823.325
  24809202.462    22159748.13849  17269731.59245  24809202.056    24809215.958
  23558428.593   -12351716.44349  -9370783.52745  23558427.809    23558437.014
  22263827.333     1084295.27049    864328.49547  22263827.503    22263834.846
  23591145.437   -10592013.97449  -8225000.09245  23591145.010    23591153.597
  21447524.253   -22716873.18649 -17687023.48447  21447523.618    21447530.788
  23091087.535   -11544904.20949  -8765812.32445  23091087.653    23091098.271
 03  3 20 21 45 30.0000000  0 10G 6G10G29G23G16G15G30G18G17G26
  20314545.501   -20051234.08749 -15608279.02048  20314545.253    20314551.279
  22709793.257    -2936709.37649  -2273141.60746  22709792.368    22709799.946
  23328883.874   -10147023.47749  -7896411.59846  23328883.680    23328892.384
  22216777.994   -16707426.91849 -13002655.91447  22216777.385    22216785.859
  24582144.091    -6806772.54849  -5289549.69245  24582143.746    24582150.763
  23543916.937   -12427975.61549  -9430206.21545  23543916.116    23543925.290
  22281837.761     1178940.47149    938077.90946  22281837.954    22281845.287
  23571107.479   -10697313.76449  -8307051.78945  23571107.073    23571115.677
  21440509.269   -22753737.19649 -17715748.66847  21440508.645    21440515.787
  23076237.696   -11622939.93349  -8826619.19745  23076237.764    23076248.281
 03  3 20 21 46  0.0000000  0 10G 6G10G29G23G16G15G30G18G17G26
  20313288.453   -20057840.05949 -15613426.52948  20313288.203    20313294.231
  22727203.386    -2845218.75249  -2201850.24146  22727202.475    22727210.020
  23320748.467   -10189774.92249  -7929724.29446  23320748.282    23320756.901
  22200666.173   -16792094.79749 -13068630.78347  22200665.569    22200674.042
  24566537.129    -6888787.30649  -5353457.24945  24566536.721    24566543.545
  23529431.357   -12504097.40649  -9489521.84045  23529430.554    23529439.751
  22299894.893     1273831.03949   1012018.51146  22299895.114    22299902.474
  23551102.408   -10802440.69449  -8388968.79146  23551101.982    23551110.570
  21433532.896   -22790398.26649 -17744315.70947  21433532.274    21433539.400
  23061442.540   -11700688.29749  -8887202.14545  23061442.576    23061453.020
 03  3 20 21 46 30.0000000  0 10G 6G10G29G23G16G15G30G18G17G26
  20312106.545   -20064051.11149 -15618266.31548  20312106.281    20312112.323
  22744668.888    -2753437.34149  -2130332.28946  22744667.964    22744675.512
  23312689.405   -10232124.83249  -7962724.10346  23312689.231    23312697.911
  22184618.530   -16876425.08749 -13134342.60747  22184617.929    22184626.373
  24550996.008    -6970455.92949  -5417095.07945  24550995.540    24551002.554
  23514971.912   -12580082.43949  -9548730.91045  23514971.074    23514980.307
  22317998.005     1368963.21449   1086147.38046  22317998.241    22318005.616
  23531130.478   -10907393.57949  -8470750.17046  23531130.038    23531138.622
  21426594.898   -22826857.65449 -17772725.60647  21426594.287    21426601.390
  23046702.613   -11778146.54649  -8947559.01546  23046702.640    23046713.039
 03  3 20 21 47  0.0000000  0 10G 6G10G29G23G16G15G30G18G17G26
  20311000.003   -20069865.93149 -15622797.34748  20310999.747    20311005.771
  22762189.219    -2661367.61549  -2058589.69046  22762188.335    22762195.850
  23304707.237   -10274070.82149  -7995409.16846  23304707.057    23304715.743
  22168635.599   -16960415.75149 -13199789.78047  22168634.974    22168643.423
  24535521.214    -7051775.99849  -5480461.29445  24535520.672    24535527.828
  23500538.455   -12655930.71149  -9607833.40845  23500537.656    23500546.791
  22336146.573     1464334.01749   1160462.19446  22336146.787    22336154.196
  23511192.102   -11012170.25149  -8552394.23546  23511191.631    23511200.182
  21419695.184   -22863115.70549 -17800978.62047  21419694.554    21419701.668
  23032018.493   -11855311.19149  -9007687.11646  23032018.526    23032028.868
 03  3 20 21 47 30.0000000  0 10G 6G10G29G23G16G15G30G18G17G26
  20309969.164   -20075283.12149 -15627018.53348  20309968.891    20309974.932
  22779763.859    -2569012.40249  -1986624.62246  22779762.949    22779770.514
  23296802.469   -10315610.46549  -8027777.60946  23296802.229    23296810.887
  22152717.678   -17044064.53849 -13264970.55247  22152717.073    22152725.487
  24520113.290    -7132745.20749  -5543554.13045  24520112.739    24520119.814
  23486130.985   -12731641.92349  -9666829.10545  23486130.160    23486139.353
  22354340.011     1559940.80549   1234960.88646  22354340.222    22354347.664
  23491287.747   -11116768.10449  -8633898.97446  23491287.310    23491295.808
  21412833.788   -22899172.64649 -17829074.92247  21412833.154    21412840.257
  23017391.027   -11932178.45849  -9067583.48846  23017391.052    23017401.346
 03  3 20 21 48  0.0000000  0 10G 6G10G29G23G16G15G30G18G17G26
  20309014.288   -20080301.06549 -15630928.62048  20309014.032    20309020.052
  22797392.393    -2476373.98949  -1914438.88746  22797391.484    22797399.059
  23288975.465   -10356741.01649  -8059827.26146  23288975.298    23288983.926
  22136865.248   -17127369.22749 -13329883.18847  22136864.648    22136873.035
  24504772.749    -7213360.11049  -5606370.87945  24504772.299    24504779.384
  23471749.707   -12807215.41949  -9725717.48645  23471748.916    23471758.156
  22372577.882     1655780.90749   1309641.38746  22372578.096    22372585.519
  23471417.918   -11221184.59549  -8715262.39846  23471417.506    23471425.966
  21406010.662   -22935028.41149 -17857014.46047  21406010.038    21406017.128
  23002820.800   -12008744.54949  -9127245.18046  23002820.829    23002831.104
 03  3 20 21 48 30.0000000  0 10G 6G10G29G23G16G15G30G18G17G26
  20308135.501   -20084919.11249 -15634527.09848  20308135.231    20308141.238
  22815074.130    -2383456.03249  -1842035.33246  22815073.203    22815080.777
  23281226.622   -10397460.85049  -8091556.88746  23281226.432    23281235.093
  22121078.531   -17210328.52349 -13394526.68147  22121077.927    22121086.273
  24489499.934    -7293619.42549  -5668910.55945  24489499.413    24489506.548
  23457394.559   -12882651.91449  -9784499.11345  23457393.834    23457403.018
  22390859.479     1751850.91349   1384501.03146  22390859.660    22390867.119
  23451582.780   -11325418.44149  -8796483.49346  23451582.337    23451590.822
  21399225.673   -22970683.72149 -17884797.79547  21399225.035    21399232.122
  22988308.440   -12085006.57149  -9186669.92046  22988308.466    22988318.781
 03  3 20 21 49  0.0000000  0 10G 6G10G29G23G16G15G30G18G17G26
  20307333.191   -20089135.29049 -15637812.43048  20307332.936    20307338.931
  22832808.670    -2290260.51449  -1769415.48046  22832807.746    22832815.366
  23273556.539   -10437766.89149  -8122964.07746  23273556.392    23273564.989
  22105358.040   -17292939.75649 -13458898.94647  22105357.450    22105365.781
  24474295.396    -7373519.78949  -5731170.53445  24474294.858    24474301.944
  23443065.631   -12957950.65649  -9843173.39645  23443064.934    23443074.108
  22409184.389     1848148.52849   1459538.02446  22409184.584    22409192.038
  23431783.036   -11429466.59049  -8877559.88546  23431782.624    23431791.100
  21392478.880   -23006138.26149 -17912424.68747  21392478.236    21392485.343
  22973854.719   -12160960.36749  -9245854.48346  22973854.751    22973865.066
 03  3 20 21 49 30.0000000  0 10G 6G10G29G23G16G15G30G18G17G26
  20306607.590   -20092948.54649 -15640783.79648  20306607.308    20306613.301
  22850595.458    -2196790.23949  -1696581.53746  22850594.513    22850602.212
  23265965.570   -10477657.43349  -8154047.50146  23265965.398    23265973.946
  22089704.089   -17375201.41349 -13522998.80947  22089703.487    22089711.836
  24459159.618    -7453058.97649  -5793149.08245  24459159.116    24459166.187
  23428762.986   -13033111.48849  -9901740.22545  23428762.225    23428771.397
  22427551.981     1944670.52349   1534749.86546  22427552.179    22427559.628
  23412019.040   -11533326.90549  -8958489.92546  23412018.567    23412027.051
  21385770.195   -23041392.59049 -17939895.56847  21385769.550    21385776.666
  22959460.358   -12236602.47349  -9304796.14846  22959460.366    22959470.680
 03  3 20 21 50  0.0000000  0 10G 6G10G29G23G16G15G30G18G17G26
  20305958.766   -20096358.03149 -15643440.54048  20305958.497    20305964.497
  22868433.921    -2103048.52049  -1623536.08446  22868432.993    22868440.726
  23258454.111   -10517130.38949  -8184805.54146  23258453.868    23258462.381
  22074116.894   -17457112.01049 -13586825.12347  22074116.288    22074124.670
  24444092.900    -7532235.07149  -5854844.70245  24444092.387    24444099.511
  23414486.514   -13108134.75449  -9960199.85345  23414485.769    23414494.970
  22445961.659     2041413.63849   1610133.99646  22445961.844    22445969.358
  23392291.165   -11636997.44949  -9039272.07846  23392290.705    23392299.090
  21379099.467   -23076447.36649 -17967210.95747  21379098.828    21379105.946
  22945125.863   -12311929.98949  -9363492.70246  22945125.880    22945136.141
 03  3 20 21 50 30.0000000  0 10G 6G10G29G23G16G15G30G18G17G26
  20305386.986   -20099362.61649 -15645781.77448  20305386.723    20305392.727
  22886323.542    -2009038.11449  -1550281.26546  22886322.618    22886330.387
  23251022.521   -10556183.48449  -8215236.41246  23251022.272    23251030.671
  22058596.904   -17538669.63449 -13650376.38647  22058596.302    22058604.671
  24429095.759    -7611045.44249  -5916255.34045  24429095.279    24429102.344
  23400236.203   -13183020.24349 -10018552.11645  23400235.454    23400244.735
  22464412.842     2138374.81349   1685688.07046  22464413.040    22464420.546
  23372599.722   -11740476.36049  -9119904.91546  23372599.266    23372607.590
  21372466.710   -23111302.66349 -17994370.90847  21372466.070    21372473.165
  22930851.915   -12386939.43649  -9421941.43446  22930851.912    22930862.173
 03  3 20 21 51  0.0000000  0 10G 6G10G29G23G16G15G30G18G17G26
  20304892.590   -20101960.74549 -15647806.28948  20304892.326    20304898.315
  22904263.808    -1914761.54549  -1476819.04346  22904262.879    22904270.680
  23243671.260   -10594814.18149  -8245338.14546  23243671.061    23243679.338
  22043144.491   -17619872.20949 -13713651.01147  22043143.899    22043152.213
  24414168.667    -7689487.53349  -5977379.01945  24414168.213    24414175.277
  23386012.202   -13257767.49849 -10076796.66446  23386011.471    23386020.708
  22482905.062     2235551.66549   1761410.19546  22482905.228    22482912.765
  23352945.278   -11843761.07649  -9200386.42246  23352944.853    23352953.042
  21365871.878   -23145958.67949 -18021375.56947  21365871.235    21365878.315
  22916639.170   -12461626.90049  -9480139.24646  22916639.171    22916649.380
 03  3 20 21 51 30.0000000  0 10G 6G10G29G23G16G15G30G18G17G26
  20304475.654   -20104151.69849 -15649513.52548  20304475.404    20304481.377
  22922254.097    -1820221.99649  -1403151.90746  22922253.194    22922260.968
  23236400.670   -10633020.89749  -8275109.51046  23236400.495    23236408.705
  22027759.902   -17700718.20249 -13776647.76947  22027759.330    22027767.637
  24399312.087    -7767559.45249  -6038214.25745  24399311.588    24399318.641
  23371814.464   -13332376.89949 -10134933.80146  23371813.780    23371822.909
  22501437.651     2332940.60949   1837297.58646  22501437.788    22501445.339
  23333328.039   -11946850.08049  -9280715.44546  23333327.604    23333335.718
  21359314.853   -23180416.00549 -18048225.40447  21359314.205    21359321.261
  22902488.246   -12535989.50849  -9538083.90946  22902488.248    22902498.446
 03  3 20 21 52  0.0000000  0 10G 6G10G29G23G16G15G30G18G17G26
  20304136.580   -20105933.63649 -15650902.05048  20304136.329    20304142.294
  22940294.000    -1725421.54749  -1329281.46546  22940293.126    22940300.941
  23229211.332   -10670800.72049  -8304548.22546  23229211.142    23229219.320
  22012443.649   -17781205.22349 -13839364.81147  22012443.053    22012451.378
  24384526.523    -7845258.06749  -6098758.61145  24384526.024    24384533.140
  23357643.114   -13406847.80749 -10192963.00746  23357642.430    23357651.522
  22520010.140     2430539.35249   1913348.45846  22520010.301    22520017.854
  23313748.535   -12049740.58649  -9360889.79646  23313748.099    23313756.188
  21352795.631   -23214674.55549 -18074920.34747  21352794.988    21352802.040
  22888399.996   -12610023.05549  -9595772.17446  22888399.981    22888410.109
 03  3 20 21 52 30.0000000  0 10G 6G10G29G23G16G15G30G18G17G26
  20303875.437   -20107305.86449 -15651971.31748  20303875.200    20303881.177
  22958383.000    -1630363.35249  -1255210.19546  22958382.133    22958389.985
  23222103.598   -10708151.83949  -8333652.88246  23222103.403    23222111.578
  21997195.949   -17861331.93549 -13901801.09947  21997195.349    21997203.641
  24369812.288    -7922581.53149  -6159010.64745  24369811.821    24369818.824
  23343498.064   -13481180.36249 -10250884.39546  23343497.393    23343506.444
  22538621.918     2528344.59349   1989560.23746  22538622.106    22538629.697
  23294207.113   -12152430.80149  -9440908.05646  23294206.667    23294214.823
  21346314.196   -23248734.61149 -18101460.63347  21346313.575    21346320.633
  22874374.922   -12683724.53449  -9653201.68346  22874374.940    22874384.932
 03  3 20 21 53  0.0000000  0 10G 6G10G29G23G16G15G30G18G17G26
  20303692.500   -20108267.24249 -15652720.45048  20303692.256    20303698.231
  22976520.454    -1535050.50349  -1180940.49646  22976519.556    22976527.424
  23215077.804   -10745072.18649  -8362421.87646  23215077.606    23215085.795
  21982017.186   -17941096.68149 -13963955.35047  21982016.577    21982024.793
  24355169.918    -7999527.45449  -6218968.49545  24355169.367    24355176.512
  23329379.418   -13555374.32449 -10308697.79546  23329378.737    23329387.706
  22557272.425     2626353.25349   2065930.51946  22557272.625    22557280.267
  23274704.360   -12254918.25049  -9520768.32946  23274703.878    23274712.071
  21339870.418   -23282596.69049 -18127846.65147  21339869.795    21339876.846
  22860413.653   -12757090.66249  -9710369.87446  22860413.655    22860423.627
 03  3 20 21 53 30.0000000  0 10G 6G10G29G23G16G15G30G18G17G26
  20303587.857   -20108817.20849 -15653148.99648  20303587.609    20303593.580
  22994705.821    -1439486.01149  -1106474.69446  22994704.927    22994712.801
  23208134.236   -10781560.30849  -8390854.07846  23208134.063    23208142.233
  21966907.502   -18020498.10449 -14025826.48647  21966906.907    21966915.077
  24340599.792    -8076093.95149  -6278630.67845  24340599.363    24340606.412
  23315287.012   -13629430.29449 -10366403.67946  23315286.323    23315295.212
  22575960.984     2724561.85949   2142456.61146  22575961.167    22575968.840
  23255240.454   -12357201.32449  -9600469.32946  23255240.003    23255248.162
  21333464.133   -23316261.85049 -18154079.21547  21333463.511    21333470.589
  22846516.813   -12830118.33749  -9767274.32346  22846516.786    22846526.704
 03  3 20 21 54  0.0000000  0 10G 6G10G29G23G16G15G30G18G17G26
  20303561.841   -20108953.96449 -15653255.56148  20303561.577    20303567.572
  23012938.604    -1343672.23949  -1031814.66146  23012937.734    23012945.539
  23201273.476   -10817613.37749  -8418947.28946  23201273.283    23201281.428
  21951867.411   -18099533.94649 -14087412.76047  21951866.809    21951874.967
  24326102.390    -8152278.12449  -6337994.94845  24326101.870    24326109.064
  23301220.960   -13703347.71449 -10424001.58746  23301220.231    23301229.107
  22594687.174     2822968.07449   2219136.67646  22594687.353    22594694.967
  23235815.896   -12459277.60349  -9680009.20246  23235815.449    23235823.626
  21327095.377   -23349729.81149 -18180158.12947  21327094.750    21327101.798
  22832685.098   -12902803.47649  -9823911.89446  22832685.101    22832694.932
 03  3 20 21 54 30.0000000  0 10G 6G10G29G23G16G15G30G18G17G26
  20303614.621   -20108676.49049 -15653039.35248  20303614.350    20303620.330
  23031218.342    -1247611.83649   -956962.43046  23031217.450    23031225.298
  23194495.924   -10853229.36649  -8446699.91446  23194495.725    23194503.788
  21936897.231   -18178202.35349 -14148712.72047  21936896.633    21936904.762
  24311678.210    -8228077.60449  -6397059.44045  24311677.716    24311684.885
  23287181.297   -13777126.36749 -10481491.37646  23287180.571    23287189.429
  22613450.394     2921569.02149   2295968.47446  22613450.584    22613458.222
  23216431.174   -12561144.75949  -9759386.09946  23216430.749    23216438.892
  21320764.171   -23383000.59849 -18206083.39847  21320763.552    21320770.545
  22818919.204   -12975142.93249  -9880280.09146  22818919.162    22818928.963
 03  3 20 21 55  0.0000000  0 10G 6G10G29G23G16G15G30G18G17G26
  20303746.483   -20107983.55749 -15652499.40448  20303746.229    20303752.208
  23049544.425    -1151307.76249   -881920.33646  23049543.553    23049551.397
  23187801.942   -10888406.20349  -8474110.35046  23187801.719    23187809.735
  21921997.299   -18256501.66549 -14209725.09347  21921996.698    21922004.799
  24297327.660    -8303490.16449  -6455822.45945  24297327.111    24297334.401
  23273168.071   -13850766.24749 -10538873.01246  23273167.362    23273176.122
  22632250.089     3020361.64649   2372949.63546  22632250.279    22632257.944
  23197086.591   -12662800.92749  -9838598.60446  23197086.132    23197094.261
  21314470.354   -23416074.79949 -18231855.48147  21314469.730    21314476.713
  22805219.713   -13047133.22249  -9936376.20546  22805219.656    22805229.493
 03  3 20 21 55 30.0000000  0 10G 6G10G29G23G16G15G30G18G17G26
  20303957.667   -20106873.86949 -15651634.71448  20303957.423    20303963.408
  23067916.431    -1054762.46849   -806690.27846  23067915.484    23067923.366
  23181191.902   -10923141.63349  -8501176.83946  23181191.705    23181199.657
  21907167.986   -18334429.89449 -14270448.30947  21907167.364    21907175.434
  24283051.186    -8378513.33249  -6514282.02645  24283050.684    24283057.758
  23259181.264   -13924267.13149 -10596146.35246  23259180.544    23259189.241
  22651085.734     3119343.11949   2450077.94946  22651085.929    22651093.589
  23177782.533   -12764243.89949  -9917644.95846  23177782.065    23177790.216
  21308213.957   -23448952.32549 -18257474.31247  21308213.331    21308220.306
  22791587.362   -13118770.75549  -9992197.45046  22791587.333    22791597.099
 03  3 20 21 56  0.0000000  0 10G 6G10G29G23G16G15G30G18G17G26
  20304248.231   -20105346.97449 -15650444.92148  20304247.982    20304253.962
  23086333.691     -957979.16849   -731274.76846  23086332.784    23086340.606
  23174666.177   -10957434.28649  -8527898.31846  23174665.983    23174673.924
  21892409.524   -18411985.80949 -14330881.39847  21892408.911    21892416.931
  24268849.180    -8453145.35549  -6572436.82245  24268848.676    24268855.743
  23245220.808   -13997629.41349 -10653311.68346  23245220.139    23245228.746
  22669956.640     3218510.01549   2527350.75746  22669956.845    22669964.522
  23158519.366   -12865471.85749  -9996523.75946  23158518.941    23158527.052
  21301994.831   -23481634.05649 -18282940.57147  21301994.196    21302001.169
  22778022.674   -13190052.72649 -10047741.63846  22778022.674    22778032.360
 03  3 20 21 56 30.0000000  0 10G 6G10G29G23G16G15G30G18G17G26
  20304618.406   -20103401.57549 -15648929.02448  20304618.155    20304624.147
  23104795.710     -860960.61149   -655675.93546  23104794.813    23104802.625
  23168225.127   -10991281.78949  -8554272.91846  23168224.912    23168232.863
  21877722.232   -18489167.63049 -14391022.98247  21877721.599    21877729.627
  24254722.085    -8527383.66349  -6630284.82245  24254721.496    24254728.639
  23231286.792   -14070852.67649 -10710368.68446  23231286.105    23231294.731
  22688862.235     3317859.42649   2604765.77446  22688862.437    22688870.198
  23139297.581   -12966482.51349 -10075233.24746  23139297.158    23139305.245
  21295812.898   -23514120.10949 -18308254.35047  21295812.266    21295819.255
  22764526.428   -13260975.33549 -10103005.83546  22764526.446    22764536.027
 03  3 20 21 57  0.0000000  0 10G 6G10G29G23G16G15G30G18G17G26
  20305068.474   -20101036.51649 -15647086.11948  20305068.224    20305074.202
  23123302.035     -763709.46949   -579895.86746  23123301.151    23123308.982
  23161869.090   -11024682.40149  -8580299.30746  23161868.892    23161876.869
  21863106.421   -18565973.75349 -14450871.80947  21863105.827    21863113.817
  24240670.275    -8601226.19749  -6687824.41245  24240669.753    24240676.779
  23217379.249   -14143936.91149 -10767317.36546  23217378.584    23217387.183
  22707802.104     3417388.61649   2682320.87946  22707802.295    22707810.077
  23120117.562   -13067273.83749 -10153771.82146  23120117.086    23120125.263
  21289668.194   -23546410.49549 -18333415.66047  21289667.570    21289674.562
  22751099.157   -13331535.42449 -10157987.51746  22751099.142    22751108.673
 03  3 20 21 57 30.0000000  0 10G 6G10G29G23G16G15G30G18G17G26
  20305598.501   -20098251.17349 -15644915.72548  20305598.267    20305604.210
  23141852.062     -666228.59649   -503936.79646  23141851.180    23141859.034
  23155598.564   -11057634.05349  -8605975.83046  23155598.333    23155606.303
  21848562.362   -18642402.73149 -14510426.75647  21848561.766    21848569.759
  24226694.233    -8674670.52149  -6745053.71545  24226693.759    24226700.637
  23203498.159   -14216882.21449 -10824157.77246  23203497.523    23203506.076
  22726775.564     3517094.36449   2760013.57846  22726775.760    22726783.546
  23100979.597   -13167843.98649 -10232138.03546  23100979.115    23100987.274
  21283560.553   -23578506.24649 -18358425.30847  21283559.928    21283566.935
  22737741.494   -13401729.72849 -10212684.18346  22737741.509    22737750.967
 03  3 20 21 58  0.0000000  0 10G 6G10G29G23G16G15G30G18G17G26
  20306208.669   -20095044.81049 -15642417.25948  20306208.424    20306214.366
  23160445.177     -568521.33849   -427801.32646  23160444.298    23160452.116
  23149413.711   -11090135.23149  -8631301.34546  23149413.504    23149421.521
  21834090.370   -18718453.22649 -14569686.77247  21834089.794    21834097.759
  24212794.281    -8747714.85849  -6801971.36145  24212793.742    24212800.682
  23189643.483   -14289688.91249 -10880890.18346  23189642.835    23189651.307
  22745781.975     3616973.23449   2837841.17646  22745782.193    22745789.966
  23081884.071   -13268191.08749 -10310330.44346  23081883.615    23081891.754
  21277489.870   -23610407.83449 -18383283.65847  21277489.231    21277496.214
  22724453.978   -13471555.36549 -10267093.57446  22724454.008    22724463.368
 03  3 20 21 58 30.0000000  0 10G 6G10G29G23G16G15G30G18G17G26
  20306899.393   -20091414.90649 -15639588.76348  20306899.146    20306905.094
  23179081.206     -470588.83949   -351490.33346  23179080.276    23179088.136
  23143315.289   -11122182.42349  -8656273.10746  23143315.076    23143323.047
  21819690.961   -18794122.18749 -14628649.50647  21819690.383    21819698.307
  24198971.154    -8820355.57449  -6858574.48345  24198970.691    24198977.516
  23175815.433   -14362355.51649 -10937513.44746  23175814.728    23175823.212
  22764821.013     3717023.73449   2915802.51746  22764821.232    22764829.091
  23062831.693   -13368311.82649 -10388346.47246  23062831.224    23062839.293
  21271456.325   -23642114.22949 -18407989.91847  21271455.698    21271462.654
  22711237.593   -13541007.47349 -10321211.91646  22711237.578    22711246.850
 03  3 20 21 59  0.0000000  0 10G 6G10G29G23G16G15G30G18G17G26
  20307670.627   -20087362.13549 -15636430.76048  20307670.372    20307676.325
  23197759.195     -372435.56149   -275007.29846  23197758.286    23197766.136
  23137303.210   -11153775.73749  -8680891.20646  23137303.029    23137310.942
  21805364.176   -18869409.66649 -14687314.97647  21805363.571    21805371.481
  24185224.946    -8892592.20749  -6914862.72745  24185224.528    24185231.314
  23162013.737   -14434883.66049 -10994028.79646  23162013.042    23162021.490
  22783891.817     3817241.27449   2993894.00946  22783892.039    22783899.922
  23043822.434   -13468205.82049 -10466185.82846  23043821.985    23043829.971
  21265459.586   -23673627.25449 -18432545.50047  21265458.949    21265465.909
  22698092.543   -13610084.34549 -10375037.88346  22698092.528    22698101.772
 03  3 20 21 59 30.0000000  0 10G 6G10G29G23G16G15G30G18G17G26
  20308522.626   -20082884.78149 -15632941.91048  20308522.372    20308528.333
  23216478.807     -274063.56449   -198353.85546  23216477.837    23216485.824
  23131378.073   -11184912.31749  -8705153.38446  23131377.910    23131385.844
  21791110.426   -18944313.31049 -14745681.35347  21791109.819    21791117.704
  24171556.274    -8964421.63649  -6970833.66445  24171555.780    24171562.575
  23148238.518   -14507272.41649 -11050435.54346  23148237.809    23148246.305
  22802994.026     3917623.74849   3072114.01546  22802994.245    22803002.164
  23024856.858   -13567870.08249 -10543846.16346  23024856.414    23024864.334
  21259499.696   -23704946.54049 -18456950.11447  21259499.065    21259506.014
  22685019.712   -13678781.94249 -10428568.30246  22685019.648    22685028.867
 03  3 20 22  0  0.0000000  0 10G 6G10G29G23G16G15G30G18G17G26
  20309455.667   -20077981.74049 -15629121.36048  20309455.417    20309461.368
  23235239.538     -175475.41149   -121531.95646  23235238.599    23235246.568
  23125540.247   -11215590.32349  -8729058.25446  23125540.012    23125547.934
  21776930.055   -19018831.45449 -14803747.35447  21776929.436    21776937.305
  24157965.492    -9035841.68849  -7026485.61945  24157964.889    24157971.741
  23134489.893   -14579521.67649 -11106733.57946  23134489.206    23134497.715
  22822126.999     4018167.96749   3150460.06546  22822127.220    22822135.153
  23005935.427   -13667302.53949 -10621325.86046  23005935.013    23005942.814
  21253576.673   -23736072.20149 -18481203.85047  21253576.036    21253582.963
  22672019.649   -13747096.83049 -10481800.51046  22672019.578    22672028.770
 03  3 20 22  0 30.0000000  0 10G 6G10G29G23G16G15G30G18G17G26
  20310469.836   -20072652.31849 -15624968.56148  20310469.584    20310475.511
  23254040.790      -76674.13949    -44544.01246  23254039.903    23254047.853
  23119789.995   -11245807.95449  -8752604.38946  23119789.703    23119797.563
  21762823.235   -19092962.81149 -14861511.95847  21762822.612    21762830.464
  24144452.996    -9106850.51449  -7081817.12645  24144452.463    24144459.185
  23120767.767   -14651631.48849 -11162922.94346  23120767.026    23120775.583
  22841290.182     4118870.95749   3228929.83446  22841290.384    22841298.397
  22987058.416   -13766501.47849 -10698623.60746  22987057.972    22987065.773
  21247690.381   -23767004.77349 -18505307.12647  21247689.740    21247696.646
  22659092.980   -13815026.08349 -10534732.22346  22659092.947    22659102.041
 03  3 20 22  1  0.0000000  0 10G 6G10G29G23G16G15G30G18G17G26
  20311565.365   -20066895.19049 -15620482.48448  20311565.106    20311571.035
  23272882.251       22338.06449     32608.29546  23272881.319    23272889.328
  23114127.729   -11275563.09549  -8775790.13046  23114127.472    23114135.272
  21748790.436   -19166705.38149 -14918973.60647  21748789.836    21748797.646
  24131019.244    -9177445.33249  -7136826.04145  24131018.814    24131025.433
  23107072.255   -14723601.59749 -11219003.47646  23107071.507    23107080.104
  22860483.120     4219730.14549   3307521.32446  22860483.317    22860491.326
  22968226.277   -13865464.31649 -10775737.38646  22968225.878    22968233.605
  21241840.875   -23797744.02149 -18529259.76247  21241840.230    21241847.141
  22646240.516   -13882565.84449 -10587360.42846  22646240.434    22646249.458
 03  3 20 22  1 30.0000000  0 10G 6G10G29G23G16G15G30G18G17G26
  20312742.384   -20060709.88049 -15615662.75448  20312742.131    20312748.074
  23291763.136      121557.81649    109922.34446  23291762.209    23291770.213
  23108553.719   -11304854.18949  -8798614.29046  23108553.482    23108561.258
  21734831.817   -19240058.10349 -14976131.48047  21734831.220    21734838.974
  24117664.655    -9247624.40549  -7191511.00145  24117664.159    24117670.788
  23093403.201   -14795432.38849 -11274975.43446  23093402.460    23093411.066
  22879705.149     4320742.05049   3386231.80946  22879705.380    22879713.393
  22949439.455   -13964189.30749 -10852665.82846  22949439.034    22949446.740
  21236028.079   -23828290.33449 -18553062.05847  21236027.464    21236034.360
  22633462.599   -13949713.32649 -10639682.97646  22633462.571    22633471.541
 03  3 20 22  2  0.0000000  0 10G 6G10G29G23G16G15G30G18G17G26
  20314001.103   -20054095.35149 -15610508.56848  20314000.850    20314006.762
  23310683.016      220982.36949    187395.95846  23310682.100    23310690.118
  23103068.355   -11333679.62349  -8821075.58246  23103068.129    23103075.943
  21720947.675   -19313019.49149 -15032984.43047  21720947.071    21720954.781
  24104389.526    -9317385.50549  -7245870.26645  24104389.029    24104395.703
  23079760.740   -14867123.75749 -11330838.74846  23079760.035    23079768.580
  22898955.639     4421903.77349   3465059.02746  22898955.823    22898963.948
  22930698.163   -14062674.83149 -10929407.66546  22930697.739    22930705.376
  21230251.881   -23858644.32649 -18576714.48947  21230251.253    21230258.166
  22620760.012   -14016465.25249 -10691697.29746  22620759.983    22620768.850
 03  3 20 22  2 30.0000000  0 10G 6G10G29G23G16G15G30G18G17G26
  20315341.709   -20047050.48349 -15605019.05748  20315341.452    20315347.347
  23329641.390      320609.41149    265027.34446  23329640.436    23329648.582
  23097671.964   -11362037.52849  -8843172.56746  23097671.685    23097679.518
  21707138.300   -19385587.90849 -15089531.16447  21707137.691    21707145.392
  24091194.392    -9386726.40049  -7299902.10345  24091193.993    24091200.642
  23066144.842   -14938675.45449 -11386593.22946  23066144.121    23066152.687
  22918234.087     4523212.35649   3544000.69246  22918234.266    22918242.466
  22912002.925   -14160918.40349 -11005960.95646  22912002.521    22912010.121
  21224512.095   -23888806.97249 -18600217.81747  21224511.457    21224518.397
  22608133.311   -14082818.30649 -10743400.82446  22608133.325    22608142.098
 03  3 20 22  3  0.0000000  0 10G 6G10G29G23G16G15G30G18G17G26
  20316764.385   -20039574.24149 -15599193.40648  20316764.117    20316769.998
  23348637.797      420436.15549    342814.35846  23348636.915    23348645.061
  23092364.908   -11389925.83249  -8864903.64046  23092364.689    23092372.471
  21693404.035   -19457761.61249 -15145770.33647  21693403.430    21693411.093
  24078079.562    -9455644.97749  -7353604.83645  24078079.153    24078085.850
  23052555.584   -15010087.05849 -11442238.54146  23052554.888    23052563.433
  22937539.949     4624665.20649   3623054.76346  22937540.121    22937548.396
  22893354.071   -14258918.25449 -11082324.35446  22893353.642    22893361.251
  21218808.809   -23918777.72049 -18623571.61947  21218808.175    21218815.125
  22595583.190   -14148769.03849 -10794790.85546  22595583.193    22595591.900
 03  3 20 22  3 30.0000000  0 10G 6G10G29G23G16G15G30G18G17G26
  20318269.223   -20031666.27949 -15593031.35148  20318268.955    20318274.826
  23367671.708      520459.64649    420754.69646  23367670.838    23367678.965
  23087147.514   -11417343.24149  -8886267.76946  23087147.290    23087155.041
  21679745.103   -19529539.62949 -15201701.18147  21679744.485    21679752.105
  24065045.477    -9524139.38849  -7406977.06745  24065045.076    24065051.679
  23038992.967   -15081358.92949 -11497774.96146  23038992.288    23039000.800
  22956872.615     4726258.76149   3702218.48946  22956872.778    22956881.087
  22874751.962   -14356672.50249 -11158496.35946  22874751.519    22874759.106
  21213141.857   -23948557.59449 -18646776.68747  21213141.228    21213148.188
  22583110.171   -14214314.57449 -10845865.14746  22583110.158    22583118.835
 03  3 20 22  4  0.0000000  0 10G 6G10G29G23G16G15G30G18G17G26
  20319856.486   -20023325.04549 -15586531.69248  20319856.226    20319862.095
  23386742.626      620677.76449    498846.67546  23386741.766    23386749.903
  23082020.160   -11444287.45249  -8907263.17746  23082019.890    23082027.621
  21666161.787   -19600919.92049 -15257322.11047  21666161.189    21666168.776
  24052092.552    -9592207.05449  -7460016.76345  24052092.153    24052098.861
  23025456.942   -15152490.79349 -11553202.30846  23025456.258    23025464.754
  22976231.667     4827990.77749   3781490.10046  22976231.835    22976240.128
  22856197.075   -14454178.57449 -11234474.98146  22856196.654    22856204.167
  21207511.336   -23978146.06449 -18669832.61647  21207510.706    21207517.647
  22570714.985   -14279451.03049 -10896620.66146  22570714.999    22570723.610
 03  3 20 22  4 30.0000000  0 10G 6G10G29G23G16G15G30G18G17G26
  20321526.290   -20014550.32449 -15579694.24748  20321526.030    20321531.895
  23405849.929      721086.87749    577087.47146  23405849.038    23405857.147
  23076983.008   -11470757.29249  -8927888.94446  23076982.777    23076990.508
  21652654.364   -19671901.58949 -15312632.42247  21652653.770    21652661.337
  24039221.133    -9659846.31449  -7512722.63145  24039220.794    24039227.413
  23011947.489   -15223483.09149 -11608520.89546  23011946.820    23011955.301
  22995616.298     4929857.42449   3860866.61646  22995616.506    22995624.789
  22837689.678   -14551435.12449 -11310259.16246  22837689.228    22837696.739
  21201917.154   -24007543.73549 -18692739.86947  21201916.509    21201923.440
  22558398.106   -14344175.95749 -10947055.51346  22558398.137    22558406.706
 03  3 20 22  5  0.0000000  0 10G 6G10G29G23G16G15G30G18G17G26
  20323278.734   -20005341.24349 -15572518.33948  20323278.457    20323284.343
  23424993.102      821684.68549    655475.31446  23424992.245    23425000.355
  23072036.483   -11496751.17949  -8948143.83946  23072036.252    23072044.013
  21639223.051   -19742483.10849 -15367630.93247  21639222.468    21639230.061
  24026431.682    -9727055.21649  -7565093.15645  24026431.368    24026438.000
  22998464.565   -15294335.70449 -11663730.62946  22998463.915    22998472.384
  23015026.027     5031855.99749   3940345.92846  23015026.229    23015034.542
  22819230.141   -14648440.14049 -11385847.34546  22819229.676    22819237.116
  21196359.122   -24036751.35149 -18715499.02547  21196358.486    21196365.397
  22546160.188   -14408486.13349 -10997167.18546  22546160.188    22546168.756
 03  3 20 22  5 30.0000000  0 10G 6G10G29G23G16G15G30G18G17G26
  20325114.089   -19995696.26849 -15565002.77448  20325113.826    20325119.707
  23444171.780      922468.90949    734008.41046  23444170.928    23444179.014
  23067180.912   -11522266.80449  -8968026.07646  23067180.773    23067188.456
  21625868.339   -19812662.30549 -15422315.94847  21625867.744    21625875.326
  24013724.655    -9793831.07049  -7617126.24045  24013724.325    24013730.897
  22985008.409   -15365047.93349 -11718830.97646  22985007.720    22985016.238
  23034460.461     5133984.22149   4019926.27746  23034460.655    23034468.996
  22800818.940   -14745190.96049 -11461237.46046  22800818.482    22800825.899
  21190837.377   -24065768.23849 -18738109.55847  21190836.739    21190843.650
  22534001.914   -14472377.63749 -11046952.64546  22534001.905    22534010.460
 03  3 20 22  6  0.0000000  0 10G 6G10G29G23G16G15G30G18G17G26
  20327032.316   -19985615.80449 -15557147.86848  20327032.049    20327037.924
  23463385.233     1023436.00749    812684.01646  23463384.367    23463392.458
  23062416.467   -11547303.81049  -8987535.34646  23062416.282    23062423.962
  21612590.169   -19882439.14049 -15476687.42747  21612589.596    21612597.164
  24001100.220    -9860172.78849  -7668821.04245  24001099.795    24001106.482
  22971578.741   -15435620.95849 -11773822.86246  22971578.067    22971586.557
  23053918.730     5236237.85449   4099604.34246  23053918.924    23053927.278
  22782456.283   -14841686.95949 -11536429.01946  22782455.844    22782463.153
  21185351.581   -24094596.28849 -18760572.95047  21185350.947    21185357.832
  22521923.687   -14535848.43049 -11096410.23846  22521923.707    22521932.243
 03  3 20 22  6 30.0000000  0 10G 6G10G29G23G16G15G30G18G17G26
  20329033.842   -19975097.74149 -15548951.97348  20329033.593    20329039.439
  23482633.152     1124584.18949    891500.71246  23482632.292    23482640.424
  23057743.678   -11571859.18549  -9006669.32146  23057743.497    23057751.183
  21599389.057   -19951811.11149 -15530743.43447  21599388.485    21599396.023
  23988558.958    -9926077.42049  -7720175.24245  23988558.517    23988565.284
  22958175.870   -15506053.32949 -11828705.13346  22958175.136    22958183.652
  23073400.557     5338614.99749   4179378.65146  23073400.747    23073409.092
  22764142.695   -14937924.93749 -11611419.53946  22764142.242    22764149.544
  21179901.980   -24123234.08849 -18782888.09047  21179901.349    21179908.200
  22509926.312   -14598894.37449 -11145536.81146  22509926.353    22509934.878
 03  3 20 22  7  0.0000000  0 10G 6G10G29G23G16G15G30G18G17G26
  20331118.813   -19964141.32849 -15540414.50848  20331118.550    20331124.406
  23501915.023     1225910.76349    970456.42546  23501914.184    23501922.293
  23053162.842   -11595931.33249  -9025426.76846  23053162.707    23053170.305
  21586265.238   -20020776.88149 -15584482.91747  21586264.660    21586272.195
  23976101.295    -9991542.65949  -7771187.06545  23976100.781    23976107.635
  22944799.629   -15576345.20949 -11883477.92646  22944798.946    22944807.405
  23092905.329     5441112.95749   4259247.10546  23092905.524    23092913.878
  22745878.586   -15033902.93749 -11686207.46446  22745878.136    22745885.398
  21174488.523   -24151681.91849 -18805055.20347  21174487.887    21174494.721
  22498010.442   -14661512.19349 -11194329.77446  22498010.452    22498019.006
 03  3 20 22  7 30.0000000  0 10G 6G10G29G23G16G15G30G18G17G26
  20333287.154   -19952746.51049 -15531535.42848  20333286.888    20333292.739
  23521230.171     1327412.28149   1049548.43145  23521229.312    23521237.481
  23048674.076   -11619519.58749  -9043807.16046  23048673.875    23048681.484
  21573218.869   -20089335.66549 -15637905.27247  21573218.282    21573225.783
  23963727.422   -10056567.35549  -7821855.61745  23963727.007    23963733.816
  22931450.085   -15646497.13749 -11938141.69446  22931449.408    22931457.831
  23112432.399     5543727.88449   4339206.69846  23112432.556    23112440.945
  22727664.271   -15129619.53449 -11760791.67046  22727663.816    22727671.003
  21169110.917   -24179941.44449 -18827075.58847  21169110.260    21169117.092
  22486176.488   -14723699.45049 -11242787.21546  22486176.514    22486185.039
 03  3 20 22  8  0.0000000  0 10G 6G10G29G23G16G15G30G18G17G26
  20335539.208   -19940911.90149 -15522313.65148  20335538.949    20335544.794
  23540578.299     1429086.88649   1128775.32145  23540577.457    23540585.646
  23044277.821   -11642621.74049  -9061808.76246  23044277.639    23044285.209
  21560250.300   -20157485.71849 -15691009.13947  21560249.730    21560257.198
  23951437.934   -10121149.17149  -7872179.06645  23951437.515    23951444.372
  22918127.282   -15716508.77449 -11992696.13646  22918126.582    22918135.001
  23131981.274     5646457.46249   4419255.61646  23131981.452    23131989.814
  22709500.022   -15225072.77749 -11835170.67946  22709499.561    22709506.714
  21163769.242   -24208011.93549 -18848948.67047  21163768.608    21163775.421
  22474425.191   -14785452.30049 -11290906.16946  22474425.269    22474433.704
 03  3 20 22  8 30.0000000  0 10G 6G10G29G23G16G15G30G18G17G26
  20337875.009   -19928637.17549 -15512748.92548  20337874.732    20337880.577
  23559958.772     1530931.57249   1208134.75145  23559957.870    23559966.042
  23039974.295   -11665236.49849  -9079430.58346  23039974.138    23039981.720
  21547359.700   -20225225.93949 -15743793.65347  21547359.124    21547366.587
  23939233.057   -10185286.17849  -7922155.91645  23939232.674    23939239.404
  22904831.130   -15786380.35549 -12047141.42946  22904830.416    22904838.787
  23151551.328     5749298.48049   4499391.38246  23151551.514    23151559.902
  22691386.267   -15320260.67349 -11909342.92446  22691385.790    22691392.926
  21158463.478   -24235893.78649 -18870674.75647  21158462.841    21158469.618
  22462757.043   -14846768.20149 -11338684.64346  22462757.097    22462765.522
 03  3 20 22  9  0.0000000  0 10G 6G10G29G23G16G15G30G18G17G26
  20340294.756   -19915921.38749 -15502840.51648  20340294.477    20340300.311
  23579371.136     1632943.77749   1287624.72345  23579370.292    23579378.349
  23035763.936   -11687362.18149  -9096671.31346  23035763.702    23035771.281
  21534547.346   -20292554.91849 -15796257.72347  21534546.774    21534554.217
  23927113.191   -10248976.17449  -7971784.45145  23927112.834    23927119.503
  22891561.697   -15856111.40849 -12101477.22346  22891560.992    22891569.303
  23171142.120     5852248.21349   4579611.86246  23171142.312    23171150.710
  22673323.406   -15415181.20549 -11983306.84946  22673322.935    22673330.079
  21153193.576   -24263587.29849 -18892254.09448  21153192.929    21153199.691
  22451172.696   -14907643.86749 -11386120.06546  22451172.727    22451181.125
 03  3 20 22  9 30.0000000  0 10G 6G10G29G23G16G15G30G18G17G26
  20342798.529   -19902763.82749 -15492587.86948  20342798.254    20342804.108
  23598814.829     1735120.66949   1367243.01045  23598813.941    23598821.916
  23031646.728   -11708997.55749  -9113529.97746  23031646.553    23031654.139
  21521813.508   -20359471.55449 -15848400.48447  21521812.929    21521820.336
  23915078.762   -10312217.42749  -8021063.32545  23915078.426    23915085.034
  22878319.012   -15925702.09749 -12155703.64246  22878318.270    22878326.552
  23190752.962     5955303.46949   4659914.56846  23190753.106    23190761.573
  22655311.735   -15509832.65349 -12057061.10246  22655311.254    22655318.367
  21147959.340   -24291093.32749 -18913687.33648  21147958.693    21147965.440
  22439672.654   -14968076.26249 -11433210.09546  22439672.648    22439681.050
 03  3 20 22 10  0.0000000  0 10G 6G10G29G23G16G15G30G18G17G26
  20345386.548   -19889163.69549 -15481990.35948  20345386.272    20345392.120
  23618289.426     1837460.09749   1446987.98345  23618288.509    23618296.487
  23027623.309   -11730140.78849  -9130005.16046  23027623.039    23027630.707
  21509158.415   -20425974.39049 -15900220.80947  21509157.830    21509165.191
  23903130.095   -10375007.77649  -8069990.84145  23903129.728    23903136.387
  22865103.061   -15995152.22349 -12209820.55446  22865102.329    22865110.541
  23210383.349     6058461.54949   4740297.38546  23210383.545    23210391.969
  22637351.731   -15604212.56349 -12130603.77446  22637351.268    22637358.387
  21142760.844   -24318411.61149 -18934974.28448  21142760.202    21142766.912
  22428257.595   -15028062.09149 -11479952.15846  22428257.611    22428265.972
 03  3 20 22 10 30.0000000  0 10G 6G10G29G23G16G15G30G18G17G26
  20348058.902   -19875120.44249 -15471047.56048  20348058.632    20348064.475
  23637794.400     1939959.25649   1526857.38445  23637793.516    23637801.455
  23023693.694   -11750790.47749  -9146095.76046  23023693.499    23023701.152
  21496582.278   -20492062.21649 -15951717.74947  21496581.666    21496589.010
  23891267.631   -10437345.35349  -8118565.54745  23891267.250    23891273.833
  22851913.791   -16064462.10649 -12263828.16946  22851913.060    22851921.264
  23230032.768     6161719.45249   4820757.98246  23230032.923    23230041.398
  22619443.681   -15698319.36049 -12203933.61346  22619443.206    22619450.324
  21137597.992   -24345542.37249 -18956115.11148  21137597.346    21137604.047
  22416928.100   -15087598.42949 -11526343.97846  22416928.104    22416936.447
 03  3 20 22 11  0.0000000  0 10G 6G10G29G23G16G15G30G18G17G26
  20350815.696   -19860633.36649 -15459758.92348  20350815.424    20350821.283
  23657329.246     2042615.45049   1606849.14045  23657328.303    23657336.340
  23019858.320   -11770945.24349  -9161800.70646  23019858.094    23019865.752
  21484085.323   -20557733.86249 -16002890.38947  21484084.708    21484092.031
  23879491.650   -10499228.31349  -8166785.99845  23879491.282    23879497.764
  22838751.171   -16133631.69649 -12317726.47046  22838750.402    22838758.672
  23249700.601     6265074.21149   4901294.05946  23249700.747    23249709.246
  22601587.969   -15792151.29349 -12277049.27646  22601587.487    22601594.576
  21132470.811   -24372485.75749 -18977109.93248  21132470.155    21132476.846
  22405684.701   -15146682.36249 -11572383.26946  22405684.728    22405692.965
 03  3 20 22 11 30.0000000  0 10G 6G10G29G23G16G15G30G18G17G26
  20353657.110   -19845701.63249 -15448123.80848  20353656.847    20353662.700
  23676893.519     2145426.22849   1686961.36445  23676892.628    23676900.646
  23016117.363   -11790603.72149  -9177118.95946  23016117.204    23016124.745
  21471667.846   -20622987.90649 -16053737.62747  21471667.234    21471674.539
  23867802.625   -10560654.66349  -8214650.64945  23867802.274    23867808.778
  22825615.336   -16202660.58749 -12371515.13946  22825614.586    22825622.815
  23269386.333     6368522.87649   4981903.30446  23269386.489    23269394.958
  22583784.970   -15885706.18849 -12349949.06446  22583784.502    22583791.555
  21127379.272   -24399241.86349 -18997958.82148  21127378.630    21127385.306
  22394528.025   -15205310.62249 -11618067.48746  22394528.071    22394536.250
 03  3 20 22 12  0.0000000  0 10G 6G10G29G23G16G15G30G18G17G26
  20356583.195   -19830324.95749 -15436141.98148  20356582.911    20356588.773
  23696486.697     2248388.51849   1767191.65545  23696485.794    23696493.858
  23012471.175   -11809764.70649  -9192049.54846  23012470.978    23012478.496
  21459330.008   -20687823.48349 -16104258.78847  21459329.385    21459336.676
  23856200.759   -10621622.75449  -8262158.22345  23856200.386    23856206.919
  22812506.277   -16271548.91549 -12425194.27846  22812505.541    22812513.670
  23289089.337     6472062.39549   5062583.33846  23289089.479    23289097.978
  22566034.990   -15978982.57749 -12422631.83546  22566034.550    22566041.547
  21122323.197   -24425811.67949 -19018662.55148  21122322.541    21122329.215
  22383458.529   -15263480.55049 -11663394.58046  22383458.584    22383466.708
 03  3 20 22 12 30.0000000  0 10G 6G10G29G23G16G15G30G18G17G26
  20359594.174   -19814502.19349 -15423812.55548  20359593.896    20359599.739
  23716108.180     2351499.98149   1847538.16345  23716107.330    23716115.408
  23008919.957   -11828426.56949  -9206591.21546  23008919.706    23008927.169
  21447072.095   -20752238.92749 -16154452.57147  21447071.472    21447078.753
  23844686.540   -10682130.39049  -8309307.00045  23844686.237    23844692.626
  22799424.006   -16340296.32849 -12478763.61546  22799423.288    22799431.384
  23308809.126     6575690.17249   5143332.14246  23308809.268    23308817.831
  22548338.440   -16071978.07349 -12495095.72546  22548337.981    22548344.949
  21117302.555   -24452195.24349 -19039221.14848  21117301.896    21117308.563
  22372476.934   -15321188.68849 -11708361.83846  22372476.996    22372485.083
 03  3 20 22 13  0.0000000  0 10G 6G10G29G23G16G15G30G18G17G26
  20362690.005   -19798233.53049 -15411135.67348  20362689.733    20362695.553
  23735757.554     2454757.64649   1927998.60845  23735756.668    23735764.760
  23005463.823   -11846588.52549  -9220743.33646  23005463.569    23005471.075
  21434894.220   -20816233.80149 -16204318.63447  21434893.592    21434900.859
  23833260.198   -10742176.26949  -8356095.97045  23833259.858    23833266.261
  22786368.412   -16408903.48449 -12532223.66246  22786367.686    22786375.735
  23328545.003     6679402.54249   5224146.87246  23328545.184    23328553.737
  22530695.566   -16164691.55349 -12567339.88046  22530695.114    22530702.004
  21112317.193   -24478393.29049 -19059635.18648  21112316.527    21112323.202
  22361583.681   -15378432.76949 -11752967.49146  22361583.718    22361591.797
 03  3 20 22 13 30.0000000  0 10G 6G10G29G23G16G15G30G18G17G26
  20365870.940   -19781517.65549 -15398110.31648  20365870.661    20365876.466
  23755434.298     2558159.56349   2008571.44145  23755433.416    23755441.463
  23002103.301   -11864248.50749  -9234504.31746  23002102.955    23002110.390
  21422796.724   -20879806.32149 -16253855.59347  21422796.087    21422803.337
  23821922.146   -10801757.99349  -8402523.24545  23821921.747    23821928.232
  22773339.646   -16477369.75049 -12585573.91446  22773338.916    22773346.907
  23348296.629     6783197.46349   5305025.92346  23348296.770    23348305.354
  22513106.762   -16257120.89049 -12639362.65646  22513106.311    22513113.155
  21107367.286   -24504405.13249 -19079904.13148  21107366.614    21107373.308
  22350779.353   -15435209.17349 -11797208.72246  22350779.377    22350787.475
 03  3 20 22 14  0.0000000  0 10G 6G10G29G23G16G15G30G18G17G26
  20369137.068   -19764353.95049 -15384736.00148  20369136.790    20369142.603
  23775138.014     2661702.97949   2089254.56045  23775137.055    23775145.215
  22998838.201   -11881405.45249  -9247873.33046  22998838.036    22998845.473
  21410779.785   -20942955.40849 -16303062.60747  21410779.156    21410786.386
  23810672.736   -10860873.85249  -8448587.51245  23810672.295    23810678.785
  22760337.687   -16545695.28449 -12638814.52246  22760336.927    22760344.890
  23368063.363     6887071.81049   5385966.86546  23368063.496    23368072.058
  22495572.438   -16349263.84249 -12711162.28546  22495571.970    22495578.799
  21102452.777   -24530230.99749 -19100028.16348  21102452.116    21102458.785
  22340064.577   -15491515.18049 -11841083.42946  22340064.605    22340072.667
 03  3 20 22 14 30.0000000  0 10G 6G10G29G23G16G15G30G18G17G26
  20372488.579   -19746741.75649 -15371012.21248  20372488.300    20372494.105
  23794868.109     2765385.29849   2170045.90045  23794867.137    23794875.419
  22995669.467   -11898058.03949  -9260849.32846  22995669.129    22995676.591
  21398843.664   -21005679.86849 -16351938.73947  21398843.039    21398850.257
  23799512.295   -10919522.19749  -8494287.47745  23799511.801    23799518.369
  22747362.493   -16613880.06849 -12691945.44946  22747361.730    22747369.711
  23387844.658     6991022.64249   5466967.41246  23387844.742    23387853.379
  22478092.969   -16441118.62349 -12782737.31446  22478092.480    22478099.315
  21097573.502   -24555871.60849 -19120007.83848  21097572.834    21097579.520
  22329439.912   -15547347.64149 -11884589.12846  22329439.950    22329447.978
 03  3 20 22 15  0.0000000  0 10G 6G10G29G23G16G15G30G18G17G26
  20375925.477   -19728680.60649 -15356938.58848  20375925.201    20375930.996
  23814624.219     2869204.21849   2250943.66645  23814623.269    23814631.592
  22992596.655   -11914204.96549  -9273431.31146  22992596.457    22992603.885
  21386988.544   -21067978.69849 -16400483.21047  21386987.916    21386995.119
  23788441.255   -10977700.88349  -8539621.47845  23788440.755    23788447.306
  22734414.111   -16681923.97349 -12744966.59946  22734413.373    22734421.292
  23407639.905     7095047.14749   5548025.35946  23407640.008    23407648.682
  22460668.638   -16532683.55649 -12854086.48446  22460668.173    22460674.969
  21092729.487   -24581326.98749 -19139843.17848  21092728.828    21092735.502
  22318905.918   -15602703.83849 -11927723.74046  22318905.953    22318913.913
 03  3 20 22 15 30.0000000  0 10G 6G10G29G23G16G15G30G18G17G26
  20379448.009   -19710169.68449 -15342514.49548  20379447.722    20379453.521
  23834405.823     2973157.09449   2331945.85345  23834404.955    23834413.248
  22989620.544   -11929844.76849  -9285618.13746  22989620.327    22989627.715
  21375214.666   -21129850.54349 -16448694.97247  21375214.028    21375221.213
  23777459.876   -11035408.10049  -8584588.09245  23777459.427    23777465.888
  22721492.599   -16749826.64449 -12797877.70646  22721491.889    22721499.786
  23427448.597     7199142.54449   5629138.54746  23427448.705    23427457.485
  22443299.872   -16623956.53349 -12925208.15746  22443299.397    22443306.185
  21087920.710   -24606597.11549 -19159534.17548  21087920.047    21087926.729
  22308463.187   -15657580.51649 -11970484.69346  22308463.212    22308471.148
 03  3 20 22 16  0.0000000  0 10G 6G10G29G23G16G15G30G18G17G26
  20383056.097   -19691208.96249 -15327739.90348  20383055.814    20383061.620
  23854212.350     3077240.97349   2413050.10645  23854211.453    23854219.804
  22986740.908   -11944976.48649  -9297409.05246  22986740.781    22986748.196
  21363522.155   -21191294.77349 -16496573.52447  21363521.532    21363528.733
  23766568.476   -11092642.52149  -8629186.28245  23766568.037    23766574.498
  22708597.898   -16817588.46549 -12850679.04146  22708597.165    22708605.077
  23447270.261     7303305.74749   5710304.57046  23447270.362    23447279.185
  22425986.883   -16714936.40349 -12996101.42646  22425986.423    22425993.215
  21083147.036   -24631682.86049 -19179081.49248  21083146.362    21083153.042
  22298112.196   -15711975.20349 -12012870.06846  22298112.198    22298120.076
 03  3 20 22 16 30.0000000  0 10G 6G10G29G23G16G15G30G18G17G26
  20386749.913   -19671797.83849 -15312614.35048  20386749.637    20386755.445
  23874043.382     3181453.45049   2494254.57745  23874042.505    23874050.925
  22983958.399   -11959599.18049  -9308803.32346  22983958.147    22983965.553
  21351911.241   -21252310.26949 -16544118.00547  21351910.630    21351917.810
  23755767.418   -11149402.21949  -8673414.56845  23755766.975    23755773.429
  22695729.935   -16885209.51749 -12903370.68846  22695729.224    22695737.152
  23467104.255     7407533.55749   5791520.92346  23467104.401    23467113.200
  22408730.058   -16805621.03549 -13066764.65246  22408729.580    22408736.399
  21078408.337   -24656584.80149 -19198485.59448  21078407.682    21078414.375
  22287853.373   -15765885.08049 -12054877.67546  22287853.390    22287861.229
 03  3 20 22 17  0.0000000  0 10G 6G10G29G23G16G15G30G18G17G26
  20390529.511   -19651935.78049 -15297137.42448  20390529.240    20390535.062
  23893898.421     3285792.12349   2575557.33045  23893897.499    23893906.072
  22981272.909   -11973711.60249  -9319799.98746  22981272.596    22981279.997
  21340382.089   -21312896.07649 -16591327.66247  21340381.481    21340388.643
  23745057.011   -11205685.62049  -8717271.73045  23745056.549    23745063.081
  22682888.792   -16952689.74949 -12955952.61746  22682888.063    22682895.986
  23486950.011     7511823.22849   5872785.49546  23486950.172    23486958.928
  22391529.759   -16896008.63349 -13137196.43846  22391529.307    22391536.097
  21073704.763   -24681302.15849 -19217745.85548  21073704.108    21073710.801
  22277687.315   -15819307.33749 -12096505.32646  22277687.328    22277695.189
 03  3 20 22 17 30.0000000  0 10G 6G10G29G23G16G15G30G18G17G26
  20394395.139   -19631621.80549 -15281308.35148  20394394.864    20394400.687
  23913777.089     3390254.80949   2656956.76045  23913776.177    23913784.811
  22978684.638   -11987311.94049  -9330397.60846  22978684.508    22978691.888
  21328935.025   -21373050.51849 -16638201.19347  21328934.406    21328941.551
  23734437.700   -11261490.49949  -8760756.00145  23734437.251    23734443.716
  22670074.573   -17020028.40449 -13008424.21646  22670073.825    22670081.797
  23506807.095     7616172.52549   5954096.52646  23506807.246    23506816.037
  22374386.304   -16986097.27349 -13207395.27946  22374385.875    22374392.645
  21069036.319   -24705835.05749 -19236862.38748  21069035.660    21069042.326
  22267614.811   -15872238.47349 -12137750.28546  22267614.811    22267622.645
 03  3 20 22 18  0.0000000  0 10G 6G10G29G23G16G15G30G18G17G26
  20398346.738   -19610855.97949 -15265127.18548  20398346.469    20398352.281
  23933678.723     3494838.54449   2738450.47245  23933677.769    23933686.489
  22976194.328   -12000399.69949  -9340595.83246  22976193.962    22976201.339
  21317570.150   -21432773.16049 -16684738.25347  21317569.524    21317576.653
  23723909.613   -11316815.65449  -8803866.47245  23723909.139    23723915.540
  22657287.206   -17087226.19149 -13060786.03946  22657286.497    22657294.412
  23526674.829     7720577.78349   6035451.14546  23526675.011    23526683.771
  22357300.150   -17075885.44649 -13277360.00946  22357299.694    22357306.407
  21064402.826   -24730184.15249 -19255835.69248  21064402.168    21064408.835
  22257636.106   -15924676.32249 -12178610.86746  22257636.159    22257643.964
 03  3 20 22 18 30.0000000  0 10G 6G10G29G23G16G15G30G18G17G26
  20402384.522   -19589637.33149 -15248593.17648  20402384.263    20402390.069
  23953603.034     3599541.14149   2820036.84645  23953602.106    23953610.842
  22973801.453   -12012973.40349  -9350393.48646  22973801.228    22973808.623
  21306287.694   -21492062.64449 -16730937.78847  21306287.064    21306294.179
  23713473.189   -11371659.19449  -8846601.67645  23713472.745    23713479.059
  22644526.714   -17154282.64349 -13113037.72846  22644525.981    22644533.899
  23546552.813     7825036.73049   6116847.60146  23546552.970    23546561.709
  22340271.516   -17165371.22449 -13347089.11746  22340271.062    22340277.735
  21059804.271   -24754349.52249 -19274665.83048  21059803.621    21059810.300
  22247751.966   -15976617.72049 -12219084.61146  22247751.972    22247759.768
 03  3 20 22 19  0.0000000  0 10G 6G10G29G23G16G15G30G18G17G26
  20406508.546   -19567965.27049 -15231705.85548  20406508.288    20406514.101
  23973549.534     3704360.46949   2901714.14045  23973548.567    23973557.325
  22971506.662   -12025031.71249  -9359789.53646  22971506.567    22971513.975
  21295087.875   -21550917.78449 -16776798.87647  21295087.238    21295094.338
  23703128.847   -11426019.11749  -8888960.00845  23703128.425    23703134.722
  22631793.151   -17221197.56249 -13165179.14846  22631792.426    22631800.336
  23566440.508     7929546.61849   6198283.76446  23566440.602    23566449.344
  22323300.882   -17254552.17349 -13416580.70046  22323300.431    22323307.061
  21055240.622   -24778331.42749 -19293353.01148  21055239.981    21055246.668
  22237962.839   -16028059.67849 -12259169.19046  22237962.829    22237970.606
 03  3 20 22 19 30.0000000  0 10G 6G10G29G23G16G15G30G18G17G26
  20410718.775   -19545840.45049 -15214465.72948  20410718.524    20410724.342
  23993517.574     3809292.62949   2983479.41145  23993516.653    23993525.314
  22969310.230   -12036574.74649  -9368784.07246  22969309.968    22969317.404
  21283970.672   -21609338.80349 -16822321.68347  21283970.044    21283977.125
  23692876.611   -11479894.95949  -8930941.15045  23692876.193    23692882.469
  22619086.320   -17287972.03749 -13217211.12846  22619085.593    22619093.485
  23586337.110     8034103.43449   6279756.47345  23586337.208    23586345.969
  22306388.331   -17343427.89549 -13485834.42146  22306387.879    22306394.461
  21050711.702   -24802131.02349 -19311898.12848  21050711.076    21050717.738
  22228269.063   -16079000.43849 -12298863.20846  22228269.059    22228276.769
